     2              OBSERVATION DATA    GPS                 RINEX VERSION / TYPE
teqc 2000Jul20 Karen Wendt 20030408 21:40:22UTC             PGM / RUN BY / DATE
                                                            COMMENT
L2: 1 -> 1; 150 -> 5; 250 -> 9                              COMMENT
L2: 1 -> 1; 150 -> 5; 250 -> 9                              COMMENT
L2: 1 -> 1; 150 -> 5; 250 -> 9                              COMMENT
L2: 1 -> 1; 150 -> 5; 250 -> 9                              COMMENT
L2: 1 -> 1; 150 -> 5; 250 -> 9                              COMMENT
L2: 1 -> 1; 150 -> 5; 250 -> 9                              COMMENT
L2: 1 -> 1; 150 -> 5; 250 -> 9                              COMMENT
L2: 1 -> 1; 150 -> 5; 250 -> 9                              COMMENT
L2: 1 -> 1; 150 -> 5; 250 -> 9                              COMMENT
L2: 1 -> 1; 150 -> 5; 250 -> 9                              COMMENT
L2: 1 -> 1; 150 -> 5; 250 -> 9                              COMMENT
L2: 1 -> 1; 150 -> 5; 250 -> 9                              COMMENT
L2: 1 -> 1; 150 -> 5; 250 -> 9                              COMMENT
L2: 1 -> 1; 150 -> 5; 250 -> 9                              COMMENT
Original Marker Name: twr2 Twissel_Rm2_DWR                  COMMENT
Campaign Name: USGS 2003                                    COMMENT
4-Character Station Name: TWR2                              COMMENT
6-Character Antenna Code: DMRCHT                            COMMENT
Vertical Measurement Point: BCR                             COMMENT
Vertical Offset to Rinex Ref. Point: 0.0348                 COMMENT
Radial Measurement Point: ECF                               COMMENT
Radial Offset to Rinex Ref. Point: 0.1897                   COMMENT
Antenna Height from Field Measurement: 1.3100 m             COMMENT
Additional Antenna Identification Info.:                    COMMENT
Turborogue and Ashtech Choke Ring                           COMMENT
Original XYZ: -2601369.6643 -4502470.6400 3682585.5115      COMMENT
New XYZ position is based on association with SCEC monument COMMENT
E1F1C5E7+0031. Position of that monument is believed to be  COMMENT
valid to within 1 m horizontally; vertical accuracy         COMMENT
should be no worse than 3-times this value.                 COMMENT
                                                            COMMENT
Revised Rinex header created by UCSD GPS archive for        COMMENT
GSAC on 11-Jul-2003 (2003:192) 16:16:25 GMT                 COMMENT
For assistance contact dagnew@ucsd.edu                      COMMENT
or anderson@python.ucsd.edu                                 COMMENT
                                                            COMMENT
TWISSEL RM2                                                 MARKER NAME
CHS US GEOLOGICAL SURVEY                                    OBSERVER / AGENCY
LP00108.707 ASHTECH Z-XII3 CD00                             REC # / TYPE / VERS
CR620022602 DORNE-MARGOL. TYPE T                            ANT # / TYPE
 -2601384.6240 -4502436.8153  3682565.9854                  APPROX POSITION XYZ
        1.2614        0.0000        0.0000                  ANTENNA: DELTA H/E/N
     1     1     0                                          WAVELENGTH FACT L1/2
     5    C1    L1    L2    P1    P2                        # / TYPES OF OBSERV
    30                                                      INTERVAL
  2003     3    30     0     1    0.000000                  TIME OF FIRST OBS
  2003     3    30    23    59   30.000000                  TIME OF LAST OBS
                                                            END OF HEADER
 03  3 30  0  1  0.0000000  0  9G16G23G14G26G 3G 6G17G15G18
  24516673.292    -1716361.34049  -1321896.58744  24516673.110    24516688.278
  21109810.777   -17452488.99449 -13578915.46547  21109810.242    21109818.549
  22944513.207    -5462113.20049  -4239087.83845  22944512.755    22944523.758
  23850248.279    -2538200.06049  -1969529.19545  23850248.136    23850260.098
  22361622.744   -14012013.65949 -10889619.75146  22361622.471    22361632.435
  24376595.993    -2122183.99648  -1640088.04244  24376595.905    24376612.154
  21206804.835   -20639732.75049 -16066534.59747  21206804.325    21206814.025
  20320673.391   -19650772.06849 -15302816.20947  20320672.711    20320681.077
  20479222.915   -26502993.79849 -20638579.94047  20479222.509    20479229.293
 03  3 30  0  1 30.0000000  0  9G16G23G14G26G 3G 6G17G15G18
  24529562.868    -1648627.04549  -1269116.86344  24529562.636    24529578.317
  21117062.445   -17414382.09649 -13549221.79847  21117061.842    21117070.081
  22924415.022    -5567728.14649  -4321384.99745  22924414.728    22924425.402
  23869658.263    -2436200.40849  -1890049.05445  23869658.260    23869670.375
  22350186.940   -14072109.27449 -10936447.44146  22350186.697    22350196.484
  24397858.384    -2010452.27749  -1553024.65644  24397858.093    24397874.481
  21213398.131   -20605084.77349 -16039536.20947  21213397.670    21213407.286
  20317659.210   -19666611.88549 -15315158.91447  20317658.547    20317666.922
  20482887.931   -26483733.44849 -20623571.87347  20482887.532    20482894.504
 03  3 30  0  2  0.0000000  0  9G16G23G14G26G 3G 6G17G15G18
  24542480.869    -1580743.12148  -1216220.55544  24542480.854    24542496.628
  21124352.032   -17376074.76549 -13519371.93547  21124351.426    21124359.701
  22904356.155    -5673136.80749  -4403521.41445  22904355.875    22904366.403
  23889123.636    -2333908.56949  -1810341.22245  23889123.574    23889136.010
  22338837.858   -14131749.32249 -10982920.15146  22338837.574    22338847.254
  24419132.317    -1898661.20949  -1465915.03544  24419131.816    24419148.341
  21220046.369   -20570149.25849 -16012313.76247  21220045.808    21220055.307
  20314700.902   -19682158.38549 -15327273.06147  20314700.176    20314708.490
  20486611.228   -26464167.56349 -20608325.73247  20486610.854    20486617.774
 03  3 30  0  2 30.0000000  0  9G16G23G14G26G 3G 6G17G15G18
  24555426.617    -1512712.19048  -1163209.70344  24555426.732    24555442.606
  21131679.616   -17337567.73749 -13489366.47147  21131679.083    21131687.419
  22884337.419    -5778335.39549  -4485494.14945  22884337.043    22884347.557
  23908644.177    -2231326.75049  -1730407.44545  23908644.260    23908656.749
  22327575.923   -14190930.87249 -11029035.58946  22327575.621    22327585.348
  24440417.087    -1786812.40649  -1378760.44244  24440416.560    24440433.210
  21226749.332   -20534925.39949 -15984866.63147  21226748.718    21226758.283
  20311798.584   -19697409.53449 -15339157.06547  20311797.895    20311806.269
  20490392.599   -26444296.91549 -20592842.12447  20490392.157    20490398.902
 03  3 30  0  3  0.0000000  0  9G16G23G14G26G 3G 6G17G15G18
  24568400.074    -1444536.92248  -1110086.36144  24568400.182    24568416.261
  21139045.051   -17298862.56549 -13459206.61547  21139044.464    21139052.851
  22864359.135    -5883321.52149  -4567301.33545  22864358.714    22864369.231
  23928219.283    -2128458.09549  -1650250.13845  23928219.379    23928231.839
  22316401.678   -14249651.78449 -11074792.09346  22316401.357    22316411.052
  24461712.054    -1674908.25848  -1291562.68944  24461711.390    24461728.065
  21233507.180   -20499412.22149 -15957194.04847  21233506.649    21233516.289
  20308952.705   -19712364.25349 -15350810.08847  20308952.025    20308960.486
  20494231.532   -26424122.75549 -20577122.00047  20494231.139    20494237.924
 03  3 30  0  3 30.0000000  0  9G16G23G14G26G 3G 6G17G15G18
  24581400.526    -1376220.85148  -1056853.25244  24581400.449    24581416.488
  21146447.792   -17259961.08549 -13428893.79747  21146447.189    21146455.515
  22844421.751    -5988092.78549  -4648941.11245  22844421.266    22844431.864
  23947848.354    -2025306.05549  -1569872.03245  23947848.559    23947860.940
  22305315.461   -14307910.56849 -11120188.48746  22305315.132    22305324.661
  24483016.688    -1562951.46049  -1204323.91444  24483016.230    24483033.107
  21240320.215   -20463610.09149 -15929296.31347  21240319.662    21240329.216
  20306163.487   -19727021.71049 -15362231.47447  20306162.826    20306171.297
  20498128.077   -26403646.80349 -20561166.72447  20498127.651    20498134.430
 03  3 30  0  4  0.0000000  0  9G16G23G14G26G 3G 6G17G15G18
  24594427.498    -1307766.54948  -1003512.44244  24594427.511    24594443.406
  21153887.588   -17220864.25549 -13398428.74747  21153887.029    21153895.303
  22824525.739    -6092645.88449  -4730410.89045  22824525.270    22824536.034
  23967530.783    -1921872.99049  -1489274.92445  23967531.253    23967543.496
  22294317.426   -14365704.79149 -11165222.89446  22294317.086    22294326.706
  24504331.082    -1450943.88449  -1117045.58744  24504330.635    24504347.559
  21247188.577   -20427517.30949 -15901172.09447  21247187.948    21247197.376
  20303431.211   -19741380.17349 -15373419.87847  20303430.498    20303438.949
  20502081.787   -26382869.88449 -20544976.91947  20502081.374    20502088.187
 03  3 30  0  4 30.0000000  0  9G16G23G14G26G 3G 6G17G15G18
  24607480.046    -1239177.25848   -950066.44144  24607479.617    24607495.435
  21161364.164   -17181574.19149 -13367813.12247  21161363.683    21161371.980
  22804671.699    -6196978.58249  -4811708.92645  22804671.265    22804682.094
  23987266.000    -1818162.74249  -1408461.84045  23987266.641    23987278.897
  22283408.076   -14423032.79849 -11209894.01346  22283407.808    22283417.527
  24525654.908    -1338888.44849  -1029729.97744  24525654.381    24525671.274
  21254111.921   -20391134.51349 -15872821.89047  21254111.335    21254120.782
  20300755.809   -19755439.13549 -15384374.90247  20300755.140    20300763.538
  20506092.472   -26361793.64249 -20528553.87647  20506092.048    20506098.877
 03  3 30  0  5  0.0000000  0  8G16G23G14G26G 3G17G15G18
  24620557.618    -1170454.97848   -896516.89544  24620557.551    24620572.941
  21168877.664   -17142091.32349 -13337047.26847  21168877.131    21168885.348
  22784860.301    -6301087.17949  -4892832.32745  22784859.860    22784870.718
  24007053.665    -1714177.10149  -1327434.17745  24007054.551    24007066.825
  22272588.065   -14479891.95549 -11254199.79746  22272587.828    22272597.583
  21261090.868   -20354459.29549 -15844243.82147  21261090.373    21261099.868
  20298137.918   -19769196.31849 -15395094.77647  20298137.262    20298145.591
  20510160.027   -26340418.33649 -20511897.79747  20510159.582    20510166.408
 03  3 30  0  5 30.0000000  0  8G16G23G14G26G 3G17G15G18
  24633660.190    -1101600.76148   -842864.58144  24633660.272    24633675.853
  21176427.910   -17102415.19149 -13306130.81547  21176427.295    21176435.427
  22765092.425    -6404967.23549  -4973777.64145  22765091.995    22765102.806
  24026893.533    -1609917.26549  -1246192.83645  24026894.497    24026907.036
  22261858.179   -14536278.27949 -11298137.14346  22261857.886    22261867.565
  21268126.291   -20317489.12449 -15815435.92747  21268125.663    21268135.095
  20295578.048   -19782649.00749 -15405577.37847  20295577.354    20295585.649
  20514284.624   -26318743.55049 -20495008.36247  20514284.226    20514291.069
 03  3 30  0  6  0.0000000  0  8G16G23G14G26G 3G17G15G18
  24646786.303    -1032622.72748   -789115.77844  24646785.705    24646802.697
  21184013.514   -17062552.01649 -13275068.61547  21184012.953    21184021.145
  22745367.783    -6508620.60349  -5054546.31145  22745367.300    22745377.977
  24046784.274    -1505390.97449  -1164743.89045  24046785.127    24046798.050
  22251217.691   -14592194.68149 -11341708.31446  22251217.353    22251226.880
  21275216.844   -20280228.89649 -15786402.00547  21275216.134    21275225.436
  20293075.287   -19795800.53649 -15415825.30847  20293074.657    20293082.996
  20518465.064   -26296775.26949 -20477890.22247  20518464.623    20518471.547
 03  3 30  0  6 30.0000000  0  8G16G23G14G26G 3G17G15G18
  24659935.710     -963522.45848   -735271.70344  24659935.492    24659952.180
  21191634.649   -17022502.33949 -13243861.07547  21191634.117    21191642.443
  22725686.903    -6612043.62849  -5135135.48145  22725686.375    22725697.017
  24066725.303    -1400600.33849  -1083088.95645  24066726.063    24066739.398
  22240667.134   -14647638.12449 -11384910.94746  22240666.797    22240676.212
  21282362.670   -20242677.08549 -15757140.87946  21282362.008    21282371.277
  20290630.426   -19808648.62649 -15425836.79647  20290629.789    20290638.156
  20522701.187   -26274513.86349 -20460543.67547  20522700.770    20522707.711
 03  3 30  0  7  0.0000000  0  8G16G23G14G26G 3G17G15G18
  24673107.691     -894302.99548   -681334.68644  24673108.042    24673125.065
  21199291.065   -16982267.51649 -13212509.28147  21199290.527    21199298.932
  22706050.316    -6715233.49349  -5215542.96845  22706049.760    22706060.525
  24086716.292    -1295548.14249  -1001230.20845  24086716.654    24086730.414
  22230206.926   -14702606.87049 -11427743.68946  22230206.608    22230215.954
  21289564.230   -20204832.47349 -15727651.59046  21289563.612    21289572.903
  20288243.584   -19821192.02249 -15435610.85647  20288242.942    20288251.274
  20526992.969   -26251960.44549 -20442969.59147  20526992.579    20526999.452
 03  3 30  0  7 30.0000000  0  8G16G23G14G26G 3G17G15G18
  24686301.934     -824966.82748   -627306.69744  24686302.321
  21206982.582   -16941848.57549 -13181014.01247  21206982.022    21206990.360
  22686458.612    -6818186.94349  -5295766.24045  22686458.062    22686468.915
  24106756.711    -1190236.99949   -919169.70145  24106756.778    24106770.912
  22219837.519   -14757098.31549 -11470204.50846  22219837.217    22219846.539
  21296821.873   -20166694.02049 -15697933.34247  21296821.188    21296830.510
  20285914.899   -19833429.23649 -15445146.33747  20285914.224    20285922.563
  20531340.157   -26229115.90149 -20425168.65047  20531339.769    20531346.621
 03  3 30  0  8  0.0000000  0  7G23G14G26G 3G17G15G18
  21214710.564   -16901237.46249 -13149368.99847  21214710.012    21214718.417
  22666914.217    -6920891.96549  -5375795.93545  22666913.763    22666924.600
  24126847.834    -1084660.59349   -836902.49845  24126847.660    24126861.899
  22209561.120   -14811101.17049 -11512284.60046  22209560.841    22209570.037
  21304137.237   -20128252.24549 -15667978.73947  21304136.503    21304145.815
  20283646.448   -19845349.64149 -15454434.95347  20283645.784    20283654.100
  20535744.325   -26205972.02749 -20407134.46947  20535743.900    20535750.743
 03  3 30  0  8 30.0000000  0  7G23G14G26G 3G17G15G18
  21222472.220   -16860449.52049 -13117586.19847  21222471.728    21222480.087
  22647415.022    -7023359.93049  -5455640.90646  22647414.611    22647425.339
  24146986.107     -978835.75249   -754441.70845  24146985.709    24147000.009
  22199375.389   -14864627.75049 -11553993.56646  22199375.072    22199384.287
  21311507.834   -20089519.81049 -15637797.64646  21311507.081    21311516.365
  20281435.898   -19856965.98049 -15463486.63647  20281435.284    20281443.464
  20540202.463   -26182544.11349 -20388878.95247  20540202.044    20540208.919
 03  3 30  0  9  0.0000000  0  7G23G14G26G 3G17G15G18
  21230267.773   -16819484.38449 -13085665.32447  21230267.202    21230275.574
  22627961.910    -7125586.18049  -5535297.53246  22627961.538    22627972.089
  24167171.387     -872763.68949   -671788.26045  24167170.984    24167185.179
  22189280.930   -14917674.31249 -11595328.50146  22189280.591    22189289.919
  21318933.998   -20050494.77449 -15607388.55446  21318933.320    21318942.517
  20279283.885   -19868275.42349 -15472299.18347  20279283.214    20279291.348
  20544714.763   -26158831.55149 -20370401.63247  20544714.410    20544721.247
 03  3 30  0  9 30.0000000  0  7G23G14G26G 3G17G15G18
  21238096.953   -16778341.68949 -13053606.08947  21238096.382    21238104.795
  22608555.669    -7227566.06349  -5614762.18546  22608555.293    22608565.777
  24187403.418     -766445.38949   -588942.90645  24187402.969    24187416.851
  22179278.438   -14970237.15749 -11636286.53546  22179278.106    22179287.581
  21326416.293   -20011174.53749 -15576749.43646  21326415.670    21326424.930
  20277190.770   -19879274.78049 -15480870.10247  20277190.083    20277198.287
  20549281.392   -26134833.91849 -20351702.18347  20549281.009    20549287.843
 03  3 30  0 10  0.0000000  0  7G23G14G26G 3G17G15G18
  21245959.706   -16737022.52449 -13021409.35047  21245959.149    21245967.500
  22589196.860    -7329296.53549  -5694032.49546  22589196.505    22589206.940
  24207681.496     -659883.80649   -505907.97345  24207681.270    24207694.730
  22169368.377   -15022314.19349 -11676866.00346  22169368.086    22169377.719
  21333954.913   -19971558.36349 -15545879.71546  21333954.361    21333963.777
  20275156.927   -19889962.68849 -15489198.33447  20275156.232    20275164.502
  20553902.136   -26110551.86849 -20332781.11047  20553901.740    20553908.591
 03  3 30  0 10 30.0000000  0  8G23G14G26G 9G 3G17G15G18
  21253855.863   -16695528.01049 -12989075.97847  21253855.322    21253863.729
  22569886.130    -7430774.64249  -5773106.16746  22569885.743    22569896.086
  24228005.550     -553081.50549   -422685.50644  24228005.430    24228018.432
                  -1494554.15349  -1159149.26543
  22159551.291   -15073903.10249 -11717065.11246  22159550.992    22159560.686
  21341550.049   -19931645.62849 -15514778.91246  21341549.512    21341559.076
  20273182.573   -19900337.60749 -15497282.67347  20273181.878    20273190.192
  20558576.778   -26085986.52949 -20313639.28647  20558576.394    20558583.208
 03  3 30  0 11  0.0000000  0  8G23G14G26G 9G 3G17G15G18
  21261785.014   -16653859.81849 -12956607.26747  21261784.453    21261793.058
  22550623.860    -7531998.18649  -5851981.47246  22550623.459    22550633.702
  24248374.661     -446041.81349   -339278.05544  24248374.440    24248387.064
                  -1553112.14349  -1204778.79543
  22149827.260   -15125002.69349 -11756882.93846  22149826.984    22149836.680
  21349201.746   -19891435.72349 -15483446.55446  21349201.196    21349210.794
  20271267.877   -19910398.73049 -15505122.49347  20271267.244    20271275.644
  20563304.969   -26061139.77349 -20294278.18347  20563304.580    20563311.378
 03  3 30  0 11 30.0000000  0  8G23G14G26G 9G 3G17G15G18
  21269747.083   -16612018.49849 -12924003.65347  21269746.581    21269755.197
  22531410.756    -7632963.53649  -5930655.59646  22531410.330    22531420.475
  24268788.333     -338766.90649   -255687.29844  24268787.717    24268800.405
                  -1611352.89249  -1250161.01744                  24172760.243
  22140196.894   -15175610.24549 -11796317.35646  22140196.651    22140206.239
  21356910.208   -19850927.44349 -15451881.69846  21356909.669    21356919.209
  20269413.437   -19920143.94749 -15512716.16147  20269412.788    20269421.212
  20568086.649   -26036011.95649 -20274698.07147  20568086.220    20568093.067
 03  3 30  0 12  0.0000000  0  8G23G14G26G 9G 3G17G15G18
  21277742.117   -16570005.15749 -12891265.99947  21277741.526    21277750.011
  22512247.300    -7733667.71349  -6009126.20546  22512246.797    22512256.878
  24289246.110     -231259.34149   -171915.27944  24289245.505    24289257.881
  24161722.691    -1669273.01949  -1295293.43045  24161723.357    24161738.112
  22130660.616   -15225723.67049 -11835366.73046  22130660.393    22130669.839
  21364675.594   -19810119.93549 -15420083.68046  21364675.063    21364684.594
  20267619.458   -19929571.74349 -15520062.47447  20267618.730    20267627.163
  20572921.608   -26010603.82649 -20254899.52647  20572921.223    20572928.138
 03  3 30  0 12 30.0000000  0  8G23G14G26G 9G 3G17G15G18
  21285769.339   -16527821.85749 -12858395.90347  21285768.749    21285777.226
  22493133.893    -7834108.73549  -6087391.77246  22493133.358    22493143.445
  24309747.533     -123522.61449    -87964.60544  24309746.883    24309759.135
  24150763.282    -1726870.15249  -1340174.17345  24150763.754    24150776.541
  22121218.664   -15275341.82549 -11874030.18246  22121218.439    22121227.773
  21372497.966   -19769013.36449 -15388052.61746  21372497.398    21372506.939
  20265885.830   -19938681.77949 -15527161.18947  20265885.150    20265893.570
  20577809.590   -25984917.22749 -20234884.00147  20577809.219    20577816.068
 03  3 30  0 13  0.0000000  0  8G23G14G26G 9G 3G17G15G18
  21293828.599   -16485469.88349 -12825394.38247  21293828.050    21293836.546
  22474071.077    -7934283.82549  -6165450.12846  22474070.565    22474080.516
  24330291.927      -15560.02449     -3837.99344  24330291.589    24330303.458
  24139865.526    -1784141.15849  -1384800.78045  24139865.599    24139878.341
  22111871.215   -15324462.78249 -11912306.21446  22111870.991    22111880.386
  21380377.335   -19727606.84349 -15355787.82846  21380376.773    21380386.430
  20264213.038   -19947472.71549 -15534011.26447  20264212.337    20264220.591
  20582750.271   -25958953.68149 -20214652.67347  20582749.879    20582756.776
 03  3 30  0 13 30.0000000  0  8G23G14G26G 9G 3G17G15G18
  21301919.744   -16442950.76049 -12792262.60947  21301919.208    21301927.661
  22455059.387    -8034190.57249  -6243299.38446  22455058.896    22455068.720
  24350878.913       92625.44749     80462.29144  24350878.837    24350890.361
  24129030.041    -1841082.89849  -1429170.84345  24129029.920    24129042.644
  22102618.496   -15373085.51149 -11950194.03246  22102618.276    22102627.754
  21388313.735   -19685900.15449 -15323289.14446  21388313.239    21388323.019
  20262601.157   -19955943.61549 -15540611.96647  20262600.424    20262608.568
  20587743.360   -25932714.63249 -20194206.66447  20587743.022    20587749.941
 03  3 30  0 14  0.0000000  0  8G23G14G26G 9G 3G17G15G18
  21310042.320   -16400266.79649 -12759002.38847  21310041.735    21310050.157
  22436099.161    -8133827.07349  -6320938.05946  22436098.692    22436108.344
  24371507.875      201030.03649    164933.28945  24371507.815    24371519.480
  24118257.432    -1897693.20649  -1473282.65345  24118257.289    24118269.652
  22093460.966   -15421208.91649 -11987692.76346  22093460.665    22093470.165
  21396307.215   -19643893.89149 -15290557.02446  21396306.785    21396316.582
  20261050.085   -19964093.92749 -15546962.84247  20261049.358    20261057.614
  20592788.598   -25906202.04649 -20173547.50747  20592788.200    20592795.094
 03  3 30  0 14 30.0000000  0  8G23G14G26G 9G 3G17G15G18
  21318195.872   -16357419.37349 -12725614.80347  21318195.300    21318203.738
  22417190.921    -8233190.59049  -6398364.00846  22417190.412    22417199.954
  24392177.845      309650.70449    249572.63445  24392177.996    24392189.631
  24107548.269    -1953969.31349  -1517134.04245  24107548.122    24107560.217
  22084398.778   -15468831.31949 -12024801.08346  22084398.449    22084407.869
  21404357.902   -19601587.29649 -15257590.88946  21404357.492    21404367.260
  20259560.212   -19971922.73049 -15553063.19847  20259559.509    20259567.869
  20597885.542   -25879417.27349 -20152676.25947  20597885.171    20597892.038
 03  3 30  0 15  0.0000000  0  8G23G14G26G 9G 3G17G15G18
  21326380.397   -16314408.89749 -12692100.15547  21326379.884    21326388.361
  22398335.242    -8332277.79549  -6475574.66046  22398334.716    22398344.121
  24412888.464      418485.40949    334378.79845  24412888.749    24412900.586
  24096903.379    -2009907.38449  -1560722.03544  24096903.192    24096915.481
  22075432.289   -15515950.21249 -12061517.05946  22075431.957    22075441.292
  21412466.031   -19558979.37549 -15224389.94746  21412465.559    21412475.292
  20258132.055   -19979428.13949 -15558911.56547  20258131.317    20258139.636
  20603034.229   -25852360.72849 -20131593.24147  20603033.876    20603040.793
 03  3 30  0 15 30.0000000  0  8G23G31G14G 9G 3G17G15G18
  21334595.558   -16271238.35149 -12658460.77947  21334594.997    21334603.473
  23966697.791     -342529.91649   -257149.16245  23966695.292    23966708.478
  22379532.324    -8431087.58149  -6552569.15046  22379531.822    22379541.070
  24086323.235    -2065505.81749  -1604045.36844  24086322.756    24086335.713
  22066561.602   -15562565.48149 -12097840.61446  22066561.328    22066570.598
  21420631.240   -19516071.04049 -15190954.92146  21420630.706    21420640.512
  20256765.400   -19986610.43949 -15564508.15647  20256764.624    20256772.879
  20608234.120   -25825035.36349 -20110300.75847  20608233.737    20608240.643
 03  3 30  0 16  0.0000000  0  8G23G31G14G 9G 3G17G15G18
  21342840.793   -16227909.20849 -12624697.81647  21342840.259    21342848.738
  23950243.280     -428993.58349   -324523.33545  23950242.232    23950254.619
  22360782.511    -8529617.38249  -6629345.46646  22360782.033    22360791.278
  24075807.965    -2120761.81849  -1647101.86744  24075807.616    24075821.102
  22057787.108   -15608675.58649 -12133770.52446  22057786.842    22057796.056
  21428853.518   -19472861.96949 -15157285.53646  21428853.054    21428862.993
  20255460.292   -19993468.56949 -15569852.13647  20255459.507    20255467.804
  20613484.858   -25797442.56749 -20088799.88347  20613484.442    20613491.335
 03  3 30  0 16 30.0000000  0  8G23G31G14G 9G 3G17G15G18
  21351116.601   -16184419.92449 -12590810.08047  21351116.030    21351124.538
  23933853.858     -515117.72949   -391632.95045  23933853.148    23933865.411
  22342086.968    -8627861.67349  -6705899.31746  22342086.575    22342095.890
  24065359.120    -2175669.24249  -1689886.76844  24065358.939    24065372.923
  22049109.659   -15654276.18449 -12169303.41946  22049109.299    22049118.500
  21437133.782   -19429348.23649 -15123378.77146  21437133.401    21437143.424
  20254217.580   -19999998.59149 -15574940.45647  20254216.868    20254225.212
  20618786.711   -25769580.81349 -20067089.42747  20618786.351    20618793.255
 03  3 30  0 17  0.0000000  0  8G23G31G14G 9G 3G17G15G18
  21359422.385   -16140772.87349 -12556799.40747  21359421.810    21359430.292
  23917529.927     -600900.70249   -458476.72745  23917529.089    23917541.688
  22323446.071    -8725818.85149  -6782229.44946  22323445.750    22323455.064
  24054977.239    -2230226.25249  -1732398.60744  24054976.786    24054991.134
  22040529.177   -15699366.55149 -12204438.74046  22040528.820    22040538.093
  21445472.121   -19385530.72249 -15089235.29546  21445471.689    21445481.654
  20253037.539   -20006200.16249 -15579772.84147  20253036.814    20253045.103
  20624139.436   -25741452.26449 -20045171.08347  20624139.036    20624145.969
 03  3 30  0 17 30.0000000  0  8G23G31G14G 9G 3G17G15G18
  21367757.823   -16096969.56649 -12522666.97447  21367757.279    21367765.639
  23901271.567     -686340.23549   -525052.86645  23901270.883    23901282.929
  22304860.319    -8823486.78149  -6858334.19346  22304860.007    22304869.303
  24044662.991    -2284429.89649  -1774635.12744  24044662.426    24044676.134
  22032045.929   -15743945.68249 -12239175.69646  22032045.633    22032055.003
  21453868.293   -19341409.65749 -15054855.29346  21453867.766    21453877.635
  20251920.037   -20012072.78249 -15584348.90147  20251919.268    20251927.531
  20629542.587   -25713058.33949 -20023045.94147  20629542.215    20629549.243
 03  3 30  0 18  0.0000000  0  8G23G31G14G 9G 3G17G15G18
  21376122.657   -16053012.25049 -12488414.53847  21376122.098    21376130.498
  23885078.865     -771434.63949   -591360.10045  23885078.164    23885089.389
  22286330.056    -8920863.45949  -6934211.98646  22286329.665    22286338.906
  24034416.280    -2338278.27749  -1816594.81044  24034415.769    24034428.808
  22023660.251   -15788012.73949 -12273513.62446  22023659.967    22023669.284
  21462322.078   -19296985.25949 -15020238.91946  21462321.504    21462331.345
  20250865.092   -20017616.04149 -15588668.31147  20250864.339    20250872.605
  20634995.989   -25684401.13749 -20000715.66747  20634995.570    20635002.491
 03  3 30  0 18 30.0000000  0  8G23G31G14G 9G 3G17G15G18
  21384516.857   -16008901.43549 -12454042.50247  21384516.247    21384524.546
  23868952.257     -856180.38049   -657395.61145  23868951.679    23868962.289
  22267855.917    -9017945.41349  -7009860.12346  22267855.475    22267864.682
  24024237.526    -2391767.35349  -1858274.50844  24024237.167    24024249.618
  22015372.509   -15831565.34549 -12307450.68746  22015372.245    22015381.478
  21470833.703   -19252255.87549 -14985384.88746  21470833.152    21470843.057
  20249873.295   -20022827.78849 -15592729.41047  20249872.555    20249880.762
  20640499.242   -25655480.98349 -19978180.48747  20640498.840    20640505.704
 03  3 30  0 19  0.0000000  0  8G23G31G14G 9G 3G17G15G18
  21392939.870   -15964637.63449 -12419551.24747  21392939.267    21392947.632
  23852892.392     -940574.20649   -723156.94645  23852891.817    23852902.546
  22249438.432    -9114729.47149  -7085276.13846  22249437.995    22249447.160
  24014127.471    -2444893.56048  -1899671.44844  24014127.227    24014139.461
  22007183.061   -15874601.33649 -12340985.19246  22007182.774    22007191.894
  21479403.577   -19207220.68049 -14950292.57346  21479403.059    21479413.000
  20248945.044   -20027706.17549 -15596530.75047  20248944.297    20248952.458
  20646052.448   -25626298.76849 -19955441.10647  20646052.066    20646058.890
 03  3 30  0 19 30.0000000  0  8G23G31G14G 9G 3G17G15G18
  21401391.735   -15920222.59849 -12384942.14247  21401391.225    21401399.619
  23836900.208    -1024613.89649   -788642.33645  23836899.598    23836910.532
  22231078.111    -9211213.22849  -7160458.15646  22231077.665    22231086.836
  24004087.124    -2497654.42149  -1940783.69344  24004087.087    24004099.322
  21999091.963   -15917119.57449 -12374116.25746  21999091.696    21999100.839
  21488031.824   -19161879.14349 -14914961.55046  21488031.246    21488041.211
  20248080.306   -20032250.54449 -15600071.81247  20248079.516    20248087.749
  20651655.182   -25596856.16249 -19932498.81547  20651654.797    20651661.658
 03  3 30  0 20  0.0000000  0  8G23G31G14G 9G 3G17G15G18
  21409872.214   -15875658.17649 -12350216.64847  21409871.604    21409879.974
  23820975.846    -1108297.50749   -853850.26045  23820975.251    23820986.436
  22212775.219    -9307394.85449  -7235404.74946  22212774.846    22212783.951
  23994117.351    -2550047.38249  -1981609.26345  23994117.218    23994129.354
  21991099.709   -15959118.82149 -12406842.91546  21991099.449    21991108.655
  21496718.229   -19116231.83649 -14879392.26246  21496717.642    21496727.664
  20247279.081   -20036460.38649 -15603352.20047  20247278.331    20247286.724
  20657307.139   -25567154.90949 -19909354.99647  20657306.784    20657313.595
 03  3 30  0 20 30.0000000  0  8G23G31G14G 9G 3G17G15G18
  21418380.445   -15830947.02949 -12315376.82047  21418379.844    21418388.186
  23805119.418    -1191623.91149   -918779.83645  23805118.859    23805129.969
  22194530.065    -9403273.10449  -7310114.94946  22194529.707    22194538.833
  23984217.804    -2602070.92449  -2022146.96545  23984217.512    23984229.794
  21983206.195   -16000599.30949 -12439165.34646  21983205.943    21983215.170
  21505462.510   -19070279.68649 -14843585.42846  21505462.038    21505472.117
  20246541.502   -20040335.83649 -15606372.03147  20246540.811    20246549.280
  20663007.845   -25537197.61649 -19886011.65847  20663007.458    20663014.274
 03  3 30  0 21  0.0000000  0  8G23G31G14G 9G 3G17G15G18
  21426916.575   -15786089.28749 -12280422.76647  21426915.985    21426924.396
  23789331.463    -1274589.24149   -983428.03745  23789330.929    23789342.061
  22176343.406    -9498844.26949  -7384585.86546  22176343.017    22176352.141
  23974389.154    -2653720.85549  -2062393.55445  23974388.716    23974401.281
  21975411.980   -16041558.23249 -12471081.36146  21975411.749    21975420.933
  21514265.071   -19024021.21349 -14807539.90246  21514264.744    21514274.795
  20245868.184   -20043874.51849 -15609129.44847  20245867.487    20245875.875
  20668757.389   -25506984.14849 -19862468.72447  20668756.957    20668763.738
 03  3 30  0 21 30.0000000  0  8G23G31G14G 9G 3G17G15G18
  21435480.511   -15741085.86349 -12245355.18547  21435479.906    21435488.269
  23773612.715    -1357190.66849  -1047792.68745  23773612.202    23773623.168
  22158215.749    -9594105.30449  -7458815.12346  22158215.347    22158224.385
  23964631.873    -2704994.13549  -2102346.63645  23964631.542    23964644.217
  21967717.399   -16081993.83249 -12502589.59546  21967717.116    21967726.215
  21523126.270   -18977455.29549 -14771254.80646  21523125.950    21523135.943
  20245259.239   -20047075.06749 -15611623.38447  20245258.479    20245266.842
  20674555.279   -25476515.52949 -19838726.95147  20674554.873    20674561.783
 03  3 30  0 22  0.0000000  0  8G23G31G14G 9G 3G17G15G18
  21444071.851   -15695938.16649 -12210175.18747  21444071.278    21444079.671
  23757963.482    -1439425.88149  -1111871.96045  23757962.955    23757974.149
  22140147.627    -9689053.92249  -7532800.94046  22140147.155    22140156.134
  23954946.844    -2755887.98849  -2142004.04245  23954946.835    23954959.400
  21960122.531   -16121905.05649 -12533689.21646  21960122.214    21960131.295
  21532046.113   -18930581.95549 -14734730.18046  21532045.745    21532055.677
  20244714.604   -20049936.58149 -15613853.13247  20244713.877    20244722.334
  20680401.556   -25445793.29149 -19814787.57147  20680401.166    20680408.004
 03  3 30  0 22 30.0000000  0  8G23G31G14G 9G 3G17G15G18
  21452690.230   -15650648.19249 -12174884.32547  21452689.682    21452698.083
  23742384.343    -1521292.80149  -1175664.27245  23742383.840    23742395.259
  22122139.122    -9783688.24249  -7606541.85846  22122138.723    22122147.626
  23945334.653    -2806399.93749  -2181363.89245  23945334.580    23945347.175
  21952627.558   -16161291.21949 -12564379.71046  21952627.193    21952636.339
  21541024.415   -18883401.31649 -14697966.09346  21541023.999    21541033.921
  20244234.510   -20052458.58649 -15615818.33347  20244233.879    20244242.365
  20686295.823   -25414819.21049 -19790651.94647  20686295.356    20686302.168
 03  3 30  0 23  0.0000000  0  8G23G31G14G 9G 3G17G15G18
  21461335.782   -15605216.46749 -12139483.02447  21461335.137    21461343.376
  23726876.076    -1602788.57949  -1239167.38145  23726875.605    23726887.292
  22104191.094    -9878005.26549  -7680035.53346  22104190.677    22104199.589
  23935795.543    -2856526.77849  -2220423.66745  23935795.435    23935808.448
  21945232.813   -16200150.39849 -12594659.57546  21945232.492    21945241.729
  21550061.314   -18835912.65449 -14660961.98646  21550060.863    21550070.768
  20243819.581   -20054639.37949 -15617517.66347  20243818.926    20243827.283
  20692237.806   -25383593.92849 -19766320.58247  20692237.372    20692244.162
 03  3 30  0 23 30.0000000  0  8G23G31G14G 9G 3G17G15G18
  21470007.564   -15559645.03349 -12103972.84347  21470007.003    21470015.356
  23711439.408    -1683911.24349  -1302379.75045  23711438.852    23711449.997
  22086303.928    -9972002.80349  -7753280.24946  22086303.470    22086312.332
  23926329.955    -2906266.24849  -2259181.55745  23926329.967    23926343.296
  21937938.584   -16238481.50949 -12624527.94546  21937938.311    21937947.619
  21559156.831   -18788115.99949 -14623717.88746  21559156.337    21559166.186
  20243469.743   -20056478.41149 -15618950.68847  20243469.048    20243477.255
  20698227.103   -25352119.55349 -19741795.11347  20698226.686    20698233.523
 03  3 30  0 24  0.0000000  0  8G23G31G14G 9G 3G17G15G18
  21478705.818   -15513935.56049 -12068355.10547  21478705.282    21478713.727
  23696074.035    -1764658.79749  -1365299.81845  23696073.399    23696084.125
  22068477.950   -10065679.03049  -7826274.60446  22068477.451    22068486.229
  23916938.889    -2955615.78449  -2297635.61845  23916938.808    23916952.193
  21930745.042   -16276283.97649 -12653984.39746  21930744.781    21930754.117
  21568311.023   -18740011.60149 -14586233.98546  21568310.409    21568320.217
  20243184.946   -20057975.23049 -15620117.05547  20243184.255    20243192.442
  20704263.628   -25320397.80249 -19717076.89747  20704263.237    20704270.014
 03  3 30  0 24 30.0000000  0  8G23G31G14G 9G 3G17G15G18
  21487430.216   -15468088.74449 -12032630.34447  21487429.622    21487438.168
  23680780.035    -1845028.14249  -1427925.22145  23680779.469    23680790.462
  22050713.547   -10159031.02249  -7899016.31446  22050713.059    22050721.792
  23907622.816    -3004572.24249  -2335783.40245  23907622.438    23907636.054
  21923652.341   -16313556.05949 -12683027.56246  21923652.072    21923661.413
  21577523.860   -18691598.39349 -14548509.46046  21577523.172    21577532.992
  20242965.569   -20059128.14149 -15621015.44247  20242964.887    20242973.069
  20710347.092   -25288429.37249 -19692166.45447  20710346.626    20710353.408
 03  3 30  0 25  0.0000000  0  8G23G31G14G 9G 3G17G15G18
  21496180.653   -15422105.49349 -11996799.28147  21496180.074    21496188.424
  23665558.209    -1925016.44349  -1490253.71745  23665557.686    23665569.244
  22033011.338   -10252055.73549  -7971502.98946  22033010.894    22033019.610
  23898382.349    -3053132.33949  -2373622.34245  23898381.665    23898395.447
  21916660.853   -16350296.19849 -12711656.21946  21916660.611    21916669.962
  21586795.485   -18642875.76549 -14510543.83246  21586794.813    21586804.624
  20242811.841   -20059935.70949 -15621644.72747  20242811.193    20242819.373
  20716477.081   -25256215.35249 -19667064.64247  20716476.721    20716483.562
 03  3 30  0 25 30.0000000  0  8G23G31G14G 9G 3G17G15G18
  21504956.767   -15375987.42349 -11960863.15747  21504956.099    21504964.277
  23650409.797    -2004621.52749  -1552283.58745  23650409.312    23650420.630
  22015371.889   -10344750.83549  -8043732.82446  22015371.466    22015380.210
  23889217.759    -3101293.58449  -2411150.47145  23889217.138    23889230.616
  21909770.816   -16386503.25749 -12739869.49846  21909770.581    21909779.888
  21596125.989   -18593843.71449 -14472337.09646  21596125.413    21596135.123
  20242724.067   -20060397.04749 -15622004.22347  20242723.394    20242731.590
  20722653.806   -25223756.92349 -19641772.38347  20722653.415    20722660.298
 03  3 30  0 26  0.0000000  0  8G23G31G14G 9G 3G17G15G18
  21513757.910   -15329736.29149 -11924823.34047  21513757.336    21513765.634
  23635334.998    -2083841.59649  -1614013.43245  23635334.488    23635345.317
  21997795.591   -10437114.62949  -8115704.49746  21997795.143    21997803.910
  23880129.431    -3149053.87349  -2448366.17545  23880128.821    23880142.092
  21902982.532   -16422176.45149 -12767666.77446  21902982.251    21902991.454
  21605515.500   -18544502.63349 -14433889.54946  21605514.883    21605524.482
  20242702.221   -20060511.58249 -15622093.48947  20242701.549    20242709.852
  20728876.660   -25191056.07649 -19616291.22247  20728876.228    20728883.087
 03  3 30  0 26 30.0000000  0  8G23G31G14G 9G 3G17G15G18
  21522584.407   -15283353.52549 -11888680.96647  21522583.795    21522592.104
  23620333.708    -2162674.32149  -1675441.42545  23620333.243    23620343.766
  21980282.745   -10529144.78649  -8187416.19346  21980282.327    21980291.099
  23871117.726    -3196410.45849  -2485267.30945  23871117.129    23871130.180
  21896295.974   -16457315.05449 -12795047.48746  21896295.670    21896304.742
  21614963.855   -18494852.03049 -14395200.82446  21614963.192    21614972.746
  20242746.512   -20060278.63449 -15621911.97847  20242745.898    20242754.254
  20735145.234   -25158114.12949 -19590622.19147  20735144.818    20735151.661
 03  3 30  0 27  0.0000000  0  8G23G31G14G 9G 3G17G15G18
  21531435.965   -15236838.93049 -11852435.86247  21531435.268    21531443.565
  23605406.679    -2241115.79949  -1736564.56945  23605406.218    23605416.841
  21962834.084   -10620837.46749  -8258864.91746  21962833.737    21962842.511
  23862183.501    -3243359.12049  -2521850.58545  23862183.115    23862195.842
  21889711.542   -16491916.39149 -12822009.55246  21889711.288    21889720.362
  21624471.194   -18444890.71849 -14356269.98146  21624470.560    21624480.154
  20242857.605   -20059695.51949 -15621457.60947  20242856.922    20242865.267
  20741459.696   -25124930.96449 -19564765.19747  20741459.366    20741466.252
 03  3 30  0 27 30.0000000  0  8G23G31G14G 9G 3G17G15G18
  21540312.219   -15190193.14049 -11816088.51947  21540311.573    21540319.974
  23590554.510    -2319163.00149  -1797380.50845  23590553.900    23590564.920
  21945450.256   -10712189.72249  -8330048.38546  21945449.911    21945458.677
  23853327.046    -3289896.65649  -2558113.50445  23853327.006    23853339.639
  21883229.696   -16525978.52449 -12848551.46546  21883229.436    21883238.538
  21634037.775   -18394617.19449 -14317095.86346  21634037.218    21634046.930
  20243035.590   -20058760.69249 -15620729.18947  20243034.879    20243043.145
  20747820.203   -25091507.19149 -19538720.72647  20747819.783    20747826.623
 03  3 30  0 28  0.0000000  0  8G23G31G14G 9G 3G17G15G18
  21549213.275   -15143417.59749 -11779640.08347  21549212.680    21549221.048
  23575777.962    -2396813.81549  -1857887.56145  23575777.379    23575788.382
  21928131.779   -10803199.13349  -8400964.70446  21928131.381    21928140.114
  23844549.342    -3336020.49949  -2594054.04945  23844549.562    23844562.040
  21876850.543   -16559500.86549 -12874672.75646  21876850.302    21876859.415
  21643663.846   -18344031.58349 -14277678.55946  21643663.334    21643673.108
  20243280.587   -20057473.46549 -15619726.16547  20243279.849    20243288.047
  20754226.068   -25057844.41749 -19512490.01747  20754225.638    20754232.398
 03  3 30  0 28 30.0000000  0  8G23G31G14G 9G 3G17G15G18
  21558138.598   -15096515.20049 -11743092.79847  21558138.001    21558146.387
  23561077.034    -2474067.46949  -1918085.13445  23561076.457    23561087.551
  21910878.618   -10893865.02149  -8471613.34846  21910878.225    21910886.906
  23835851.074    -3381729.43849  -2629671.32345  23835851.194    23835863.585
  21870574.070   -16592483.91149 -12900373.81946  21870573.787    21870582.914
  21653349.090   -18293135.36849 -14238019.23046  21653348.589    21653358.282
  20243592.394   -20055834.52649 -15618449.08347  20243591.713    20243599.900
  20760676.753   -25023945.46449 -19486075.27347  20760676.353    20760683.142
 03  3 30  0 29  0.0000000  0  8G23G31G14G 9G 3G17G15G18
  21567087.656   -15049487.25849 -11706447.68347  21567087.066    21567095.612
  23546451.937    -2550921.62249  -1977971.40945  23546451.422    23546462.383
  21893691.190   -10984185.29549  -8541992.68046  21893690.803    21893699.438
  23827232.487    -3427021.24749  -2664963.54545  23827232.470    23827244.639
  21864400.427   -16624926.55649 -12925653.78646  21864400.151    21864409.212
  21663093.594   -18241928.47849 -14198117.81146  21663093.003    21663102.589
  20243971.312   -20053842.90749 -15616897.18047  20243970.651    20243978.905
  20767172.159   -24989811.79349 -19459477.62947  20767171.796    20767178.690
 03  3 30  0 29 30.0000000  0  8G23G31G14G 9G 3G17G15G18
  21576060.471   -15002334.69549 -11669705.45647  21576059.855    21576068.471
  23531903.651    -2627373.78049  -2037544.41145  23531903.102    23531913.798
  21876570.012   -11074157.23149  -8612100.57546  21876569.656    21876578.280
  23818693.861    -3471892.73749  -2699928.26745  23818693.761    23818705.659
  21858329.904   -16656827.52249 -12950511.67147  21858329.613    21858338.622
  21672897.222   -18190410.63249 -14157974.09746  21672896.596    21672906.129
  20244417.644   -20051497.26949 -15615069.42247  20244417.002    20244425.271
  20773712.163   -24955444.15549 -19432697.68047  20773711.758    20773718.648
 03  3 30  0 30  0.0000000  0  8G23G31G14G 9G 3G17G15G18
  21585056.752   -14955059.17649 -11632867.42847  21585056.126    21585064.725
  23517432.480    -2703421.81149  -2096802.52745  23517431.860    23517442.338
  21859515.599   -11163778.73749  -8681935.41246  21859515.242    21859523.776
  23810235.861    -3516341.52349  -2734563.62545  23810235.596    23810247.454
  21852362.510   -16688186.13949 -12974946.94747  21852362.304    21852371.357
  21682760.019   -18138581.31749 -14117587.67846  21682759.398    21682769.021
  20244931.563   -20048796.97649 -15612965.30747  20244930.886    20244939.084
  20780296.206   -24920844.61849 -19405737.02247  20780295.821    20780302.744
 03  3 30  0 30 30.0000000  0  8G23G31G14G 9G 3G17G15G18
  21594076.413   -14907661.43049 -11595934.15847  21594075.742    21594084.253
  23503038.318    -2779062.88749  -2155743.55145  23503037.646    23503048.486
  21842528.416   -11253047.07949  -8751495.06146  21842528.002    21842536.423
  23801858.689    -3560364.81849  -2768867.42445  23801858.386    23801870.149
  21846498.612   -16719001.00849 -12998958.52447  21846498.374    21846507.558
  21692682.243   -18086440.16549 -14076958.27046  21692681.619    21692691.355
  20245513.268   -20045740.64349 -15610583.75947  20245512.533    20245520.667
  20786924.147   -24886013.82749 -19378596.15747  20786923.812    20786930.821
 03  3 30  0 31  0.0000000  0  8G23G31G14G 9G 3G17G15G18
  21603119.007   -14860141.54749 -11558905.70347  21603118.432    21603127.055
  23488722.058    -2854293.68849  -2214364.86845  23488721.457    23488732.572
  21825609.099   -11341958.82749  -8820776.85146  21825608.636    21825616.961
  23793563.098    -3603958.97549  -2802836.82345  23793562.749    23793574.715
  21840738.570   -16749270.08649 -13022544.81547  21840738.331    21840747.567
  21702663.989   -18033986.22649 -14036085.13146  21702663.339    21702673.230
  20246163.031   -20042326.15949 -15607923.13247  20246162.323    20246170.401
  20793596.345   -24850951.80349 -19351275.12447  20793595.963    20793602.914
 03  3 30  0 31 30.0000000  0  8G23G31G14G 9G 3G17G15G18
  21612184.684   -14812501.08849 -11521783.29047  21612184.126    21612192.732
  23474484.514    -2929112.19449  -2272664.90645  23474483.983    23474494.772
  21808757.891   -11430511.95149  -8889779.18946  21808757.412    21808765.710
  23785349.436    -3647121.42349  -2836469.81345  23785349.076    23785361.359
  21835082.529   -16778992.80449 -13045705.36347  21835082.257    21835091.468
  21712705.269   -17981219.34349 -13994968.13546  21712704.617    21712714.633
  20246881.069   -20038552.88749 -15604982.92747  20246880.346    20246888.454
  20800312.134   -24815660.37849 -19323775.33147  20800311.734    20800318.739
 03  3 30  0 32  0.0000000  0  8G23G31G14G 9G 3G17G15G18
  21621273.095   -14764741.27149 -11484567.88547  21621272.515    21621281.100
  23460325.998    -3003516.27749  -2330642.01345  23460325.405    23460336.051
  21791975.260   -11518704.21449  -8958500.33846  21791974.830    21791983.143
  23777218.327    -3689849.81049  -2869764.58345  23777218.044    23777230.426
  21829530.626   -16808168.19649 -13068439.41246  21829530.371    21829539.532
  21722805.978   -17928139.47549 -13953607.25246  21722805.414    21722815.517
  20247667.487   -20034420.11249 -15601762.58947  20247666.762    20247674.950
  20807071.227   -24780140.94149 -19296097.86547  20807070.865    20807077.846
 03  3 30  0 32 30.0000000  0  8G23G31G14G 9G 3G17G15G18
  21630384.001   -14716863.68349 -11447260.71747  21630383.427    21630391.952
  23446246.612    -3077503.96349  -2388294.67445  23446246.002    23446256.840
  21775261.754   -11606533.72549  -9026938.84246  21775261.301    21775269.646
  23769170.223    -3732142.21449  -2902719.65145  23769169.967    23769182.220
  21824082.951   -16836795.82149 -13090746.63546  21824082.672    21824091.831
  21732966.216   -17874746.67449 -13912002.53046  21732965.751    21732975.901
  20248522.433   -20029927.24449 -15598261.65847  20248521.730    20248529.952
  20813873.528   -24744394.94349 -19268243.86247  20813873.145    20813880.077
 03  3 30  0 33  0.0000000  0  8G23G31G14G 9G 3G17G15G18
  21639517.042   -14668869.07749 -11409862.35547  21639516.475    21639525.061
  23432246.884    -3151072.58249  -2445620.78645  23432246.214    23432257.136
  21758617.797   -11693997.94949  -9095092.69046  21758617.283    21758625.685
  23761205.729    -3773995.35149  -2935332.41145  23761205.281    23761217.739
  21818739.794   -16864874.17149 -13112625.85746  21818739.501    21818748.625
  21743186.172   -17821041.00649 -13870154.00746  21743185.685    21743195.812
  20249446.234   -20025072.78549 -15594478.97047  20249445.541    20249453.739
  20820718.762   -24708423.32949 -19240214.05647  20820718.377    20820725.326
 03  3 30  0 33 30.0000000  0  8G23G31G14G 9G 3G17G15G18
  21648671.998   -14620758.68049 -11372373.76047  21648671.537    21648680.147
  23418327.527    -3224219.77949  -2502618.48745  23418326.880    23418337.303
  21742043.756   -11781094.52249  -9162960.06246  21742043.237    21742051.690
  23753325.275    -3815406.67649  -2967600.89645  23753324.756    23753337.544
  21813501.196   -16892402.67749 -13134076.62646  21813500.987    21813510.058
  21753465.795   -17767021.99549 -13828061.33646  21753465.239    21753475.281
  20250439.056   -20019855.63449 -15590413.66547  20250438.343    20250446.487
  20827606.654   -24672227.20749 -19212009.30847  20827606.238    20827613.313
 03  3 30  0 34  0.0000000  0  8G23G31G14G 9G 3G17G15G18
  21657849.019   -14572533.90549 -11334796.06047  21657848.483    21657857.101
  23404488.777    -3296943.56949  -2559286.26145  23404488.070    23404498.340
  21725540.145   -11867821.13749  -9230539.15146  21725539.642    21725548.148
  23745529.165    -3856374.14049  -2999523.51745  23745528.713    23745541.654
  21808367.475   -16919380.52449 -13155098.31046  21808367.242    21808376.326
  21763805.125   -17712689.12049 -13785724.09746  21763804.522    21763814.498
  20251501.026   -20014275.06049 -15586065.17447  20251500.288    20251508.433
  20834536.955   -24635808.13349 -19183630.83747  20834536.560    20834543.637
 03  3 30  0 34 30.0000000  0  8G23G31G14G 9G 3G17G15G18
  21667047.603   -14524195.57849 -11297129.86147  21667047.015    21667055.607
  23390730.730    -3369241.27849  -2615622.07045  23390729.986    23390740.629
  21709107.359   -11954175.39849  -9297828.09846  21709106.868    21709115.428
  23737818.094    -3896894.80849  -3031097.99645  23737817.621    23737830.625
  21803338.809   -16945806.51549 -13175689.97946  21803338.523    21803347.652
  21774204.115   -17658042.44549 -13743142.33546  21774203.462    21774213.408
  20252632.347   -20008330.04649 -15581432.70647  20252631.595    20252639.780
  20841509.533   -24599167.06949 -19155079.38747  20841509.123    20841516.248
 03  3 30  0 35  0.0000000  0  8G23G31G14G 9G 3G17G15G18
  21676267.550   -14475744.32949 -11259375.68147  21676266.992    21676275.638
  23377054.204    -3441110.30549  -2671623.84545  23377053.543    23377064.354
  21692745.946   -12040154.63549  -9364824.82046  21692745.485    21692754.099
  23730192.765    -3936965.60049  -3062321.89145  23730192.290    23730205.071
  21798415.172   -16971679.61649 -13195850.83146  21798414.951    21798424.165
  21784662.816   -17603081.63849 -13700315.78846  21784662.202    21784672.048
  20253833.262   -20002019.22049 -15576515.19047  20253832.524    20253840.733
  20848524.176   -24562304.85549 -19126355.61547  20848523.767    20848530.850
 03  3 30  0 35 30.0000000  0  8G23G31G14G 9G 3G17G15G18
  21685508.624   -14427182.37649 -11221535.23647  21685508.035    21685516.831
  23363459.891    -3512549.40949  -2727290.56745  23363459.204    23363469.691
  21676456.227   -12125757.52349  -9431528.28446  21676455.782    21676464.387
  23722653.480    -3976585.18449  -3093194.21245  23722652.899    23722665.439
  21793596.939   -16996999.88749 -13215580.90846  21793596.677    21793605.852
  21795181.221   -17547807.13749 -13657244.81246  21795180.590    21795190.434
  20255103.705   -19995342.77749 -15571312.77447  20255102.964    20255111.170
  20855580.593   -24525223.42449 -19097461.01047  20855580.192    20855587.205
 03  3 30  0 36  0.0000000  0  8G23G31G14G 9G 3G17G15G18
  21694770.306   -14378511.44149 -11183609.86147  21694769.773    21694778.652
  23349947.561    -3583556.83649  -2782620.94345  23349946.859    23349957.303
  21660238.472   -12210982.45449  -9497937.23446  21660237.999    21660246.564
  23715200.658    -4015751.62749  -3123713.43745  23715199.829    23715212.047
  21788883.941   -17021767.17549 -13234880.08246  21788883.680    21788892.734
  21805759.249   -17492219.28549 -13613929.66546  21805758.597    21805768.551
  20256443.842   -19988300.11049 -15565824.99147  20256443.136    20256451.268
  20862678.304   -24487924.78949 -19068397.16947  20862677.909    20862684.944
 03  3 30  0 36 30.0000000  0  8G23G31G14G 9G 3G17G15G18
  21704052.921   -14329731.92049 -11145599.87947  21704052.337    21704061.034
  23336517.733    -3654129.72949  -2837612.76045  23336517.116    23336527.815
  21644093.135   -12295826.40949  -9564049.32046  21644092.647    21644101.205
  23707834.880    -4054461.79849  -3153877.12045  23707833.867    23707845.431
  21784276.396   -17045980.29449 -13253747.43246  21784276.149    21784285.112
  21816396.952   -17436317.31349 -13570369.74646  21816396.233    21816406.421
  20257854.091   -19980889.56449 -15560050.55047  20257853.410    20257861.446
  20869817.183   -24450409.47149 -19039164.48547  20869816.787    20869823.849
 03  3 30  0 37  0.0000000  0  8G23G31G14G 9G 3G17G15G18
  21713355.943   -14280844.62149 -11107505.90647  21713355.297    21713364.016
  23323171.318    -3724265.56849  -2892263.99145  23323170.715    23323181.508
  21628020.687   -12380286.97449  -9629862.66246  21628020.233    21628028.754
  23700556.459    -4092713.06549  -3183683.21645  23700555.317    23700566.250
  21779774.505   -17069637.79249 -13272181.84246  21779774.216    21779783.224
  21827094.451   -17380101.33549 -13526565.15946  21827093.738    21827104.092
  20259334.579   -19973110.07749 -15553988.62547  20259333.895    20259341.889
  20876997.249   -24412678.30449 -19009763.60847  20876996.876    20877003.886
 03  3 30  0 37 30.0000000  0  8G23G31G14G 9G 3G17G15G18
  21722679.021   -14231851.09949 -11069329.15947  21722678.462    21722687.208
  23309908.322    -3793962.53149  -2946573.24345  23309907.807    23309918.521
  21612021.532   -12464362.35549  -9695375.86446  21612021.129    21612029.635
  23693365.569    -4130503.48249  -3213130.19345  23693364.285    23693374.866
  21775378.310   -17092739.47049 -13290183.15146  21775378.050    21775387.178
  21837851.717   -17323571.25049 -13482515.80146  21837851.030    21837861.479
  20260885.202   -19964961.23549 -15547638.88447  20260884.502    20260892.608
  20884218.116   -24374732.71249 -18980195.64447  20884217.717    20884224.730
 03  3 30  0 38  0.0000000  0  8G23G31G14G 9G 3G17G15G18
  21732022.387   -14182751.44549 -11031069.73147  21732021.854    21732030.542
  23296729.226    -3863217.51149  -3000538.09745  23296728.711    23296739.416
  21596096.297   -12548049.39849  -9760586.45946  21596095.944    21596104.403
  23686262.960    -4167829.47449  -3242215.28745  23686261.612    23686271.880
  21771088.273   -17115283.74049 -13307750.12047  21771088.019    21771097.273
  21848668.990   -17266725.82649 -13438220.72446  21848668.421    21848678.892
  20262506.501   -19956440.89849 -15540999.67247  20262505.809    20262514.004
  20891479.517   -24336573.20649 -18950460.97847  20891479.150    20891486.288
 03  3 30  0 38 30.0000000  0  8G23G31G14G 9G 3G17G15G18
  21741385.643   -14133547.40049 -10992728.95647  21741385.082    21741393.792
  23283634.710    -3932028.92049  -3054157.31645  23283634.295    23283644.905
  21580245.348   -12631346.34549  -9825493.09146  21580244.967    21580253.424
  23679248.969    -4204689.34049  -3270937.17045  23679247.638    23679257.731
  21766904.250   -17137270.77749 -13324882.86747  21766904.046    21766913.293
  21859546.224   -17209565.90349 -13393680.58946  21859545.681    21859556.141
  20264198.664   -19947548.67149 -15534070.67347  20264197.968    20264206.145
  20898781.462   -24298201.50749 -18920560.98347  20898781.125    20898788.259
 03  3 30  0 39  0.0000000  0  8G23G31G14G 9G 3G17G15G18
  21750768.566   -14084239.71649 -10954307.42147  21750768.026    21750776.774
  23270625.276    -4000394.35349  -3107429.01645  23270624.891    23270635.295
  21564469.099   -12714251.01449  -9890094.05246  21564468.719    21564477.123
  23672324.016    -4241080.51049  -3299293.83945  23672322.762    23672332.828
  21762826.604   -17158699.73249 -13341580.74147  21762826.329    21762835.467
  21870483.389   -17152091.20849 -13348895.16746  21870482.830    21870493.282
  20265961.705   -19938283.65449 -15526851.18847  20265961.017    20265969.270
  20906123.544   -24259618.76549 -18890496.54747  20906123.182    20906130.286
 03  3 30  0 39 30.0000000  0  8G23G31G14G 9G 3G17G15G18
  21760171.075   -14034829.58949 -10915806.06547  21760170.507    21760179.273
  23257701.080    -4068311.82449  -3160351.65345  23257700.639    23257711.060
  21548767.822   -12796761.35749  -9954387.74946  21548767.439    21548775.854
  23665488.438    -4277000.74849  -3327283.55645  23665487.214    23665497.550
  21758855.172   -17179569.89349 -13357843.19546  21758854.888    21758863.932
  21881480.333   -17094301.64249 -13303864.39246  21881479.807    21881490.378
  20267795.799   -19928645.05449 -15519340.59847  20267795.137    20267803.499
  20913505.540   -24220826.15449 -18860268.56747  20913505.192    20913512.255
 03  3 30  0 40  0.0000000  0  8G23G31G14G 9G 3G17G15G18
  21769593.100   -13985316.98449 -10877224.86047  21769592.485    21769601.316
  23244862.543    -4135778.16649  -3212922.75345  23244862.147    23244872.630
  21533142.197   -12878874.13849 -10018371.66047  21533141.826    21533150.281
  23658742.640    -4312446.83049  -3354903.77745  23658741.546    23658752.508
  21754990.310   -17199879.51249 -13373668.86346  21754990.044    21754999.099
  21892537.285   -17036196.71749 -13258587.88146  21892536.762    21892547.408
  20269701.455   -19918630.90649 -15511537.37447  20269700.798    20269709.182
  20920927.384   -24181823.87049 -18829877.19347  20920927.044    20920934.219
 03  3 30  0 40 30.0000000  0  8G23G31G14G 9G 3G17G15G18
  21779034.302   -13935702.71249 -10838564.42047  21779033.739    21779042.662
  23232110.400    -4202790.84149  -3265140.34545  23232109.915    23232120.410
  21517592.705   -12960586.77049 -10082043.76047  21517592.301    21517600.821
  23652087.392    -4347416.07549  -3382152.45045  23652086.582    23652098.003
  21751232.129   -17219628.12849 -13389057.38947  21751231.906    21751241.079
  21903654.522   -16977775.59349 -13213064.99246  21903653.996    21903664.617
  20271678.913   -19908240.09149 -15503440.64547  20271678.199    20271686.501
  20928389.128   -24142612.73249 -18799323.09147  20928388.768    20928395.848
 03  3 30  0 41  0.0000000  0  8G23G31G14G 9G 3G17G15G18
  21788494.751   -13885988.24749 -10799825.91747  21788494.179    21788502.997
  23219444.935    -4269348.21749  -3317003.15345  23219444.453    23219454.962
  21502119.640   -13041897.67349 -10145402.81647  21502119.233    21502127.819
  23645523.314    -4381906.47549  -3409028.02745  23645522.927    23645534.913
  21747580.816   -17238815.46449 -13404008.55547  21747580.623    21747589.895
  21914831.980   -16919038.27049 -13167295.70846  21914831.487    21914841.933
  20273727.991   -19897472.20049 -15495050.08847  20273727.251    20273735.524
  20935890.218   -24103194.25549 -18768607.41747  20935889.845    20935896.885
 03  3 30  0 41 30.0000000  0  8G23G31G14G 9G 3G17G15G18
  21797973.811   -13836176.22149 -10761011.39946  21797973.137    21797981.879
  23206866.340    -4335449.66849  -3368510.70545  23206865.771    23206876.358
  21486723.030   -13122806.37449 -10208448.46947  21486722.642    21486731.316
  23639050.495    -4415917.48849  -3435530.04745  23639050.417    23639063.005
  21744036.145   -17257442.52649 -13418523.14547  21744035.967    21744045.304
  21926069.265   -16859986.54349 -13121281.44646  21926068.779    21926079.144
  20275848.478   -19886327.93749 -15486366.25747  20275847.823    20275856.160
  20943430.162   -24063571.12249 -18737732.25847  20943429.835    20943436.951
 03  3 30  0 42  0.0000000  0  8G23G31G14G 9G 3G17G15G18
  21807471.123   -13786266.70249 -10722120.90046  21807470.542    21807479.441
  23194374.793    -4401092.24549  -3419660.66945  23194374.299    23194384.884
  21471403.638   -13203309.71849 -10271178.26347  21471403.267    21471411.965
  23632669.483    -4449445.82949  -3461655.96445  23632669.704    23632682.863
  21740598.462   -17275507.69149 -13432599.88347  21740598.277    21740607.608
  21937366.352   -16800619.40449 -13075021.40846  21937365.918    21937376.333
  20278041.062   -19874805.43149 -15477387.68447  20278040.465    20278048.806
  20951009.159   -24023743.63249 -18706697.87047  20951008.788    20951015.836
 03  3 30  0 42 30.0000000  0  8G23G31G14G 9G 3G17G15G18
  21816987.160   -13736260.00249 -10683154.67646  21816986.574    21816995.400
  23181971.119    -4466273.18449  -3470450.91245  23181970.706    23181981.177
  21456161.889   -13283405.14449 -10333590.21047  21456161.529    21456170.185
  23626380.664    -4482488.80949  -3487403.68045  23626381.218    23626394.955
  21737268.031   -17293009.95949 -13446238.00847  21737267.743    21737276.990
  21948723.478   -16740936.45849 -13028515.28546  21948723.125    21948733.649
  20280306.131   -19862903.09449 -15468113.14647  20280305.486    20280313.779
  20958627.033   -23983712.38749 -18675504.71547  20958626.624    20958633.567
 03  3 30  0 43  0.0000000  0  8G23G31G14G 9G 3G17G15G18
  21826521.587   -13686157.08449 -10644113.46946  21826520.914    21826529.571
  23169655.644    -4530990.48749  -3520879.90045  23169655.232    23169665.787
  21440998.306   -13363090.26549 -10395682.43447  21440997.896    21441006.481
  23620184.927    -4515044.03249  -3512771.31245  23620185.876    23620199.920
  21734044.648   -17309949.04249 -13459437.28547  21734044.354    21734053.539
  21960140.888   -16680937.77249 -12981763.13046  21960140.581    21960151.075
  20282643.639   -19850620.23049 -15458542.09247  20282642.918    20282651.177
  20966283.417   -23943478.35449 -18644153.54047  20966282.944    20966289.849
 03  3 30  0 43 30.0000000  0  8G23G31G14G 9G 3G17G15G18
  21836073.534   -13635960.74449 -10604999.46246  21836072.961    21836081.711
  23157428.584    -4595243.78949  -3570947.33345  23157428.186    23157438.797
  21425912.806   -13442364.99049 -10457454.87047  21425912.410    21425920.939
  23614082.415    -4547111.00949  -3537758.52445  23614083.540    23614097.701
  21730928.133   -17326326.26649 -13472198.75647  21730927.862    21730937.037
  21971618.299   -16620624.72349 -12934766.01446  21971617.935    21971628.419
  20285053.217   -19837957.70049 -15448675.19147  20285052.491    20285060.804
  20973977.626   -23903044.70949 -18612646.82247  20973977.238    20973984.133
 03  3 30  0 44  0.0000000  0  8G23G31G14G 9G 3G17G15G18
  21845643.087   -13585672.39949 -10565813.77046  21845642.516    21845651.329
  23145290.310    -4659031.45249  -3620651.92145  23145289.809    23145300.486
  21410905.681   -13521227.62749 -10518906.19747  21410905.299    21410913.848
  23608073.356    -4578688.00049  -3562363.93045  23608074.750    23608088.735
  21727918.594   -17342141.54849 -13484522.33947  21727918.325    21727927.474
  21983155.500   -16559997.85549 -12887524.37246  21983155.038    21983165.598
  20287534.981   -19824915.04849 -15438512.08947  20287534.312    20287542.722
  20981709.666   -23862412.77949 -18580985.60247  20981709.235    20981716.234
 03  3 30  0 44 30.0000000  0  8G23G31G14G 9G 3G17G15G18
  21855230.112   -13535293.12549 -10526557.23946  21855229.460    21855238.211
  23133240.816    -4722351.47749  -3669992.11345  23133240.281    23133250.953
  21395977.325   -13599676.29449 -10580034.94147  21395976.953    21395985.521
  23602158.149    -4609772.96249  -3586585.90445  23602159.555    23602173.459
  21725016.115   -17357394.25049 -13496407.56147  21725015.864    21725025.009
  21994752.355   -16499057.47649 -12840038.43646  21994751.820    21994762.398
  20290089.322   -19811491.50049 -15428052.18447  20290088.694    20290097.139
  20989479.233   -23821583.70749 -18549170.77047  20989478.796    20989485.795
 03  3 30  0 45  0.0000000  0  8G23G31G14G 9G 3G17G15G18
  21864834.586   -13484822.58849 -10487229.58646  21864833.870    21864842.598
  23121280.954    -4785200.62749  -3718965.41045  23121280.421    23121291.081
  21381128.447   -13677707.50349 -10640838.39547  21381128.063    21381136.575
  23596337.383    -4640362.46349  -3610421.82945  23596338.664    23596352.212
  21722220.985   -17372082.98549 -13507853.32847  21722220.729    21722229.846
  22006409.034   -16437802.23349 -12792307.14746  22006408.420    22006418.965
  20292716.618   -19797685.03449 -15417293.90647  20292715.995    20292724.405
  20997286.201   -23780557.53249 -18517202.34647  20997285.811    20997292.784
 03  3 30  0 45 30.0000000  0  8G23G31G14G 9G 3G17G15G18
  21874455.832   -13434262.05649 -10447831.78846  21874455.200    21874463.996
  23109411.113    -4847577.42849  -3767570.64045  23109410.608    23109421.294
  21366359.350   -13755319.68449 -10701315.34247  21366358.968    21366367.381
  23590611.169    -4670454.92249  -3633870.43945  23590612.469    23590625.723
  21719533.062   -17386207.87149 -13518859.72346  21719532.790    21719541.874
  22018125.388   -16376232.50149 -12744330.79146  22018124.759    22018135.210
  20295416.784   -19783495.34249 -15406237.01447  20295416.166    20295424.558
  21005130.583   -23739335.53349 -18485081.33847  21005130.161    21005137.107
 03  3 30  0 46  0.0000000  0  8G23G31G14G 9G 3G17G15G18
  21884094.191   -13383611.97549 -10408364.22046  21884093.607    21884102.344
  23097631.544    -4909479.14249  -3815805.67245  23097631.033    23097641.742
  21351670.390   -13832510.37649 -10761463.85147  21351670.027    21351678.377
  23584980.292    -4700047.45349  -3656929.48945  23584981.386    23584994.334
  21716952.649   -17399768.10449 -13529426.13146  21716952.377    21716961.398
  22029901.578   -16314347.71149 -12696108.93246  22029900.947    22029911.364
  20298190.159   -19768921.03749 -15394880.42047  20298189.546    20298197.907
  21013011.969   -23697918.38849 -18452808.24247  21013011.525    21013018.468
 03  3 30  0 46 30.0000000  0  8G23G31G14G 9G 3G17G15G18
  21893749.445   -13332873.19549 -10368827.53446  21893748.863    21893757.631
  23085942.498    -4970903.56449  -3863668.78745  23085942.085    23085952.697
  21337062.019   -13909277.35049 -10821282.20147  21337061.630    21337069.958
  23579445.095    -4729137.87649  -3679597.28945  23579445.939    23579458.602
  21714479.798   -17412763.02849 -13539552.03747  21714479.529    21714488.516
  22041737.692   -16252147.79949 -12647641.53046  22041737.153    22041747.482
  20301037.046   -19753961.06549 -15383223.31347  20301036.375    20301044.720
  21020930.265   -23656306.92549 -18420383.74147  21020929.923    21020936.890
 03  3 30  0 47  0.0000000  0  8G23G31G14G 9G 3G17G15G18
  21903421.538   -13282046.59849 -10329222.42246  21903420.897    21903429.608
  23074344.851    -5031848.81849  -3911158.51745  23074344.484    23074354.922
  21322534.657   -13985618.62149 -10880768.83047  21322534.287    21322542.592
  23574005.770    -4757724.15449  -3701872.26445  23574006.295    23574018.633
  21712114.571   -17425192.30149 -13549237.18047  21712114.306    21712123.322
  22053633.883   -16189633.04449 -12598928.80946  22053633.267    22053643.577
  20303957.477   -19738614.47449 -15371264.93847  20303956.763    20303965.122
  21028885.584   -23614502.39849 -18387808.81247  21028885.156    21028892.110
 03  3 30  0 47 30.0000000  0  8G23G31G14G 9G 3G17G15G18
  21913109.775   -13231133.51849 -10289549.90546  21913109.210    21913118.047
  23062838.860    -5092313.45049  -3958273.74545  23062838.569    23062848.893
  21308088.567   -14061532.72949 -10939922.59447  21308088.168    21308096.511
  23568662.567    -4785804.72849  -3723753.19045  23568663.103    23568674.886
  21709856.850   -17437056.35749 -13558481.90147  21709856.609    21709865.759
  22065590.031   -16126803.68249 -12549970.93746  22065589.410    22065599.528
  20306951.475   -19722881.15949 -15359005.22147  20306950.750    20306959.167
  21036877.216   -23572506.26149 -18355084.56447  21036876.773    21036883.698
 03  3 30  0 48  0.0000000  0  8G23G31G14G 9G 3G17G15G18
  21922814.458   -13180134.92249 -10249810.77746  21922813.922    21922822.704
  23051424.929    -5152295.57949  -4005012.99545  23051424.531    23051434.793
  21293724.223   -14137017.73349 -10998742.00247  21293723.812    21293732.070
  23563415.938    -4813377.60249  -3745238.50445  23563416.197    23563427.798
  21707706.749   -17448354.97949 -13567286.02247  21707706.537    21707715.690
  22077605.960   -16063660.41049 -12500768.45046  22077605.282    22077615.241
  20310019.145   -19706760.38449 -15346443.58447  20310018.457    20310026.926
  21044904.994   -23530319.60249 -18322211.86847  21044904.586    21044911.511
 03  3 30  0 48 30.0000000  0  8G23G31G14G 9G 3G17G15G18
  21932535.191   -13129052.15349 -10210006.04946  21932534.622    21932543.370
  23040102.852    -5211793.73249  -4051375.10745  23040102.280    23040112.596
  21279441.872   -14212072.21149 -11057225.94947  21279441.469    21279449.577
  23558266.213    -4840441.17149  -3766326.95445  23558266.341    23558277.421
  21705664.227   -17459088.50349 -13575649.79746  21705664.021    21705673.112
  22089681.576   -16000203.03349 -12451321.20546  22089680.892    22089690.890
  20313160.586   -19690251.64949 -15333579.64347  20313159.932    20313168.394
  21052968.725   -23487944.08349 -18289192.00547  21052968.383    21052975.377
 03  3 30  0 49  0.0000000  0  8G23G31G14G 9G 3G17G15G18
  21942272.035   -13077884.48349 -10170135.16946  21942271.571    21942280.310
  23028873.104    -5270804.33449  -4097357.32845  23028872.574    23028882.953
  21265242.100   -14286692.50749 -11115371.56447  21265241.680    21265249.767
  23553214.006    -4866991.97249  -3787015.82845  23553214.049    23553225.155
  21703729.656   -17469255.03249 -13583571.76046  21703729.401    21703738.405
  22101816.906   -15936430.02449 -12401628.01846  22101816.371    22101826.594
  20316376.376   -19673352.71649 -15320411.65347  20316375.765    20316384.126
  21061068.818   -23445379.07549 -18256024.50147  21061068.396    21061075.410
 03  3 30  0 49 30.0000000  0  8G23G31G14G 9G 3G17G15G18
  21952025.116   -13026632.58249 -10130198.66546  21952024.500    21952033.281
  23017736.790    -5329325.33749  -4142958.04545  23017736.362    23017746.550
  21251125.250   -14360876.50849 -11173177.21247  21251124.843    21251133.020
  23548259.801    -4893027.55949  -3807303.26345  23548259.799    23548271.096
  21701903.025   -17478853.80049 -13591051.31646  21701902.825    21701911.821
  22114012.212   -15872341.77549 -12351689.20346  22114011.898    22114022.344
  20319666.680   -19656062.44249 -15306938.72647  20319666.048    20319674.287
  21069204.445   -23402625.47649 -18222710.02847  21069204.014    21069211.183
 03  3 30  0 50  0.0000000  0  8G23G31G14G 9G 3G17G15G18
  21961793.719   -12975298.42749 -10090198.06446  21961793.117    21961801.866
  23006694.130    -5387355.86049  -4188176.55745  23006693.657    23006703.667
  21237091.596   -14434623.31249 -11230642.17747  21237091.188    21237099.458
  23543403.605    -4918546.91049  -3827188.43845  23543403.561    23543414.917
  21700184.193   -17487886.03349 -13598089.41846  21700184.005    21700193.061
  22126267.573   -15807939.37649 -12301505.58846  22126267.324    22126277.760
  20323031.319   -19638381.36449 -15293161.27647  20323030.669    20323038.907
  21077375.537   -23359685.23549 -18189250.13547  21077375.217    21077382.337
 03  3 30  0 50 30.0000000  0  8G23G31G14G 9G 3G17G15G18
  21971577.781   -12923883.03549 -10050134.15946  21971577.164    21971585.966
  22995745.022    -5444894.19949  -4233011.57145  22995744.497    22995754.422
  21223141.430   -14507931.37249 -11287765.26347  21223141.025    21223149.330
  23538645.905    -4943548.61549  -3846670.26245  23538645.994    23538657.104
  21698573.173   -17496351.89149 -13604686.19246  21698572.960    21698582.076
  22138582.835   -15743223.22449 -12251077.48846  22138582.518    22138592.845
  20326470.373   -19620309.13349 -15279079.02847  20326469.678    20326478.019
  21085582.300   -23316559.57149 -18155645.75547  21085581.895    21085588.907
 03  3 30  0 51  0.0000000  0  8G23G31G14G 9G 3G17G15G18
  21981376.929   -12872387.54649 -10010007.83646  21981376.380    21981385.305
  22984889.725    -5501938.89349  -4277461.93045  22984889.262    22984899.096
  21209275.134   -14580799.02449 -11344545.18147  21209274.744    21209283.006
  23533987.098    -4968030.89249  -3865747.32545  23533987.100    23533998.356
  21697069.878   -17504251.56449 -13610841.78846  21697069.661    21697078.818
  22150957.995   -15678193.33049 -12200404.91546  22150957.611    22150967.676
  20329984.018   -19601844.88749 -15264691.31847  20329983.305    20329991.692
  21093823.946   -23273250.28649 -18121898.29247  21093823.450    21093830.450
 03  3 30  0 51 30.0000000  0  8G23G31G14G 9G 3G17G15G18
  21991191.455   -12820812.54949  -9969819.58046  21991190.875    21991199.759
  22974128.723    -5558487.79749  -4321525.94645  22974128.292    22974138.076
  21195493.103   -14653224.10449 -11400980.24347  21195492.716    21195500.878
  23529427.289    -4991991.84449  -3884418.15145  23529427.307    23529438.755
  21695674.389   -17511584.84149 -13616556.02947  21695674.227    21695683.347
  22163392.775   -15612850.01049 -12149488.11346  22163392.282    22163402.164
  20333572.433   -19582987.91249 -15249997.58547  20333571.691    20333580.051
  21102100.092   -23229757.88449 -18088008.12447  21102099.691    21102106.861
 03  3 30  0 52  0.0000000  0  8G23G31G14G 9G 3G17G15G18
  22001020.803   -12769158.60649  -9929569.78646  22001020.261    22001029.214
  22963462.286    -5614538.81349  -4365202.01845  22963461.887    22963471.769
  21181795.662   -14725204.57949 -11457068.85847  21181795.258    21181803.400
  23524967.093    -5015429.10049  -3902680.92045  23524967.294    23524978.772
  21694386.804   -17518351.33449 -13621828.61447  21694386.629    21694395.688
  22175887.116   -15547192.49549 -12098326.49846  22175886.523    22175896.556
  20337235.741   -19563737.28149 -15234997.10547  20337234.975    20337243.245
  21110411.065   -23186082.98849 -18053975.75547  21110410.747    21110417.878
 03  3 30  0 52 30.0000000  0  8G23G31G14G 9G 3G17G15G18
  22010865.058   -12717426.14949  -9889258.81646  22010864.605    22010873.582
  22952891.297    -5670089.78849  -4408488.44245  22952890.884    22952900.759
  21168183.146   -14796738.37349 -11512809.40747  21168182.762    21168190.900
  23520606.967    -5038340.60849  -3920534.02645  23520607.222    23520618.826
  21693207.196   -17524550.41249 -13626659.06146  21693207.025    21693216.016
  22188441.104   -15481220.93949 -12046920.17446  22188440.482    22188450.610
  20340974.178   -19544091.77349 -15219688.93047  20340973.417    20340981.633
  21118756.885   -23142226.17149 -18019801.63747  21118756.479    21118763.504
 03  3 30  0 53  0.0000000  0  8G23G31G14G 9G 3G17G15G18
  22020724.234   -12665617.07349  -9848888.15346  22020723.640    22020732.522
  22942415.806    -5725139.97249  -4451384.63045  22942415.276    22942425.122
  21154655.846   -14867824.50349 -11568201.12747  21154655.457    21154663.591
  23516347.101    -5060725.61949  -3937976.84345  23516347.452    23516359.027
  21692135.279   -17530183.40149 -13631048.40146  21692135.067    21692144.086
  22201054.678   -15414936.50649 -11995270.04646  22201054.100    22201064.233
  20344787.602   -19524051.63749 -15204073.25447  20344786.907    20344795.145
  21127136.873   -23098189.53249 -17985487.40347  21127136.438    21127143.477
 03  3 30  0 53 30.0000000  0  8G23G31G14G 9G 3G17G15G18
  22030597.711   -12613732.04849  -9808458.29046  22030597.075    22030605.945
  22932035.614    -5779687.54349  -4493889.19345  22932035.033    22932045.070
  21141214.113   -14938461.08949 -11623242.55747  21141213.703    21141221.815
  23512187.684    -5082582.12449  -3955007.84345  23512188.211    23512199.906
  21691171.124   -17535250.16749 -13634996.52846  21691170.885    21691179.945
  22213727.814   -15348339.38249 -11943376.26646  22213727.196    22213737.289
  20348676.294   -19503616.14849 -15188149.50947  20348675.645    20348683.959
  21135550.674   -23053973.95449 -17951033.73047  21135550.253    21135557.484
 03  3 30  0 54  0.0000000  0  8G23G31G14G 9G 3G17G15G18
  22040485.502   -12561770.87349  -9767969.09046  22040484.950    22040493.842
  22921751.573    -5833729.67749  -4535999.90345  22921751.042    22921761.057
  21127858.368   -15008645.32049 -11677931.50447  21127858.008    21127866.089
  23508129.244    -5103907.14749  -3971624.70145  23508129.871    23508141.907
  21690314.886   -17539749.73249 -13638502.68547  21690314.648    21690323.743
  22226460.658   -15281428.85849 -11891238.26646  22226459.982    22226469.997
  20352640.544   -19482783.70349 -15171916.44947  20352639.921    20352648.319
  21143998.616   -23009579.66749 -17916440.80547  21143998.254    21144005.467
 03  3 30  0 54 30.0000000  0  8G23G31G14G 9G 3G17G15G18
  22050387.572   -12509734.98849  -9727421.68146  22050387.085    22050395.911
  22911564.168    -5887265.33249  -4577715.91945  22911563.614    22911573.399
  21114588.942   -15078376.17349 -11732267.17447  21114588.585    21114596.623
  23504172.214    -5124699.63949  -3987826.60445  23504172.960    23504185.237
  21689566.448   -17543682.80749 -13641567.41747  21689566.186    21689575.272
  22239252.880   -15214205.68849 -11838856.65246  22239252.156    22239262.228
  20356680.405   -19461554.10149 -15155373.91547  20356679.814    20356688.227
  21152480.376   -22965008.02549 -17881709.68647  21152479.983    21152487.148
 03  3 30  0 55  0.0000000  0  8G23G31G14G 9G 3G17G15G18
  22060303.684   -12457625.57149  -9686816.98046  22060303.210    22060311.976
  22901473.293    -5940293.08849  -4619036.17345  22901472.730    22901482.444
  21101406.088   -15147652.34249 -11786248.53947  21101405.731    21101413.740
  23500316.914    -5144958.49949  -4003612.67645  23500317.759    23500330.234
  21688925.794   -17547049.83449 -13644191.07847  21688925.509    21688934.533
  22252104.468   -15146670.04849 -11786231.55746  22252103.729    22252113.954
  20360795.905   -19439927.07149 -15138521.69747  20360795.305    20360803.687
  21160995.641   -22920260.56449 -17846841.56347  21160995.228    21161002.333
 03  3 30  0 55 30.0000000  0  8G23G31G14G 9G 3G17G15G18
  22070233.946   -12405442.69949  -9646155.04346  22070233.345    22070242.210
  22891479.353    -5992810.66749  -4659958.92045  22891478.779    22891488.661
  21088310.205   -15216471.41449 -11839873.72247  21088309.847    21088317.816
  23496563.617    -5164681.38449  -4018981.10045  23496564.397    23496577.096
  21688392.966   -17549850.22749 -13646373.20347  21688392.668    21688401.623
  22265015.428   -15078821.76149 -11733362.84346  22265014.781    22265025.171
  20364987.252   -19417901.36149 -15121358.81647  20364986.623    20364994.981
  21169544.204   -22875337.73149 -17811836.78147  21169543.760    21169550.900
 03  3 30  0 56  0.0000000  0  8G23G31G14G 9G 3G17G15G18
  22080177.882   -12353187.17349  -9605436.49746  22080177.251    22080186.268
  22881582.968    -6044816.41149  -4700482.81845  22881582.390    22881592.268
  21075301.678   -15284831.57749 -11893141.32147  21075301.322    21075309.246
  23492912.767    -5183866.51349  -4033930.51845  23492913.475    23492926.234
  21687967.840   -17552084.27449 -13648114.02347  21687967.533    21687976.491
  22277985.620   -15010661.67849 -11680251.17646  22277985.102    22277995.807
  20369254.541   -19395476.61749 -15103884.99847  20369253.889    20369262.244
  21178125.897   -22830240.41949 -17776696.03847  21178125.519    21178132.604
 03  3 30  0 56 30.0000000  0  8G23G31G14G 9G 3G17G15G18
  22090135.226   -12300860.24949  -9564662.30346  22090134.698    22090143.795
  22871784.094    -6096309.10349  -4740606.92846  22871783.564    22871793.599
  21062380.726   -15352731.68149 -11946050.42547  21062380.368    21062388.282
  23489364.462    -5202512.59049  -4048459.89545  23489365.061    23489377.981
  21687650.399   -17553752.44849 -13649413.90947  21687650.102    21687659.071
  22291015.144   -14942189.84949 -11626896.58746  22291014.732    22291025.728
  20373597.815   -19372652.57049 -15086100.03447  20373597.152    20373605.476
  21186740.717   -22784970.14049 -17741420.52747  21186740.275    21186747.317
 03  3 30  0 57  0.0000000  0  8G23G31G14G 9G 3G17G15G18
  22100106.326   -12248462.16449  -9523832.66446  22100105.765    22100114.792
  22862083.152    -6147286.66349  -4780329.65145  22862082.700    22862092.867
  21049547.726   -15420169.60949 -11998599.40847  21049547.342    21049555.251
  23485919.355    -5220617.61549  -4062567.65445  23485919.726    23485932.723
  21687440.748   -17554854.51149 -13650272.67047  21687440.457    21687449.410
  22304104.109   -14873406.56849 -11573299.30846  22304103.790    22304114.925
  20378017.478   -19349427.84949 -15068002.85947  20378016.762    20378025.022
  21195388.198   -22739527.26949 -17706010.52347  21195387.758    21195394.866
 03  3 30  0 57 30.0000000  0  8G23G31G14G 9G 3G17G15G18
  22110090.558   -12195994.84849  -9482949.06946  22110090.003    22110099.055
  22852480.410    -6197748.66649  -4819650.63146  22852480.027    22852490.191
  21036802.747   -15487144.70749 -12050787.73147  21036802.335    21036810.244
  23482577.286    -5238181.19949  -4076253.52045  23482577.390    23482590.313
  21687338.489   -17555392.00749 -13650691.50747  21687338.178    21687347.136
  22317252.275   -14804312.80549 -11519460.08746  22317251.968    22317263.141
  20382513.278   -19325803.18849 -15049594.04247  20382512.510    20382520.698
  21204068.061   -22693914.00049 -17670467.74747  21204067.649    21204074.822
 03  3 30  0 58  0.0000000  0  8G23G31G14G 9G 3G17G15G18
  22120087.775   -12143459.34349  -9442012.36046  22120087.272    22120096.237
  22842976.332    -6247693.73749  -4858568.79646  22842975.917    22842985.882
  21024146.078   -15553655.50549 -12102614.27147  21024145.707    21024153.571
  23479338.626    -5255201.86649  -4089516.32745  23479338.601    23479351.167
  21687343.635   -17555365.23149 -13650670.65647  21687343.275    21687352.216
  22330459.607   -14734909.51149 -11465379.67046  22330459.194    22330470.209
  20387085.156   -19301778.15049 -15030873.23847  20387084.365    20387092.534
  21212780.264   -22648131.29249 -17634792.94347  21212779.848    21212787.038
 03  3 30  0 58 30.0000000  0  8G23G31G14G 9G 3G17G15G18
  22130097.914   -12090856.60449  -9401023.24846  22130097.342    22130106.323
  22833571.001    -6297120.39549  -4897083.01346  22833570.508    22833580.335
  21011578.115   -15619700.73049 -12154078.02747  21011577.728    21011585.520
  23476203.694    -5271678.25649  -4102355.01645  23476203.532    23476215.586
  21687455.937   -17554774.84949 -13650210.62747  21687455.587    21687464.508
  22343725.723   -14665196.99749 -11411058.30745  22343725.220    22343736.024
  20391733.139   -19277352.56049 -15011840.31147  20391732.378    20391740.555
  21221524.494   -22602180.50549 -17598987.17347  21221524.055    21221531.250
 03  3 30  0 59  0.0000000  0  8G23G31G14G 9G 3G17G15G18
  22140120.731   -12038186.55049  -9359981.68246  22140120.144    22140129.179
  22824264.573    -6346026.48749  -4935191.59946  22824264.021    22824273.750
  20999099.086   -15685278.30349 -12205177.38047  20999098.687    20999106.499
  23473172.713    -5287608.10049  -4114767.82345  23473172.231    23473184.118
  21687675.561   -17553620.27649 -13649310.97546  21687675.255    21687684.196
  22357050.733   -14595174.27649 -11356495.22645  22357050.186    22357060.973
  20396457.652   -19252524.86649 -14992494.05847  20396456.937    20396465.125
  21230300.514   -22556062.00149 -17563050.71747  21230300.059    21230307.272
 03  3 30  0 59 30.0000000  0  8G23G31G14G 9G 3G17G15G18
  22150156.253   -11985449.23649  -9318887.70846  22150155.746    22150164.791
  22815057.375    -6394409.70149  -4972892.75546  22815056.855    22815066.676
  20986709.471   -15750385.51849 -12255910.21947  20986709.084    20986716.945
  23470245.871    -5302989.15449  -4126752.98845  23470245.147    23470257.178
  21688002.677   -17551901.15049 -13647971.41246  21688002.368    21688011.305
  22370434.377   -14524841.74249 -11301690.73345  22370433.941    22370444.802
  20401258.893   -19227293.69149 -14972833.41247  20401258.233    20401266.478
  21239108.384   -22509775.81649 -17526983.58947  21239108.021    21239115.321
 03  3 30  1  0  0.0000000  0  8G23G31G14G 9G 3G17G15G18
  22160204.866   -11932644.20049  -9277740.96046  22160204.320    22160213.208
  22805950.205    -6442267.44449  -5010184.45345  22805949.720    22805959.522
  20974409.886   -15815019.90049 -12306274.62047  20974409.509    20974417.402
  23467423.987    -5317818.83849  -4138308.52945  23467423.102    23467435.140
  21688437.356   -17549616.96949 -13646191.54546  21688437.067    21688445.972
  22383877.174   -14454198.19549 -11246643.90845  22383876.935    22383887.826
  20406137.170   -19201657.67349 -14952857.29847  20406136.546    20406144.851
  21247948.376   -22463321.90649 -17490785.78347  21247947.951    21247955.171
 03  3 30  1  0 30.0000000  0  8G23G31G14G 9G 3G17G15G18
  22170265.787   -11879773.67549  -9236543.16946  22170265.255    22170274.120
  22796943.015    -6489599.83249  -5047066.78145  22796942.595    22796952.309
  20962200.338   -15879181.39249 -12356270.53347  20962199.971    20962207.846
  23464706.983    -5332097.47149  -4149434.68545  23464705.842    23464717.847
  21688979.208   -17546769.45149 -13643972.71346  21688978.932    21688987.843
  22397379.074   -14383245.55749 -11191356.21745  22397378.857    22397389.751
  20411092.296   -19175617.77049 -14932566.47347  20411091.715    20411100.075
  21256819.710   -22416702.60349 -17454459.06847  21256819.290    21256826.592
 03  3 30  1  1  0.0000000  0  8G23G31G14G 9G 3G17G15G18
  22180339.034   -11826838.40749  -9195294.94146  22180338.461    22180347.391
  22788036.178    -6536405.35449  -5083538.57046  22788035.781    22788045.494
  20950081.074   -15942868.56749 -12405896.85347  20950080.691    20950088.496
  23462095.128    -5345823.54749  -4160130.28745  23462093.911    23462105.788
  21689628.173   -17543358.88949 -13641315.15147  21689627.933    21689636.881
  22410939.783   -14311984.56449 -11135828.26845  22410939.469    22410950.409
  20416124.513   -19149173.50649 -14911960.56847  20416123.911    20416132.261
  21265722.282   -22369919.03149 -17418004.37347  21265721.947    21265729.342
 03  3 30  1  1 30.0000000  0  8G23G31G14G 9G 3G17G15G18
  22190424.596   -11773838.94449  -9153996.70246  22190423.969    22190432.941
  22779229.864    -6582682.32249  -5119598.49846  22779229.498    22779239.254
  20938052.419   -16006079.64649 -12455152.20247  20938052.008    20938059.701
  23459588.662    -5358995.34849  -4170393.97045  23459587.346    23459599.251
  21690384.304   -17539385.90549 -13638219.33747  21690384.040    21690393.014
  22424559.147   -14240414.85449 -11080059.76145  22424558.821    22424569.923
  20421233.905   -19122324.02349 -14891038.91447  20421233.254    20421241.534
  21274656.099   -22322971.72249 -17381422.07247  21274655.742    21274663.150
 03  3 30  1  2  0.0000000  0  8G23G31G14G 9G 3G17G15G18
  22200522.152   -11720775.43749  -9112648.54846  22200521.559    22200530.595
  22770524.592    -6628428.75849  -5155245.03146  22770524.165    22770534.012
  20926114.743   -16068812.54349 -12504034.93647  20926114.303    20926121.926
  23457188.024    -5371610.89749  -4180224.21845  23457186.568    23457198.700
  21691247.456   -17534850.24549 -13634685.07047  21691247.212    21691256.190
  22438237.370   -14168536.26449 -11024050.57245  22438237.011    22438248.203
  20426420.530   -19095068.48649 -14869800.85247  20426419.844    20426428.048
  21283621.022   -22275861.00049 -17344712.45447  21283620.596    21283628.003
 03  3 30  1  2 30.0000000  0  8G23G31G14G 9G 3G17G15G18
  22210631.641   -11667649.82449  -9071251.99946  22210631.060    22210640.028
  22761920.279    -6673644.60549  -5190478.13246  22761919.851    22761929.730
  20914267.983   -16131067.12649 -12552544.94947  20914267.584    20914275.236
  23454893.231    -5383670.49249  -4189621.26545  23454891.736    23454903.825
  21692217.337   -17529753.44449 -13630713.54847  21692217.090    21692226.078
  22451974.029   -14096350.90249 -10967802.34045  22451973.602    22451984.773
  20431684.187   -19067407.68749 -14848246.99947  20431683.510    20431691.726
  21292616.528   -22228589.37749 -17307877.45347  21292616.129    21292623.531
 03  3 30  1  3  0.0000000  0  8G23G31G14G 9G 3G17G15G18
  22220752.686   -11614462.75049  -9029807.55146  22220752.183    22220761.194
  22753417.243    -6718328.47349  -5225296.70246  22753416.797    22753426.512
  20902512.592   -16192841.85549 -12600681.05647  20902512.222    20902519.863
  23452704.724    -5395172.55049  -4198583.87745  23452703.002    23452715.050
  21693293.864   -17524096.38049 -13626305.46847  21693293.576    21693302.600
  22465769.232   -14023858.62549 -10911314.94245  22465768.532    22465779.661
  20437024.948   -19039341.05449 -14826376.91147  20437024.313    20437032.619
  21301642.428   -22181157.81549 -17270917.82047  21301642.070    21301649.488
 03  3 30  1  3 30.0000000  0  8G23G31G14G 9G 3G17G15G18
  22230885.530   -11561214.70949  -8988315.61946  22230884.969    22230894.028
  22745015.729    -6762478.80949  -5259699.50346  22745015.274    22745024.876
  20890848.927   -16254135.21049 -12648442.07047  20890848.546    20890856.092
  23450622.308    -5406115.58849  -4207110.89245  23450620.593    23450632.589
  21694476.959   -17517879.17949 -13621460.91347  21694476.706    21694485.726
  22479622.612   -13951059.85649 -10854588.70645  22479621.792    22479632.644
  20442443.198   -19010868.00649 -14804190.14047  20442442.571    20442450.871
  21310698.646   -22133566.72849 -17233833.87947  21310698.340    21310705.822
 03  3 30  1  4  0.0000000  0  8G23G31G14G 9G 3G17G15G18
  22241030.045   -11507904.79949  -8946775.46246  22241029.526    22241038.699
  22736716.190    -6806092.66849  -5293684.29345  22736715.700    22736725.436
  20879277.374   -16314944.30549 -12695825.73847  20879276.997    20879284.434
  23448646.688    -5416497.06049  -4215200.33845  23448644.841    23448656.971
  21695766.848   -17511100.76149 -13616179.04047  21695766.593    21695775.573
  22493534.308   -13877953.56949 -10797622.84945  22493533.451    22493544.123
  20447939.358   -18981986.57849 -14781685.15147  20447938.617    20447946.836
  21319785.557   -22085815.65449 -17196625.28747  21319785.190    21319792.551
 03  3 30  1  4 30.0000000  0  8G23G31G14G 9G 3G17G15G18
  22251186.307   -11454533.35849  -8905187.37246  22251185.804    22251194.940
  22728518.724    -6849168.40649  -5327249.79445  22728518.415    22728528.392
  20867798.229   -16375267.40349 -12742830.70547  20867797.834    20867805.237
  23446778.224    -5426315.19349  -4222850.80245  23446776.564    23446788.467
  21697163.422   -17503761.49349 -13610460.13747  21697163.216    21697172.134
  22507504.401   -13804540.14849 -10740417.66845  22507503.490    22507514.288
  20453513.380   -18952696.06749 -14758861.39447  20453512.528    20453520.643
  21328902.695   -22037905.03449 -17159292.37047  21328902.328    21328909.650
 03  3 30  1  5  0.0000000  0  8G23G31G14G 9G 3G17G15G18
  22261354.089   -11401101.83349  -8863552.46246  22261353.516    22261362.632
  22720424.260    -6891705.60449  -5360395.61846  22720423.828    22720433.725
  20856411.642   -16435103.78349 -12789456.40947  20856411.267    20856418.727
  23445017.138    -5435569.52649  -4230061.94145  23445015.563    23445027.368
  21698666.536   -17495863.03449 -13604305.50747  21698666.286    21698675.184
  22521532.823   -13730820.52449 -10682973.90845  22521531.928    22521542.738
  20459164.995   -18922996.79749 -14735719.12647  20459164.115    20459172.246
  21338049.872   -21989836.70049 -17121836.55947  21338049.506    21338056.748
 03  3 30  1  5 30.0000000  0  8G23G31G14G 9G 3G17G15G18
  22271532.685   -11347612.41749  -8821872.42346  22271532.199    22271541.256
  22712432.316    -6933704.45749  -5393121.93946  22712431.841    22712441.453
  20845117.632   -16494453.81049 -12835703.13747  20845117.196    20845124.752
  23443363.245    -5444260.49049  -4236834.10145  23443361.759    23443373.475
  21700275.646   -17487407.45049 -13597716.75247  21700275.372    21700284.257
  22535619.205   -13656796.65549 -10625293.07845  22535618.346    22535629.191
  20464894.033   -18892889.81749 -14712259.15647  20464893.209    20464901.407
  21347226.614   -21941612.92649 -17084259.62247  21347226.213    21347233.429
 03  3 30  1  6  0.0000000  0  8G23G31G14G 9G 3G17G15G18
  22281722.799   -11294064.71849  -8780146.97346  22281722.124    22281730.986
  22704543.057    -6975162.79349  -5425427.09546  22704542.573    22704552.178
  20833916.583   -16553315.08449 -12881569.01847  20833916.180    20833923.854
  23441816.722    -5452386.06349  -4243165.68045  23441815.399    23441827.051
  21701990.768   -17478394.43949 -13590693.64247  21701990.465    21701999.377
  22549763.475   -13582467.71049 -10567374.51645  22549762.764    22549773.641
  20470700.896   -18862373.84249 -14688480.48647  20470700.139    20470708.440
  21356432.862   -21893233.66449 -17046561.53047  21356432.430    21356439.790
 03  3 30  1  6 30.0000000  0  8G23G31G14G 9G 3G17G15G18
  22291923.570   -11240459.15249  -8738376.43246  22291922.913    22291931.797
  22696756.717    -7016079.07149  -5457309.88346  22696756.312    22696766.158
  20822808.897   -16611686.01149 -12927052.81147  20822808.500    20822816.285
  23440378.055    -5459944.74649  -4249055.53345  23440376.905    23440388.526
  21703811.846   -17468824.58149 -13583236.62747  21703811.544    21703820.508
  22563965.583   -13507834.92549 -10509219.19345  22563964.912    22563975.803
  20476585.765   -18831448.26749 -14664382.65547  20476585.085    20476593.426
  21365668.472   -21844699.75049 -17008742.91847  21365668.106    21365675.521
 03  3 30  1  7  0.0000000  0  8G23G31G14G 9G 3G17G15G18
  22302135.210   -11186795.90049  -8696560.92546  22302134.684    22302143.704
  22689074.005    -7056451.84349  -5488769.15346  22689073.671    22689083.514
  20811794.826   -16669565.06949 -12972153.33047  20811794.425    20811802.281
  23439047.672    -5466934.99849  -4254502.45245  23439046.755    23439058.129
  21705738.835   -17458697.92349 -13575345.74747  21705738.570    21705747.633
  22578225.570   -13432897.83949 -10450826.75645  22578224.940    22578235.897
  20482548.783   -18800112.10549 -14639964.89247  20482548.137    20482556.492
  21374933.560   -21796011.68249 -16970804.19447  21374933.202    21374940.592
 03  3 30  1  7 30.0000000  0  8G23G31G14G 9G 3G17G15G18
  22312357.713   -11133076.12349  -8654701.37546  22312357.166    22312366.294
  22681495.008    -7096280.26949  -5519804.24646  22681494.638    22681504.392
  20800874.589   -16726951.33349 -13016869.84547  20800874.194    20800881.980
  23437825.632    -5473356.23949  -4259505.98245  23437824.891    23437836.074
  21707771.556   -17448015.65749 -13567021.91847  21707771.313    21707780.431
  22592543.254   -13357657.35049 -10392197.91745  22592542.728    22592553.747
  20488589.927   -18768365.56349 -14615227.34947  20488589.315    20488597.630
  21384227.673   -21747170.70849 -16932746.30847  21384227.327    21384234.785
 03  3 30  1  8  0.0000000  0  8G23G31G14G 9G 3G17G15G18
  22322591.002   -11079300.13249  -8612798.04146  22322590.452    22322599.563
  22674019.817    -7135562.82949  -5550414.00146  22674019.353    22674029.144
  20790048.462   -16783843.15549 -13061201.08747  20790048.039    20790055.719
  23436711.965    -5479207.18349  -4264065.13045  23436711.423    23436722.556
  21709910.013   -17436778.18249 -13558265.46547  21709909.772    21709918.863
  22606918.565   -13282114.21349 -10333333.24445  22606918.086    22606929.260
  20494709.274   -18736208.12649 -14590169.63047  20494708.649    20494716.929
  21393550.985   -21698177.18549 -16894569.57147  21393550.583    21393557.879
 03  3 30  1  8 30.0000000  0  8G23G31G14G 9G 3G17G15G18
  22332834.948   -11025468.41449  -8570851.28446  22332834.350    22332843.359
  22666648.484    -7174298.44349  -5580597.55446  22666648.077    22666658.029
  20779316.634   -16840239.28849 -13105146.08447  20779316.229    20779323.759
  23435706.830    -5484486.47849  -4268178.82445  23435706.648    23435717.777
  21712153.995   -17424986.38849 -13549077.05947  21712153.719    21712162.752
  22621351.736   -13206268.18149 -10274232.54345  22621351.244    22621362.458
  20500906.903   -18703639.47649 -14564791.48947  20500906.278    20500914.533
  21402902.968   -21649032.19349 -16856274.78947  21402902.539    21402909.917
 03  3 30  1  9  0.0000000  0  8G23G31G14G 9G 3G17G15G18
  22343089.205   -10971582.20949  -8528862.06946  22343088.642    22343097.517
  22659381.436    -7212486.57749  -5610354.52046  22659381.067    22659391.064
  20768679.142   -16896139.36749 -13148704.54547  20768678.743    20768686.171
  23434810.717    -5489194.11049  -4271847.05945  23434810.758    23434821.890
  21714503.151   -17412641.73749 -13539457.85547  21714502.853    21714511.866
  22635842.436   -13130120.79749 -10214897.02245  22635841.762    22635853.137
  20507182.805   -18670659.66749 -14539092.96347  20507182.163    20507190.439
  21412283.572   -21599736.78549 -16817862.80147  21412283.174    21412290.627
 03  3 30  1  9 30.0000000  0  8G23G31G14G 9G 3G17G15G18
  22353353.620   -10917642.12749  -8486830.88046  22353353.096    22353362.018
  22652218.895    -7250126.07549  -5639683.95846  22652218.556    22652228.515
  20758136.332   -16951541.92049 -13191875.31947  20758135.912    20758143.278
  23434023.574    -5493328.84849  -4275068.90545  23434023.883    23434035.053
  21716957.389   -17399744.80949 -13529408.32047  21716957.093    21716966.091
  22650390.351   -13053672.57749 -10155327.08745  22650389.611    22650401.077
  20513537.006   -18637268.32949 -14513073.76747  20513536.364    20513544.707
  21421692.684   -21550292.10849 -16779334.50847  21421692.201    21421699.580
 03  3 30  1 10  0.0000000  0  8G23G31G14G 9G 3G17G15G18
  22363628.104   -10863648.73349  -8444758.14946  22363627.653    22363636.761
  22645161.045    -7287216.10549  -5668585.24046  22645160.631    22645170.543
  20747688.306   -17006446.10049 -13234657.74947  20747687.905    20747695.276
  23433345.675    -5496889.99349  -4277843.79045  23433346.182    23433357.521
  21719516.396   -17386296.92649 -13518929.47447  21719516.122    21719525.134
  22664995.213   -12976924.14649 -10095523.22445  22664994.410    22665006.110
  20519969.473   -18603465.58549 -14486733.98947  20519968.811    20519977.251
  21431129.744   -21500699.39449 -16740690.85947  21431129.338    21431136.750
 03  3 30  1 10 30.0000000  0  8G23G31G14G 9G 3G17G15G18
  22373912.832   -10809602.24949  -8402644.05746  22373912.303    22373921.512
  22638207.953    -7323755.10649  -5697057.16346  22638207.495    22638217.332
  20737335.411   -17060850.40649 -13277050.66947  20737335.032    20737342.471
  23432777.248    -5499876.23449  -4280170.69645  23432777.826    23432789.320
  21722180.188   -17372298.53349 -13508021.66447  21722179.928    21722188.972
  22679657.258   -12899875.52749 -10035485.44745  22679656.380    22679668.158
  20526480.274   -18569250.80149 -14460073.13947  20526479.604    20526488.146
  21440595.070   -21450958.53549 -16701931.77747  21440594.676    21440602.202
 03  3 30  1 11  0.0000000  0  8G23G31G14G 9G 3G17G15G18
  22384207.556   -10755503.68149  -8360489.35846  22384206.946    22384216.154
  22631359.608    -7359742.40749  -5725099.18646  22631359.206    22631369.072
  20727077.894   -17114753.71749 -13319053.20147  20727077.493    20727084.992
  23432318.461    -5502287.10249  -4282049.25745  23432319.043    23432330.749
  21724948.467   -17357750.84549 -13496685.82947  21724948.231    21724957.307
  22694376.192   -12822527.77249  -9975214.57145  22694375.321    22694386.960
  20533069.441   -18534623.91749 -14433091.16947  20533068.822    20533077.428
  21450088.284   -21401070.91749 -16663058.31847  21450087.953    21450095.497
 03  3 30  1 11 30.0000000  0  8G23G31G14G 9G 3G17G15G18
  22394512.123   -10701352.83249  -8318293.92246  22394511.552    22394520.755
  22624616.576    -7395176.42149  -5752710.07246  22624616.244    22624626.076
  20716916.003   -17168154.34849 -13360664.02947  20716915.628    20716923.214
  23431969.703    -5504120.93949  -4283478.19245  23431970.264    23431981.743
  21727821.398   -17342654.04749 -13484922.11347  21727821.122    21727830.171
  22709151.858   -12744881.15649  -9914710.82845  22709151.171    22709162.574
  20539737.347   -18499583.64049 -14405787.06747  20539736.766    20539745.367
  21459609.719   -21351036.91849 -16624070.80947  21459609.271    21459616.599
 03  3 30  1 12  0.0000000  0  8G23G31G14G 9G 3G17G15G18
  22404826.509   -10647150.14749  -8276058.09146  22404825.992    22404835.200
  22617979.283    -7430056.08949  -5779889.00846  22617978.899    22617988.673
  20706849.993   -17221051.39749 -13401882.45347  20706849.656    20706857.217
  23431731.005    -5505376.97749  -4284456.87945  23431731.409    23431742.616
  21730798.525   -17327009.23249 -13472731.37347  21730798.231    21730807.275
  22723984.390   -12666935.94249  -9853974.38945  22723983.703    22723995.031
  20546484.001   -18464130.15149 -14378160.98847  20546483.385    20546491.951
  21469158.523   -21300857.24249 -16584969.79047  21469158.121    21469165.439
 03  3 30  1 12 30.0000000  0  8G23G31G14G 9G 3G17G15G18
  22415150.437   -10592897.35649  -8233783.20446  22415149.905    22415159.178
  22611447.306    -7464381.53049  -5806636.09346  22611446.931    22611456.776
  20696880.002   -17273444.80949 -13442708.43347  20696879.578    20696887.019
  23431602.359    -5506055.38849  -4284985.47645  23431602.489    23431613.404
  21733879.595   -17310818.33249 -13460115.11146  21733879.278    21733888.317
  22738873.528   -12588693.72549  -9793006.52245  22738872.946    22738884.086
  20553309.128   -18428264.40949 -14350213.66747  20553308.481    20553316.978
  21478734.750   -21250533.78349 -16545756.72447  21478734.431    21478741.775
 03  3 30  1 13  0.0000000  0  8G23G31G14G 9G 3G17G15G18
  22425484.111   -10538593.91749  -8191468.85746  22425483.630    22425492.865
  22605021.239    -7498150.68249  -5832949.69646  22605020.870    22605030.751
  20687006.153   -17325332.25449 -13483140.16347  20687005.714    20687013.053
  23431583.983    -5506154.41049  -4285062.58845  23431583.872    23431594.486
  21737064.512   -17294081.18749 -13447073.20346  21737064.204    21737073.258
  22753819.290   -12510154.28649  -9731807.06145  22753818.619    22753829.799
  20560212.935   -18391984.80349 -14321943.86047  20560212.281    20560220.760
  21488338.521   -21200066.09749 -16506431.27947  21488338.123    21488345.547
 03  3 30  1 13 30.0000000  0  8G23G31G14G 9G 3G17G15G18
  22435827.529   -10484240.52349  -8149115.61146  22435826.940    22435836.039
  22598701.262    -7531362.72349  -5858829.18546  22598700.845    22598710.747
  20677228.766   -17376712.90349 -13523176.98447  20677228.333    20677235.561
  23431675.962    -5505673.26649  -4284687.61845  23431675.659    23431685.869
  21740353.154   -17276799.04749 -13433606.62546  21740352.877    21740361.917
  22768821.294   -12431318.39249  -9670376.59345  22768820.514    22768832.026
  20567195.359   -18355291.34349 -14293351.56647  20567194.787    20567203.273
  21497969.495   -21149455.17349 -16466994.22447  21497969.086    21497976.613
 03  3 30  1 14  0.0000000  0  8G23G31G14G 9G 3G17G15G18
  22446180.139   -10429837.59549  -8106723.75246  22446179.533    22446188.502
  22592487.325    -7564016.94649  -5884273.98446  22592486.927    22592496.825
  20667547.927   -17427585.93849 -13562818.26847  20667547.475    20667554.660
  23431878.146    -5504611.45449  -4283860.17945  23431877.789    23431888.018
  21743745.324   -17258973.42249 -13419716.55046  21743745.028    21743754.004
  22783879.382   -12352186.57949  -9608715.55245  22783878.639    22783890.503
  20574256.500   -18318184.05849 -14264436.80647  20574255.999    20574264.532
  21507627.501   -21098701.81249 -16427446.17047  21507627.120    21507634.762
 03  3 30  1 14 30.0000000  0  8G23G31G14G 9G 3G17G15G18
  22456542.112   -10375384.69149  -8064292.93946  22456541.500    22456550.536
  22586379.993    -7596111.43849  -5909282.63746  22586379.585    22586389.403
  20657964.019   -17477949.37949 -13602062.45747  20657963.569    20657970.778
  23432191.043    -5502967.14349  -4282578.86345  23432190.563    23432200.940
  21747240.935   -17240604.13649 -13405402.84046  21747240.639    21747249.601
  22798993.976   -12272758.34949  -9546823.52345  22798993.295    22799005.396
  20581396.722   -18280661.60149 -14235198.53447  20581396.256    20581404.791
  21517312.582   -21047805.95049 -16387787.07747  21517312.195    21517319.822
 03  3 30  1 15  0.0000000  0  8G23G31G14G 9G 3G17G15G18
  22466913.431   -10320883.45549  -8021824.46146  22466912.780    22466921.890
  22580378.947    -7627646.38049  -5933855.28846  22580378.530    22580388.426
  20648477.026   -17527803.27949 -13640909.60247  20648476.587    20648483.840
  23432614.409    -5500740.76249  -4280843.97145  23432613.999    23432624.499
  21750839.649   -17221693.02449 -13390666.92846  21750839.328    21750848.303
  22814164.900   -12193035.77549  -9484702.12945  22814164.222    22814176.321
  20588615.949   -18242724.84649 -14205637.43347  20588615.428    20588623.976
  21527024.395   -20996769.30149 -16348018.26747  21527024.081    21527031.801
 03  3 30  1 15 30.0000000  0  8G23G31G14G 9G 3G17G15G18
  22477293.854   -10266333.57149  -7979318.07546  22477293.303    22477302.456
  22574484.754    -7658620.18849  -5957990.69746  22574484.350    22574494.274
  20639087.344   -17577145.93849 -13679358.37247  20639086.908    20639094.259
  23433148.893    -5497930.81949  -4278654.37845  23433148.589    23433159.180
  21754541.344   -17202240.53249 -13375509.16746  21754540.995    21754550.007
  22829391.783   -12113018.69449  -9422351.24145  22829391.291    22829403.087
  20595914.266   -18204372.78649 -14175752.71947  20595913.666    20595922.194
  21536763.264   -20945591.83349 -16308139.73047  21536762.909    21536770.617
 03  3 30  1 16  0.0000000  0  8G23G31G14G 9G 3G17G15G18
  22487683.661   -10211735.18549  -7936773.92446  22487683.071    22487692.201
  22568697.688    -7689031.91449  -5981688.10746  22568697.246    22568707.099
  20629795.215   -17625975.96449 -13717407.69047  20629794.790    20629802.222
  23433794.582    -5494536.56249  -4276009.46345  23433794.272    23433805.045
  21758345.878   -17182247.56749 -13359930.25146  21758345.541    21758354.596
  22844674.447   -12032707.43149  -9359771.12845  22844673.981    22844685.886
  20603291.644   -18165605.09449 -14145544.14547  20603290.998    20603299.467
  21546528.960   -20894274.15549 -16268151.93647  21546528.449    21546535.982
 03  3 30  1 16 30.0000000  0  8G23G31G14G 9G 3G17G15G18
  22498082.509   -10157089.22149  -7894192.65146  22498081.842    22498090.895
  22563017.575    -7718881.13049  -6004947.19146  22563017.138    22563026.946
  20620600.766   -17674293.05149 -13755057.32047  20620600.345    20620607.722
  23434551.461    -5490557.94249  -4272909.20545  23434551.208    23434562.012
  21762252.808   -17161716.04149 -13343931.68346  21762252.526    21762261.669
  22860012.777   -11952103.45149  -9296962.92445  22860012.363    22860024.430
  20610747.982   -18126422.35549 -14115012.15747  20610747.307    20610755.730
  21556320.760   -20842817.60649 -16228055.93747  21556320.350    21556327.811
 03  3 30  1 17  0.0000000  0  8G23G31G14G 9G 3G17G15G18
  22508490.311   -10102396.02149  -7851574.60246  22508489.667    22508498.667
  22557444.493    -7748166.99749  -6027767.29446  22557444.127    22557453.945
  20611504.091   -17722096.18049 -13792306.45947  20611503.673    20611511.019
  23435419.526    -5485994.05249  -4269352.89145  23435419.388    23435430.573
  21766262.164   -17140646.80849 -13327514.12246  21766261.910    21766271.038
  22875406.772   -11871207.06149  -9233926.87145  22875406.276    22875418.673
  20618283.247   -18086824.05149 -14084156.34747  20618282.580    20618291.057
  21566138.927   -20791222.73549 -16187852.15247  21566138.513    21566145.937
 03  3 30  1 17 30.0000000  0  8G23G31G14G 9G 3G17G15G18
  22518907.115   -10047656.31849  -7808920.35946  22518906.395    22518915.357
  22551978.933    -7776889.00849  -6050148.02546  22551978.550    22551988.254
  20602505.385   -17769384.55449 -13829154.49147  20602504.983    20602512.289
  23436399.170    -5480844.67449  -4265340.35945  23436399.039    23436410.403
  21770373.600   -17119041.25549 -13310678.64446  21770373.324    21770382.485
  22890856.098   -11790019.43349  -9170663.88845  22890855.600    22890868.358
  20625897.542   -18046810.28949 -14052976.80347  20625896.909    20625905.463
  21575983.338   -20739490.26449 -16147541.14947  21575982.898    21575990.269
 03  3 30  1 18  0.0000000  0  8G23G31G14G 9G 3G17G15G18
  22529332.349    -9992871.28649  -7766230.75446  22529331.619    22529340.648
  22546620.631    -7805047.12649  -6072089.37346  22546620.200    22546629.949
  20593604.692   -17816158.06749 -13865601.33247  20593604.275    20593611.517
  23437490.349    -5475110.09149  -4260871.82845  23437490.174    23437501.722
  21774586.692   -17096901.48449 -13293426.89846  21774586.408    21774595.571
  22906360.868   -11708541.89449  -9107174.99745  22906360.406    22906373.013
  20633590.811   -18006381.76249 -14021474.06547  20633590.173    20633598.772
  21585853.617   -20687621.90749 -16107124.26147  21585853.115    21585860.550
 03  3 30  1 18 30.0000000  0  8G23G31G14G 9G 3G17G15G18
  22539766.016    -9938041.38449  -7723506.18046  22539765.405    22539774.393
  22541369.716    -7832640.65849  -6093590.80146  22541369.265    22541378.989
  20584802.014   -17862416.06449 -13901646.46847  20584801.579    20584808.835
  23438692.930    -5468789.91349  -4255947.00645  23438692.701    23438704.365
  21778901.224   -17074228.67749 -13275759.80446  21778900.871    21778910.068
  22921920.945   -11626774.74749  -9043460.42645  22921920.385    22921932.622
  20641363.139   -17965538.35849 -13989648.04547  20641362.472    20641371.016
  21595749.386   -20635618.40849 -16066602.05447  21595749.004    21595756.594
 03  3 30  1 19  0.0000000  0  8G23G31G14G 9G 3G17G15G18
  22550208.241    -9883166.85849  -7680746.84346  22550207.636    22550216.699
  22536226.497    -7859668.88549  -6114651.70546  22536226.005    22536235.499
  20576097.583   -17908157.61249 -13937289.17647  20576097.174    20576104.388
  23440006.935    -5461883.50449  -4250565.37045  23440006.832    23440018.512
  21783316.885   -17051024.00849 -13257678.27046  21783316.583    21783325.837
  22937535.814   -11544718.74949  -8979520.78845  22937535.194    22937547.239
  20649214.474   -17924279.81249 -13957498.54047  20649213.766    20649222.259
  21605671.035   -20583480.28949 -16025974.96747  21605670.635    21605678.151
 03  3 30  1 19 30.0000000  0  8G23G31G14G 9G 3G17G15G18
  22560659.353    -9828246.98449  -7637952.17246  22560658.671    22560667.721
  22531191.175    -7886130.12449  -6135270.77346  22531190.661    22531199.898
  20567491.917   -17953380.68149 -13972527.87747  20567491.472    20567498.590
  23441432.786    -5454389.12249  -4244725.58445  23441432.824    23441444.571
  21787833.739   -17027287.52349 -13239182.33446  21787833.517    21787842.763
  22953205.540   -11462374.03449  -8915356.17745  22953204.967    22953216.878
  20657144.913   -17882605.21249 -13925024.83947  20657144.187    20657152.620
  21615618.285   -20531207.14749 -15985242.65447  21615617.879    21615625.434
 03  3 30  1 20  0.0000000  0  8G23G31G14G 9G 3G17G15G18
  22571118.841    -9773282.79949  -7595122.97246  22571118.080    22571127.219
  22526263.554    -7912024.21049  -6155447.93946  22526263.093    22526272.299
  20558984.906   -17998085.12849 -14007362.45947  20558984.491    20558991.532
  23442970.648    -5446307.13049  -4238427.92345  23442970.799    23442982.567
  21792451.450   -17003021.26949 -13220273.59346  21792451.200    21792460.454
  22968929.944   -11379742.01349  -8850967.71145  22968929.431    22968941.156
  20665154.458   -17840514.93849 -13892227.23447  20665153.742    20665162.173
  21625591.087   -20478800.24949 -15944406.12947  21625590.655    21625598.157
 03  3 30  1 20 30.0000000  0  8G23G31G14G 9G 3G17G15G18
  22581586.428    -9718274.32349  -7552259.25046  22581585.784    22581595.154
  22521444.022    -7937350.24949  -6175182.49446  22521443.569    22521452.976
  20550576.805   -18042269.76549 -14041791.99247  20550576.422    20550583.462
  23444620.658    -5437636.73349  -4231671.76445  23444620.767    23444632.375
  21797169.823   -16978226.27249 -13200952.83546  21797169.534    21797178.778
  22984709.043   -11296822.92849  -8786355.53745  22984708.437    22984720.154
  20673243.138   -17798008.47249 -13859105.32647  20673242.452    20673250.901
  21635589.266   -20426259.80749 -15903465.54146  21635588.834    21635596.288
 03  3 30  1 21  0.0000000  0  8G23G31G14G 9G 3G17G15G18
  22592062.303    -9663223.01449  -7509362.15946  22592061.661    22592071.178
  22516732.627    -7962108.86249  -6194474.89146  22516732.121    22516741.613
  20542267.556   -18085935.12949 -14075816.89447  20542267.144    20542274.249
  23446382.519    -5428378.63849  -4224457.65345  23446382.577    23446394.046
  21801988.324   -16952904.95549 -13181221.96646  21801988.008    21801997.260
  23000542.628   -11213618.88249  -8721521.32645  23000541.885    23000553.388
  20681410.817   -17755087.23149 -13825660.21647  20681410.148    20681418.580
  21645612.360   -20373587.75349 -15862422.41446  21645611.935    21645619.423
 03  3 30  1 21 30.0000000  0  8G23G31G14G 9G 3G17G15G18
  22602546.264    -9608129.13149  -7466431.87146  22602545.653    22602555.159
  22512129.294    -7986299.36249  -6213324.59546  22512128.778    22512138.260
  20534057.187   -18129080.33149 -14109436.47247  20534056.798    20534064.043
  23448256.549    -5418532.51549  -4216785.34145  23448256.470    23448267.583
  21806906.738   -16927058.56549 -13161081.94146  21806906.443    21806915.691
  23016430.423   -11130130.21849  -8656465.32345  23016429.616    23016440.737
  20689657.453   -17711751.07449 -13791891.79847  20689656.798    20689665.211
  21655660.314   -20320784.78749 -15821277.27246  21655659.949    21655667.463
 03  3 30  1 22  0.0000000  0  8G23G31G14G 9G 3G17G15G18
  22613038.313    -9552992.61649  -7423468.36746  22613037.770    22613047.227
  22507634.202    -8009920.61549  -6231730.72646  22507633.749    22507643.143
  20525946.075   -18171704.11349 -14142649.74647  20525945.694    20525953.049
  23450242.613    -5408097.47649  -4208654.13245  23450242.354    23450253.064
  21811924.827   -16900688.02249 -13140533.48646  21811924.549    21811933.861
  23032372.025   -11046357.32749  -8591187.85245  23032371.251    23032382.427
  20697983.236   -17667999.11749 -13757799.38147  20697982.545    20697990.971
  21665733.316   -20267850.88149 -15780030.10346  21665732.965    21665740.466
 03  3 30  1 22 30.0000000  0  8G23G31G14G 9G 3G17G15G18
  22623538.635    -9497812.88749  -7380471.18446  22623538.110    22623547.515
  22503247.853    -8032971.14249  -6249692.13146  22503247.406    22503256.677
  20517934.560   -18213804.68849 -14175455.33447  20517934.170    20517941.550
  23452340.954    -5397072.08349  -4200062.90145  23452340.503    23452350.937
  21817042.600   -16873793.57249 -13119576.79546  21817042.366    21817051.717
  23048367.542   -10962299.87249  -8525688.65645  23048366.748    23048378.234
  20706388.266   -17623830.40649 -13723382.22347  20706387.586    20706396.070
  21675831.421   -20214785.70649 -15738680.64046  21675830.955    21675838.484
 03  3 30  1 23  0.0000000  0  8G23G31G14G 9G 3G17G15G18
  22634047.138    -9442590.53049  -7337440.79546  22634046.626    22634055.882
  22498970.155    -8055450.76749  -6267208.68446  22498969.687    22498978.915
  20510022.669   -18255381.88249 -14207853.09447  20510022.277    20510029.556
  23454551.378    -5385456.65249  -4191011.89545  23454550.933    23454561.163
  21822259.820   -16846377.31549 -13098213.49846  21822259.594    21822268.810
  23064416.917   -10877959.02649  -8459968.64045  23064416.277    23064427.922
  20714872.466   -17579245.52949 -13688640.77747  20714871.803    20714880.332
  21685953.949   -20161590.20749 -15697229.62446  21685953.607    21685961.242
 03  3 30  1 23 30.0000000  0  8G23G31G14G 9G 3G17G15G18
  22644563.735    -9387325.71149  -7294377.32346  22644563.155    22644572.412
  22494801.103    -8077358.87249  -6284279.90546  22494800.664    22494809.905
  20502210.602   -18296434.78149 -14239842.31547  20502210.215    20502217.337
  23456873.909    -5373250.89849  -4181500.89345  23456873.514    23456883.706
  21827576.197   -16818440.36349 -13076444.45746  21827575.864    21827585.027
  23080520.027   -10793335.73449  -8394028.52445  23080519.539    23080531.334
  20723435.881   -17534244.31349 -13653574.90947  20723435.204    20723443.802
  21696101.427   -20108264.96849 -15655677.51046  21696101.052    21696108.748
 03  3 30  1 24  0.0000000  0  8G23G31G14G 9G 3G17G15G18
  22655088.116    -9332019.02749  -7251281.21746  22655087.629    22655096.952
  22490740.900    -8098695.38949  -6300905.73146  22490740.405    22490749.654
  20494498.318   -18336963.09949 -14271422.77147  20494497.884    20494504.929
  23459308.682    -5360454.71249  -4171529.82045  23459308.459    23459318.729
  21832991.307   -16789984.34449 -13054270.95446  21832990.975    21833000.107
  23096676.843   -10708430.87049  -8327869.00345  23096676.433    23096688.190
  20732078.463   -17488827.14149 -13618184.92047  20732077.821    20732086.439
  21706273.274   -20054811.01649 -15614025.09646  21706272.980    21706280.732
 03  3 30  1 24 30.0000000  0  8G23G31G14G 9G 3G17G15G18
  22665620.686    -9276670.91349  -7208152.84446  22665620.127    22665629.283
  22486789.479    -8119459.87549  -6317085.81046  22486789.000    22486798.311
  20486885.892   -18376966.38049 -14302594.10647  20486885.494    20486892.483
  23461855.591    -5347067.97349  -4161098.57845  23461855.646    23461866.173
  21838504.858   -16761010.86749 -13031694.23846  21838504.518    21838513.628
  23112887.389   -10623245.27149  -8261490.72745  23112886.911    23112898.528
  20740800.237   -17442993.83149 -13582470.66947  20740799.623    20740808.209
  21716469.860   -20001228.81949 -15572272.74746  21716469.471    21716477.078
 03  3 30  1 25  0.0000000  0  8G23G31G14G 9G 3G17G15G18
  22676160.863    -9221282.02049  -7164992.69046  22676160.281    22676169.359
  22482946.917    -8139652.26249  -6332820.10746  22482946.490    22482955.806
  20479373.433   -18416444.28849 -14333356.06147  20479373.035    20479380.036
  23464515.042    -5333090.76649  -4150207.25245  23464515.284    23464526.075
  21844116.439   -16731521.95249 -13008715.89246  21844116.113    21844125.245
  23129151.000   -10537780.39049  -8194894.82245  23129150.482    23129162.170
  20749601.164   -17396744.91849 -13546432.57347  20749600.520    20749609.046
  21726690.452   -19947519.45349 -15530421.29046  21726690.025    21726697.657
 03  3 30  1 25 30.0000000  0  8G23G31G14G 9G 3G17G15G18
  22686708.465    -9165852.44049  -7121800.83346  22686708.019    22686717.335
  22479213.317    -8159272.09749  -6348108.26546  22479212.914    22479222.229
  20471961.063   -18455396.07049 -14363708.05147  20471960.677    20471967.708
  23467287.001    -5318523.02449  -4138855.74945  23467287.346    23467298.284
  21849825.825   -16701518.68349 -12985336.74946  21849825.580    21849834.726
  23145467.499   -10452036.74449  -8128081.73345  23145466.887    23145478.968
  20758481.176   -17350080.42049 -13510070.65147  20758480.493    20758488.943
  21736935.098   -19893683.34949 -15488471.09446  21736934.713    21736942.498
 03  3 30  1 26  0.0000000  0  8G23G31G14G 9G 3G17G15G18
  22697264.073    -9110382.53849  -7078577.55946  22697263.541    22697273.049
  22475588.780    -8178318.98849  -6362949.94746  22475588.374    22475597.706
  20464648.972   -18493821.31249 -14393649.75047  20464648.589    20464655.552
  23470171.653    -5303364.46749  -4127043.86645  23470171.898    23470182.796
  21855632.784   -16671002.93149 -12961558.26446  21855632.521    21855641.672
  23161836.918   -10366015.37049  -8061052.21445  23161836.264    23161848.514
  20767440.224   -17303000.54049 -13473385.04847  20767439.511    20767447.877
  21747203.716   -19839721.24449 -15446422.71646  21747203.345    21747211.175
 03  3 30  1 26 30.0000000  0  8G23G31G14G 9G 3G17G15G18
  22707827.083    -9054873.70549  -7035323.94146  22707826.489    22707836.022
  22472073.154    -8196793.74149  -6377345.82046  22472072.738    22472082.113
  20457437.008   -18531720.49249 -14423181.52147  20457436.571    20457443.478
  23473168.806    -5287616.22749  -4114772.48245  23473168.833    23473179.601
  21861536.785   -16639977.21949 -12937382.41446  21861536.513    21861545.663
  23178259.065   -10279717.99349  -7993807.61945  23178258.276    23178270.617
  20776478.160   -17255506.21749 -13436376.50347  20776477.424    20776485.673
  21757496.111   -19785634.61449 -15404277.30346  21757495.769    21757503.523
 03  3 30  1 27  0.0000000  0  8G23G31G14G 9G 3G17G15G18
  22718397.633    -8999325.56049  -6992039.69346  22718397.051    22718406.471
  22468666.557    -8214695.31649  -6391295.08746  22468666.096    22468675.590
  20450325.290   -18569092.34949 -14452302.39947  20450324.885    20450331.768
  23476278.481    -5271277.58249  -4102041.05345  23476278.320    23476288.612
  21867537.720   -16608442.29149 -12912809.76446  21867537.429    21867546.552
  23194733.460   -10193145.32849  -7926348.50645  23194732.531    23194744.894
  20785595.065   -17207597.03449 -13399044.68647  20785594.302    20785602.477
  21767812.179   -19731423.41249 -15362034.82246  21767811.768    21767819.554
 03  3 30  1 27 30.0000000  0  8G23G31G14G 9G 3G17G15G18
  22728975.534    -8943737.96349  -6948724.70246  22728975.028    22728984.491
  22465369.156    -8232023.21749  -6404797.31846  22465368.758    22465378.186
  20443314.078   -18605936.14149 -14481011.79547  20443313.669    20443320.578
  23479500.367    -5254348.14349  -4088849.27345  23479499.960    23479510.133
  21873635.284   -16576399.58749 -12887841.44546  21873635.017    21873644.108
  23211260.050   -10106297.50949  -7858674.98545  23211259.140    23211271.554
  20794790.834   -17159272.75549 -13361389.41647  20794790.096    20794798.239
  21778151.673   -19677087.92749 -15319695.50246  21778151.360    21778159.250
 03  3 30  1 28  0.0000000  0  8G23G31G14G 9G 3G17G15G18
  22739561.162    -8888111.18449  -6905379.18846  22739560.570    22739569.962
  22462181.060    -8248776.99349  -6417852.15846  22462180.616    22462189.903
  20436403.400   -18642251.35149 -14509309.30947  20436403.023    20436410.062
  23482834.335    -5236828.08249  -4075197.25945  23482833.833    23482844.040
  21879829.158   -16543850.84649 -12862478.80546  21879828.889    21879838.058
  23227838.781   -10019175.63349  -7790787.90045  23227837.913    23227850.380
  20804065.589   -17110533.46749 -13323410.76247  20804064.885    20804073.077
  21788515.073   -19622628.49149 -15277259.59746  21788514.705    21788522.474
 03  3 30  1 28 30.0000000  0  8G23G31G14G 9G 3G17G15G18
  22750154.441    -8832444.79149  -6862002.80546  22750153.696    22750162.987
  22459102.263    -8264955.86649  -6430459.01846  22459101.818    22459111.045
  20429593.587   -18678036.86949 -14537194.07347  20429593.247    20429600.325
  23486280.748    -5218716.43749  -4061084.27845  23486280.087    23486290.500
  21886119.136   -16510796.84949 -12836722.46646  21886118.835    21886128.126
  23244469.547    -9931779.96649  -7722687.48545  23244468.789    23244481.321
  20813419.443   -17061378.73849 -13285108.39047  20813418.690    20813427.008
  21798901.970   -19568045.40949 -15234727.33546  21798901.525    21798909.246
 03  3 30  1 29  0.0000000  0  8G23G31G14G 9G 3G17G15G18
  22760754.658    -8776738.68549  -6818595.45946  22760754.148    22760763.601
  22456132.920    -8280559.23949  -6442617.45246  22456132.493    22456141.814
  20422884.805   -18713291.83349 -14564665.42447  20422884.431    20422891.472
  23489839.535    -5200013.09549  -4046510.23645  23489839.014    23489849.698
  21892504.966   -16477239.07049 -12810573.56846  21892504.694    21892514.049
  23261152.367    -9844110.66949  -7654373.85345  23261151.799    23261164.509
  20822852.456   -17011808.14849 -13246481.97247  20822851.720    20822860.143
  21809312.204   -19513338.71849 -15192098.75246  21809311.837    21809319.535
 03  3 30  1 29 30.0000000  0  8G23G31G14G 9G 3G17G15G18
  22771362.598    -8720994.27449  -6775158.29046  22771362.114    22771371.325
  22453272.988    -8295588.00449  -6454328.14746  22453272.523    22453281.977
  20416276.882   -18748016.98749 -14591723.93447  20416276.486    20416283.418
  23493510.790    -5180719.23949  -4031476.05645  23493510.311    23493521.177
  21898986.180   -16443180.21549 -12784034.21346  21898985.868    21898995.208
  23277887.164    -9756169.83549  -7585848.63045  23277886.534    23277899.238
  20832364.347   -16961823.19949 -13207532.67147  20832363.575    20832372.097
  21819745.756   -19458510.03549 -15149375.11446  21819745.424    21819753.124
 03  3 30  1 30  0.0000000  0  8G23G31G14G 9G 3G17G15G18
  22781978.006    -8665211.82349  -6731691.47646  22781977.235    22781986.352
  22450522.437    -8310042.28749  -6465591.19646  22450521.977    22450531.562
  20409769.735   -18782212.22249 -14618369.52947  20409769.341    20409776.182
  23497294.445    -5160835.17349  -4015981.96445  23497294.142    23497304.940
  21905562.381   -16408622.12049 -12757105.84546  21905562.075    21905571.431
  23294673.359    -9667959.03749  -7517113.03145  23294672.694    23294685.262
  20841954.971   -16911424.17849 -13168260.71947  20841954.175    20841962.782
  21830202.503   -19403560.14349 -15106557.03546  21830202.155    21830209.768
 03  3 30  1 30 30.0000000  0  8G23G31G14G 9G 3G17G15G18
  22792599.988    -8609391.96349  -6688195.51346  22792599.352    22792608.589
  22447881.212    -8323922.23849  -6476406.69946  22447880.736    22447890.222
  20403363.443   -18815877.48549 -14644602.15047  20403363.006    20403369.819
  23501190.334    -5140361.29049  -4000028.27145  23501190.154    23501201.055
  21912233.174   -16373566.75249 -12729789.99346  21912232.897    21912242.249
  23311510.765    -9579479.33049  -7448167.89945  23311510.027    23311522.220
  20851624.224   -16860611.56149 -13128666.48647  20851623.471    20851632.090
  21840682.061   -19348489.66049 -15063644.97546  21840681.701    21840689.391
 03  3 30  1 31  0.0000000  0  8G23G31G14G 9G 3G17G15G18
  22803229.376    -8553534.62849  -6644670.35546  22803228.723    22803238.016
  22445349.420    -8337227.66349  -6486774.51246  22445348.888    22445358.141
  20397057.985   -18849012.30749 -14670421.43647  20397057.561    20397064.387
  23505198.682    -5119297.51549  -3983614.90345  23505198.589    23505209.486
  21918998.362   -16338015.82549 -12702087.99046  21918998.054    21919007.370
  23328399.060    -9490731.55149  -7379013.88945  23328398.246    23328410.225
  20861372.138   -16809385.48649 -13088750.07547  20861371.403    20861380.063
  21851184.395   -19293299.24349 -15020639.47646  21851184.080    21851191.795
 03  3 30  1 31 30.0000000  0  8G23G31G14G 9G 3G17G15G18
  22813865.608    -8497640.32749  -6601116.37946  22813864.970    22813874.367
  22442926.890    -8349958.61849  -6496694.68046  22442926.306    22442935.377
  20390853.579   -18881616.35849 -14695827.13747  20390853.166    20390860.043
  23509319.171    -5097644.42549  -3966742.34745  23509319.207    23509330.040
  21925857.413   -16301971.10449 -12674001.21046  21925857.095    21925866.425
  23345338.294    -9401716.75649  -7309651.81945  23345337.389    23345349.039
  20871198.647   -16757746.25549 -13048511.72547  20871197.970    20871206.573
  21861709.652   -19237989.65749 -14977541.12146  21861709.204    21861716.829
 03  3 30  1 32  0.0000000  0  8G23G31G14G 9G 3G17G15G18
  22824508.950    -8441708.37149  -6557533.06246  22824508.451    22824517.896
  22440613.539    -8362114.11849  -6506166.47046  22440613.057    22440622.140
  20384750.422   -18913688.62149 -14720818.45547  20384750.001    20384756.882
  23513551.871    -5075401.33649  -3949410.04945  23513552.047    23513562.940
  21932810.159   -16265433.69849 -12645530.52046  21932809.872    21932819.191
  23362328.084    -9312435.07949  -7240081.79645  23362327.098    23362338.814
  20881103.986   -16705693.28149 -13007950.97947  20881103.333    20881111.853
  21872257.348   -19182560.40049 -14934349.50246  21872257.002    21872264.689
 03  3 30  1 32 30.0000000  0  8G23G31G14G 9G 3G17G15G18
  22835159.777    -8385738.19449  -6513919.98346  22835159.218    22835168.605
  22438409.885    -8373693.39449  -6515189.25946  22438409.413    22438418.632
  20378748.677   -18945228.06749 -14745394.59847  20378748.226    20378755.078
  23517896.850    -5052567.71049  -3931617.60145  23517897.069    23517908.184
  21939856.474   -16228404.70549 -12616676.77346  21939856.223    21939865.507
  23379368.314    -9222886.69949  -7170303.95745  23379367.521    23379379.558
  20891088.212   -16653225.98049 -12967067.38547  20891087.571    20891095.950
  21882828.105   -19127011.19949 -14891064.43946  21882827.733    21882835.426
 03  3 30  1 33  0.0000000  0  8G23G31G14G 9G 3G17G15G18
  22845817.619    -8329730.20249  -6470277.41846  22845817.180    22845826.453
  22436316.040    -8384696.79449  -6523763.29146  22436315.562    22436324.770
  20372848.274   -18976234.65549 -14769555.52647  20372847.841    20372854.631
  23522353.871    -5029144.11849  -3913365.42745  23522354.334    23522365.606
  21946996.087   -16190886.16849 -12587441.56046  21946995.821    21947005.042
  23396458.765    -9133073.19449  -7100319.50045  23396458.259    23396470.789
  20901151.251   -16600344.87549 -12925861.34647  20901150.614    20901158.864
  21893421.539   -19071343.01049 -14847686.65246  21893421.090    21893428.764
 03  3 30  1 33 30.0000000  0  8G23G31G14G 9G 3G17G15G18
  22856482.751    -8273685.37249  -6426606.16946  22856482.256    22856491.368
  22434331.671    -8395125.18649  -6531889.26946  22434331.166    22434340.367
  20367049.126   -19006709.03449 -14793301.74847  20367048.736    20367055.477
  23526922.956    -5005131.53049  -3894654.28945  23526923.490    23526935.058
  21954228.338   -16152880.69349 -12557826.91246  21954228.074    21954237.245
  23413599.726    -9042996.24949  -7030129.78145  23413599.083    23413611.885
  20911292.712   -16547051.35649 -12884333.95047  20911292.044    20911300.237
  21904037.242   -19015556.83049 -14804216.91846  21904036.861    21904044.482
 03  3 30  1 34  0.0000000  0  8G23G31G14G 9G 3G17G15G18
  22867154.994    -8217604.47549  -6382906.81146  22867154.248    22867163.351
  22432456.541    -8404978.93249  -6539567.47346  22432456.064    22432465.262
  20361351.203   -19036651.57049 -14816633.54747  20361350.820    20361357.544
  23531603.986    -4980530.87049  -3875484.93145  23531604.789    23531616.290
  21961552.752   -16114390.46249 -12527834.53646  21961552.513    21961561.742
  23430790.771    -8952657.23249  -6959735.85345  23430790.131    23430803.052
  20921512.485   -16493346.22349 -12842485.81447  20921511.819    20921519.966
  21914675.319   -18959653.66849 -14760656.03046  21914674.936    21914682.518
 03  3 30  1 34 30.0000000  0  8G23G31G14G 9G 3G17G15G18
  22877833.451    -8161487.78849  -6339179.54446  22877832.856    22877842.166
  22430690.564    -8414258.35549  -6546798.16446  22430690.107    22430699.426
  20355754.603   -19066061.94649 -14839550.67747  20355754.195    20355760.945
  23536397.209    -4955342.58049  -3855857.68445  23536397.941    23536409.316
  21968969.118   -16075417.62449 -12497466.10246  21968968.829    21968978.109
  23448031.633    -8862057.43849  -6889138.70345  23448031.035    23448043.800
  20931810.525   -16439229.84649 -12800317.23347  20931809.850    20931817.987
  21925335.471   -18903634.32549 -14717004.62246  21925335.116    21925342.672
 03  3 30  1 35  0.0000000  0  8G23G31G14G 9G 3G17G15G18
  22888518.759    -8105335.62149  -6295424.63546  22888518.248    22888527.693
  22429033.944    -8422963.68449  -6553581.50746  22429033.483    22429042.833
  20350259.213   -19094940.32549 -14862053.25547  20350258.809    20350265.623
  23541302.171    -4929567.33149  -3835773.05945  23541302.855    23541313.874
  21976476.832   -16035964.48549 -12466723.41346  21976476.502    21976485.842
  23465322.051    -8771198.09149  -6818339.29545  23465321.306    23465333.765
  20942186.665   -16384702.68849 -12757828.55747  20942185.996    20942194.190
  21936017.652   -18847499.48049 -14673263.22046  21936017.262    21936024.625
 03  3 30  1 35 30.0000000  0  8G23G31G14G 9G 3G17G15G18
  22899211.117    -8049148.12449  -6251642.19546  22899210.476    22899219.852
  22427486.549    -8431095.09849  -6559917.63746  22427486.144    22427495.408
  20344865.054   -19123286.47549 -14884141.11547  20344864.673    20344871.433
  23546318.902    -4903205.46249  -3815231.31845  23546319.342    23546330.149
  21984075.548   -15996032.67049 -12435607.73046  21984075.222    21984084.622
  23482661.419    -8680080.13249  -6747338.38645  23482660.692    23482673.157
  20952640.844   -16329765.09549 -12715020.05847  20952640.199    20952648.571
  21946721.515   -18791249.50449 -14629432.07946  21946721.151    21946728.666
 03  3 30  1 36  0.0000000  0  8G23G31G14G 9G 3G17G15G18
  22909910.035    -7992924.65449  -6207831.72746  22909909.400    22909918.851
  22426048.522    -8438651.99749  -6565806.09446  22426048.130    22426057.339
  20339572.338   -19151099.61949 -14905813.65347  20339571.987    20339578.598
  23551447.128    -4876256.73349  -3794232.29945  23551447.542    23551458.216
  21991765.074   -15955623.56749 -12404120.13546  21991764.778    21991774.251
  23500049.970    -8588703.95149  -6676136.27445  23500049.154    23500061.754
  20963173.223   -16274416.59149 -12671891.37147  20963172.588    20963181.170
  21957447.490   -18734884.13149 -14585511.04146  21957447.086    21957454.799
 03  3 30  1 36 30.0000000  0  8G23G31G14G 9G 3G17G15G18
  22920615.930    -7936664.71049  -6163992.82346  22920615.368    22920624.731
  22424719.934    -8445633.94549  -6571246.54346  22424719.490    22424728.691
  20334381.308   -19178378.92249 -14927070.21047  20334380.911    20334387.414
  23556686.714    -4848721.12049  -3772775.95445  23556687.205    23556697.955
  21999545.127   -15914738.53149 -12372261.67946  21999544.902    21999554.421
  23517487.284    -8497070.20049  -6604733.44845  23517486.493    23517499.443
  20973783.948   -16218657.05949 -12628442.40147  20973783.302    20973792.034
  21968195.406   -18678403.26449 -14541499.99646  21968194.965    21968202.739
 03  3 30  1 37  0.0000000  0  8G23G31G14G 9G 3G17G15G18
  22931328.994    -7880368.43549  -6120125.63546  22931328.302    22931337.572
  22423500.706    -8452041.15449  -6576239.14346  22423500.214    22423509.403
  20329291.772   -19205124.51649 -14947910.88947  20329291.355    20329297.833
  23562038.161    -4820598.98149  -3750862.59345  23562038.700    23562049.331
  22007415.472   -15873379.51749 -12340033.88646  22007415.263    22007424.734
  23534973.402    -8405179.90149  -6533130.74545  23534972.657    23534985.855
  20984472.850   -16162486.80749 -12584673.39047  20984472.182    20984480.999
  21978965.221   -18621807.37349 -14497399.33046  21978964.819    21978972.406
 03  3 30  1 37 30.0000000  0  8G23G31G14G 9G 3G17G15G18
  22942048.590    -7824036.67349  -6076230.77646  22942047.891    22942057.274
  22422390.549    -8457874.50649  -6580784.58746  22422390.052    22422399.249
  20324303.681   -19231336.81149 -14968336.00547  20324303.258    20324309.789
  23567501.048    -4791891.42349  -3728493.06445  23567501.488    23567512.130
  22015375.596   -15831549.02249 -12307438.71646  22015375.353    22015384.816
  23552507.888    -8313034.87849  -6461329.55645  23552507.219    23552520.572
  20995239.747   -16105906.76649 -12540585.07047  20995239.058    20995247.868
  21989756.846   -18565097.47549 -14453209.81446  21989756.369    21989763.897
 03  3 30  1 38  0.0000000  0  8G23G31G14G 9G 3G17G15G18
  22952774.816    -7767669.60649  -6032308.40346  22952774.175    22952783.793
  22421389.672    -8463134.14149  -6584882.97346  22421389.165    22421398.285
  20319417.077   -19257015.83249 -14988345.58947  20319416.661    20319423.185
  23573075.468    -4762599.29049  -3705668.03345  23573075.888    23573086.443
  22023425.075   -15789248.85549 -12274477.56246  22023424.840    22023434.295
  23570090.706    -8220636.06449  -6389330.60645  23570090.046    23570103.455
  21006084.552   -16048917.41349 -12496177.80247  21006083.851    21006092.578
  22000569.870   -18508274.14349 -14408931.92746  22000569.492    22000577.135
 03  3 30  1 38 30.0000000  0  8G23G31G14G 9G 3G17G15G18
  22963507.728    -7711267.32849  -5988358.60246  22963507.065    22963516.957
  22420497.996    -8467820.47349  -6588534.62846  22420497.433    22420506.513
  20314632.032   -19282161.48749 -15007939.55747  20314631.573    20314638.114
  23578761.024    -4732723.07249  -3682387.86045  23578761.213    23578771.507
  22031563.488   -15746481.45049 -12241152.31546  22031563.296    22031572.643
  23587721.586    -8127984.69549  -6317134.84145  23587720.951    23587734.295
  21017007.247   -15991518.98149 -12451451.77247  21017006.509    21017015.168
  22011404.681   -18451337.71149 -14364565.88246  22011404.232    22011411.868
 03  3 30  1 39  0.0000000  0  8G23G31G14G 9G 3G17G15G18
  22974247.380    -7654830.52049  -5944381.89146  22974246.670    22974256.576
  22419715.144    -8471934.35049  -6591740.20846  22419714.634    22419723.698
  20309948.236   -19306774.44249 -15027118.43947  20309947.816    20309954.427
  23584557.605    -4702263.67249  -3658653.26345  23584557.729    23584567.760
  22039790.361   -15703249.30649 -12207464.94646  22039790.101    22039799.429
  23605400.533    -8035082.22949  -6244743.41345  23605399.781    23605412.903
  21028007.564   -15933712.44349 -12406407.73947  21028006.814    21028015.378
  22022260.529   -18394289.25649 -14320112.56046  22022260.116    22022267.886
 03  3 30  1 39 30.0000000  0  8G23G31G14G 9G 3G17G15G18
  22984993.681    -7598358.93649  -5900378.09646  22984992.950    22985002.663
  22419041.137    -8475476.02349  -6594499.93046  22419040.661    22419049.722
  20305365.896   -19330854.41849 -15045882.01147  20305365.478    20305372.122
  23590464.934    -4671221.70749  -3634464.71245  23590464.941    23590475.018
  22048105.236   -15659554.44849 -12173417.02246  22048104.974    22048114.339
  23623127.249    -7941929.93049  -6172157.30945  23623126.369    23623139.127
  21039085.321   -15875498.44649 -12361046.21047  21039084.585    21039093.049
  22033137.877   -18337129.08049 -14275572.18346  22033137.426    22033145.129
 03  3 30  1 40  0.0000000  0  8G23G31G14G 9G 3G17G15G18
  22995746.504    -7541852.50149  -5856347.12946  22995745.846    22995755.363
  22418476.000    -8478445.51249  -6596813.79846  22418475.543    22418484.681
  20300885.023   -19354401.49949 -15064230.34747  20300884.610    20300891.217
  23596482.821    -4639597.41149  -3609822.38745  23596482.635    23596493.193
  22056507.866   -15615398.59549 -12139009.87946  22056507.597    22056516.952
  23640901.343    -7848528.54449  -6099377.10645  23640900.425    23640912.707
  21050240.499   -15816877.16949 -12315367.31747  21050239.832    21050248.253
  22044036.381   -18279857.41749 -14230944.92346  22044035.872    22044043.583
 03  3 30  1 40 30.0000000  0  8G23G31G14G 9G 3G17G15G18
  23006506.067    -7485310.80249  -5812288.68346  23006505.398    23006514.839
  22418019.719    -8480842.73949  -6598681.74846  22418019.298    22418028.485
  20296505.643   -19377415.26449 -15082163.11447  20296505.212    20296511.768
  23602611.346    -4607391.11049  -3584726.56245  23602611.292    23602621.924
  22064997.967   -15570783.32249 -12104244.74946  22064997.640    22065006.971
  23658722.485    -7754878.79749  -6026403.39145  23658721.338    23658733.622
  21061473.233   -15757848.54149 -12269371.01047  21061472.576    21061481.020
  22054955.694   -18222474.18749 -14186230.71746  22054955.432    22054963.079
 03  3 30  1 41  0.0000000  0  8G23G31G14G 9G 3G17G15G18
  23017272.520    -7428734.01649  -5768202.91346  23017271.764    23017280.924
  22417672.410    -8482668.04249  -6600104.03546  22417671.929    22417681.091
  20292227.732   -19399895.58149 -15099680.20447  20292227.313    20292233.843
  23608850.765    -4574603.50449  -3559177.78245  23608850.693    23608861.194
  22073574.950   -15525710.79949 -12069123.32546  22073574.632    22073584.015
  23676590.288    -7660981.92549  -5953237.11045  23676589.169    23676601.723
  21072783.347   -15698413.10149 -12223057.69947  21072782.706    21072791.250
  22065896.787   -18164979.46249 -14141429.65846  22065896.408    22065903.696
 03  3 30  1 41 30.0000000  0  8G23G31G14G 9G 3G17G15G18
  23028045.795    -7372121.11549  -5724088.99346  23028044.986    23028053.870
  22417433.988    -8483920.83249  -6601080.20246  22417433.474    22417442.656
  20288051.410   -19421841.66349 -15116781.00947  20288051.005    20288057.572
  23615200.522    -4541234.46349  -3533175.94145  23615200.438    23615211.148
  22082238.734   -15480181.95649 -12033646.32446  22082238.455    22082247.877
  23694504.955    -7566838.03148  -5879878.35945  23694504.046    23694516.877
  21084170.934   -15638570.55249 -12176427.16247  21084170.303    21084178.987
  22076859.003   -18107372.95849 -14096541.48946  22076858.598    22076865.860
 03  3 30  1 42  0.0000000  0  8G23G31G14G 9G 3G17G15G18
  23038825.280    -7315474.62849  -5679948.90946  23038824.524    23038833.479
  22417303.971    -8484604.09249  -6601612.58246  22417303.444    22417312.651
  20283976.382   -19443256.00449 -15133467.46947  20283975.976    20283982.570
  23621660.217    -4507287.06949  -3506723.41045  23621660.095    23621671.112
  22090988.570   -15434201.52449 -11997817.43146  22090988.287    22090997.693
  23712466.205    -7472450.40949  -5806329.68545  23712465.381    23712478.404
  21095635.532   -15578323.59449 -12129481.50447  21095634.866    21095643.688
  22087842.067   -18049657.25649 -14051568.24046  22087841.616    22087848.971
 03  3 30  1 42 30.0000000  0  8G23G31G14G 9G 3G17G15G18
  23049611.280    -7258793.73749  -5635782.01546  23049610.487    23049619.618
  22417282.389    -8484717.20549  -6601700.70446  22417281.859    22417291.137
  20280002.715   -19464137.68649 -15149738.87447  20280002.307    20280008.887
  23628229.997    -4472761.13749  -3479820.08745  23628230.137    23628241.117
  22099824.059   -15387770.58749 -11961637.50346  22099823.771    22099833.209
  23730474.081    -7377819.49548  -5732591.43244  23730473.105    23730486.094
  21107177.198   -15517671.62349 -12082220.25747  21107176.476    21107185.458
  22098845.830   -17991831.99449 -14006509.60446  22098845.368    22098852.889
 03  3 30  1 43  0.0000000  0  8G23G31G14G 9G 3G17G15G18
  23060403.551    -7202078.06449  -5591588.01346  23060402.876    23060412.261
  22417369.204    -8484260.41249  -6601344.75246  22417368.659    22417378.016
  20276130.487   -19484486.47849 -15165595.03947  20276130.087    20276136.581
  23634909.832    -4437657.13649  -3452466.32045  23634910.182    23634921.156
  22108744.913   -15340891.00249 -11925107.98046  22108744.635    22108754.100
  23748528.150    -7282946.13148  -5658664.25444  23748527.136    23748539.831
  21118795.853   -15456615.02849 -12034643.71547  21118795.142    21118804.182
  22109870.164   -17933897.01149 -13961365.46746  22109869.886    22109877.620
 03  3 30  1 43 30.0000000  0  8G23G31G14G 9G 3G17G15G18
  23071202.438    -7145327.48149  -5547366.80046  23071202.010    23071211.730
  22417564.454    -8483233.99749  -6600544.93646  22417563.984    22417573.271
  20272359.574   -19504302.79949 -15181036.29347  20272359.128    20272365.591
  23641699.952    -4401975.57449  -3424662.49945  23641700.103    23641711.060
  22117750.792   -15293564.98049 -11888230.58246  22117750.490    22117759.935
  23766627.806    -7187831.64448  -5584549.16244  23766626.776    23766639.496
  21130491.432   -15395154.31349 -11986752.28247  21130490.716    21130499.765
  22120915.992   -17875852.84649 -13916136.28446  22120915.449    22120923.180
 03  3 30  1 44  0.0000000  0  8G23G31G14G 9G 3G17G15G18
  23082008.205    -7088542.85049  -5503119.06646  23082007.749    23082017.725
  22417867.880    -8481639.57049  -6599302.49446  22417867.433    22417876.637
  20268689.751   -19523587.48949 -15196063.28847  20268689.339    20268695.812
  23648599.690    -4365718.50949  -3396410.24245  23648599.555    23648610.377
  22126841.122   -15245795.31549 -11851007.47846  22126840.807    22126850.188
  23784773.426    -7092477.72649  -5510247.49444  23784772.444    23784784.538
  21142263.645   -15333290.88749 -11938547.04747  21142263.016    21142271.984
  22131982.062   -17817700.38749 -13870822.70046  22131981.498    22131989.309
 03  3 30  1 44 30.0000000  0  8G23G31G14G 9G 3G17G15G18
  23092820.488    -7031724.88649  -5458845.37046  23092819.953    23092829.887
  22418279.278    -8479478.23149  -6597618.32146  22418278.779    22418287.905
  20265120.902   -19542341.48749 -15210676.75447  20265120.499    20265127.016
  23655608.752    -4328887.42349  -3367710.68245  23655608.462    23655619.095
  22136015.261   -15197585.23049 -11813441.20146  22136014.906    22136024.298
  23802964.204    -6996886.47649  -5435760.87844  23802963.072    23802975.075
  21154112.246   -15271026.02149 -11890029.00047  21154111.643    21154120.571
  22143068.337   -17759440.78849 -13825425.63546  22143067.953    22143075.797
 03  3 30  1 45  0.0000000  0  8G23G31G14G 9G 3G17G15G18
  23103639.476    -6974872.42449  -5414544.78446  23103638.833    23103648.454
  22418798.478    -8476749.31849  -6595491.88146  22418798.009    22418807.189
  20261653.294   -19560563.68749 -15224875.83647  20261652.900    20261659.416
  23662727.027    -4291481.77449  -3338563.42945  23662726.576    23662737.153
  22145272.991   -15148935.46949 -11775532.31646  22145272.637    22145282.080
  23821199.661    -6901057.84949  -5361089.31644  23821198.757    23821210.956
  21166037.418   -15208358.74549 -11841197.38547  21166036.857    21166045.769
  22154175.484   -17701073.07449 -13779944.32746  22154174.974    22154182.912
 03  3 30  1 45 30.0000000  0  8G23G31G14G 9G 3G17G15G18
  23114466.338    -6917979.34249  -5370212.56046  23114465.409    23114474.823
  22419426.880    -8473447.44049  -6592918.98246  22419426.444    22419435.526
  20258287.990   -19578248.37149 -15238656.07947  20258287.599    20258294.071
  23669955.236    -4253496.52649  -3308964.54245  23669954.921    23669965.405
  22154615.078   -15099842.19749 -11737277.84146  22154614.809    22154624.301
  23839481.051    -6804987.01748  -5286229.03544  23839480.241    23839492.934
  21178040.234   -15145283.63349 -11792047.97847  21178039.668    21178048.606
  22165303.830   -17642592.00349 -13734374.67546  22165303.470    22165311.404
 03  3 30  1 46  0.0000000  0  8G23G31G14G 9G 3G17G15G18
  23125298.887    -6861053.49249  -5325854.78945  23125298.019    23125307.428
  22420162.617    -8469581.20749  -6589906.31246  22420162.165    22420171.200
  20255023.477   -19595403.74849 -15252023.87147  20255023.049    20255029.482
  23677292.001    -4214940.51149  -3278920.89045  23677291.733    23677302.412
  22164039.697   -15050315.68549 -11698685.77246  22164039.455    22164048.867
  23857806.926    -6708683.23649  -5211187.21645  23857806.115    23857819.580
  21190118.953   -15081809.37849 -11742587.55847  21190118.386    21190127.388
  22176452.589   -17584005.41449 -13688722.81146  22176452.171    22176459.992
 03  3 30  1 46 30.0000000  0  8G23G31G14G 9G 3G17G15G18
  23136137.300    -6804094.64549  -5281471.29645  23136136.806    23136146.286
  22421005.595    -8465150.98349  -6586454.17646  22421005.142    22421014.226
  20251859.642   -19612029.75449 -15264979.16947  20251859.210    20251865.634
  23684737.188    -4175814.37949  -3248432.99245  23684737.127    23684748.114
  22173546.462   -15000357.78749 -11659757.56246  22173546.183    22173555.530
  23876177.186    -6612147.17649  -5135964.39345  23876176.337    23876189.897
  21202273.559   -15017936.37749 -11692816.43147  21202272.972    21202282.036
  22187621.354   -17525313.35549 -13642988.76446  22187620.920    22187628.719
 03  3 30  1 47  0.0000000  0  8G23G31G14G 9G 3G17G15G18
  23146982.598    -6747102.43149  -5237061.81345  23146982.128    23146991.432
  22421955.794    -8460157.00249  -6582562.74746  22421955.393    22421964.554
  20248796.525   -19628126.45249 -15277522.01547  20248796.100    20248802.544
  23692290.938    -4136118.83949  -3217501.41045  23692290.968    23692302.101
  22183134.927   -14949970.24449 -11620494.56146  22183134.635    22183143.977
  23894591.447    -6515380.04749  -5060561.51245  23894590.768    23894604.139
  21214504.033   -14953664.87149 -11642734.77447  21214503.475    21214512.571
  22198810.042   -17466515.89449 -13597172.59146  22198809.704    22198817.469
 03  3 30  1 47 30.0000000  0  8G23G31G14G 9G 3G17G15G18
  23157834.522    -6690076.84549  -5192626.34345  23157833.815    23157843.020
  22423013.292    -8454600.05249  -6578232.64546  22423012.841    22423022.027
  20245834.077   -19643694.21549 -15289652.71147  20245833.661    20245840.067
  23699953.020    -4095855.00149  -3186126.97545  23699953.153    23699964.264
  22192804.600   -14899155.63249 -11580898.78046  22192804.371    22192813.674
  23913049.527    -6418383.00049  -4984979.46645  23913048.921    23913062.204
  21226810.414   -14888995.36149 -11592342.98347  21226809.815    21226818.809
  22210018.732   -17407613.49549 -13551274.63746  22210018.375    22210026.105
 03  3 30  1 48  0.0000000  0  8G23G31G14G 9G 3G17G15G18
  23168692.559    -6633017.72049  -5148164.71945  23168691.898    23168701.095
  22424177.776    -8448480.70349  -6573464.30646  22424177.315    22424186.488
  20242972.244   -19658733.23649 -15301371.40147  20242971.812    20242978.147
  23707723.273    -4055023.76449  -3154310.42745  23707723.364    23707734.376
  22202555.239   -14847916.11349 -11540971.90646  22202554.981    22202564.174
  23931551.262    -6321157.09949  -4909219.12045  23931550.681    23931563.688
  21239192.437   -14823928.57649 -11541641.62647  21239191.793    21239200.623
  22221247.485   -17348605.99949 -13505294.79346  22221247.190    22221254.952
 03  3 30  1 48 30.0000000  0  8G23G31G14G 9G 3G17G15G18
  23179556.953    -6575924.93549  -5103676.85845  23179556.297    23179565.580
  22425449.145    -8441799.62749  -6568258.25346  22425448.665    22425457.857
  20240210.896   -19673243.85149 -15312678.34547  20240210.504    20240216.799
  23715601.149    -4013625.91649  -3122052.34845  23715601.211    23715612.307
  22212386.351   -14796253.68049 -11500715.48346  22212385.986    22212395.167
  23950096.233    -6223703.34349  -4833281.23245  23950095.574    23950108.566
  21251649.890   -14758465.04249 -11490631.10647  21251649.200    21251657.918
  22232496.499   -17289493.53849 -13459233.16846  22232496.063    22232503.775
 03  3 30  1 49  0.0000000  0  8G23G31G14G 9G 3G17G15G18
  23190427.940    -6518797.60749  -5059162.08945  23190427.211    23190436.473
  22426827.372    -8434556.84549  -6562614.50546  22426826.911    22426836.096
  20237550.253   -19687225.60549 -15323573.19047  20237549.866    20237556.131
  23723586.657    -3971661.80849  -3089353.03845  23723586.623    23723597.849
  22222297.422   -14744170.21049 -11460130.98146  22222297.114    22222306.351
  23968684.388    -6126022.65448  -4757166.49945  23968683.605    23968696.402
  21264182.708   -14692604.78549 -11439311.45747  21264182.023    21264190.728
  22243765.187   -17230275.94949 -13413089.60946  22243764.812    22243772.474
 03  3 30  1 49 30.0000000  0  8G23G31G14G 9G 3G17G15G18
  23201305.345    -6461635.65549  -5014620.33745  23201304.801    23201314.144
  22428312.419    -8426753.00349  -6556533.56946  22428311.953    22428321.071
  20234990.165   -19700678.67749 -15334056.07447  20234989.778    20234996.054
  23731679.532    -3929132.36249  -3056213.20445  23731679.610    23731691.024
  22232288.310   -14691667.93649 -11419220.13846  22232288.007    22232297.276
  23987315.652    -6028115.85548  -4680875.58145  23987315.027    23987327.516
  21276790.898   -14626348.19549 -11387682.97947  21276790.255    21276799.028
  22255053.896   -17170953.33249 -13366864.21046  22255053.607    22255061.258
 03  3 30  1 50  0.0000000  0  8G23G31G14G 9G 3G17G15G18
  23212189.298    -6404439.13749  -4970051.64945  23212188.906    23212198.276
  22429904.050    -8418389.12449  -6550016.24846  22429903.541    22429912.592
  20232530.572   -19713603.85149 -15344127.60547  20232530.151    20232536.457
  23739879.965    -3886039.04149  -3022633.99245  23739879.964    23739891.442
  22242358.462   -14638749.22949 -11377984.79446  22242358.116    22242367.400
  24005989.332    -5929984.78948  -4604409.91744  24005988.440    24006001.213
  21289474.356   -14559696.18849 -11335746.38447  21289473.724    21289482.586
  22266362.813   -17111526.10049 -13320557.31246  22266362.368    22266370.070
 03  3 30  1 50 30.0000000  0  8G23G31G14G 9G 3G17G15G18
  23223079.905    -6347208.35449  -4925456.26745  23223079.487    23223088.808
  22431602.008    -8409466.38449  -6543063.44846  22431601.505    22431610.483
  20230171.239   -19726001.85749 -15353788.36147  20230170.814    20230177.191
  23748187.623    -3842383.25449  -2988616.49545  23748187.391    23748198.776
  22252507.338   -14585416.68449 -11336426.98546  22252506.960    22252516.320
  24024705.560    -5831630.71248  -4527770.47044  24024704.932    24024717.532
  21302232.868   -14492649.71949 -11283502.41847  21302232.251    21302241.155
  22277691.068   -17051994.78849 -13274169.28246  22277690.686    22277698.619
 03  3 30  1 51  0.0000000  0  8G23G31G14G 9G 3G17G15G18
  23233977.109    -6289943.37749  -4880834.24945  23233976.563    23233985.797
  22433406.093    -8399985.78049  -6535675.95446  22433405.557    22433414.649
  20227912.173   -19737873.23449 -15363038.75747  20227911.748    20227918.136
  23756602.058    -3798166.38249  -2954161.79245  23756601.637    23756613.037
  22262734.364   -14531673.00749 -11294548.82646  22262734.030    22262743.434
  24043464.142    -5733055.40749  -4450958.62644  24043463.516    24043475.872
  21315066.330   -14425209.62449 -11230951.72947  21315065.727    21315074.614
  22289039.203   -16992359.75249 -13227700.44446  22289038.889    22289046.799
 03  3 30  1 51 30.0000000  0  8G23G31G14G 9G 3G17G15G18
  23244880.874    -6232644.10349  -4836185.49845  23244880.304    23244889.381
  22435316.181    -8389948.13749  -6527854.40846  22435315.624    22435324.789
  20225753.232   -19749218.56549 -15371879.24247  20225752.822    20225759.182
  23765123.072    -3753389.63649  -2919270.80145  23765122.448    23765133.736
  22273039.332   -14477520.38249 -11252352.00346  22273038.996    22273048.430
  24062264.688    -5634259.67148  -4373975.01144  24062263.812    24062276.575
  21327974.508   -14357376.82249 -11178095.02546  21327973.891    21327982.734
  22300407.314   -16932621.39749 -13181151.09846  22300406.780    22300414.781
 03  3 30  1 52  0.0000000  0  8G23G31G14G 9G 3G17G15G18
  23255791.398    -6175310.42449  -4791509.94145  23255790.641    23255799.557
  22437332.102    -8379354.36849  -6519599.52146  22437331.539    22437340.736
  20223694.286   -19760038.20449 -15380310.10347  20223693.868    20223700.226
  23773750.283    -3708054.09949  -2883944.41245  23773749.576    23773760.647
  22283421.682   -14422961.40149 -11209838.53146  22283421.308    22283430.700
  24081106.616    -5535244.97249  -4296820.81044  24081105.647    24081118.698
  21340957.173   -14289152.10849 -11124932.94046  21340956.593    21340965.389
  22311794.600   -16872780.11449 -13134521.53846  22311794.187    22311802.316
 03  3 30  1 52 30.0000000  0  8G23G31G14G 9G 3G17G15G18
  23266708.529    -6117942.03449  -4746807.34645  23266707.643    23266716.414
  22439453.560    -8368205.32549  -6510911.94246  22439453.060    22439462.311
  20221735.328   -19770332.57849 -15388331.66447  20221734.934    20221741.260
  23782483.548    -3662160.86449  -2848183.44445  23782482.630    23782493.695
  22293880.854   -14367998.13349 -11167010.04246  22293880.478    22293889.809
  24099989.813    -5436012.38248  -4219496.79544  24099988.984    24100002.373
  21354014.371   -14220535.87249 -11071465.77646  21354013.774    21354022.630
  22323201.578   -16812835.68049 -13087811.61546  22323201.170    22323209.225
 03  3 30  1 53  0.0000000  0  8G23G31G14G 9G 3G17G15G18
  23277632.124    -6060538.48149  -4702077.33345  23277631.361    23277640.042
  22441680.701    -8356501.64049  -6501792.18446  22441680.218    22441689.383
  20219876.280   -19780101.85249 -15395944.05247  20219875.852    20219882.168
  23791322.764    -3615710.93449  -2811988.70145  23791321.681    23791332.819
  22304416.453   -14312632.72249 -11123868.18746  22304416.174    22304425.476
  24118914.128    -5336563.46448  -4142004.21044  24118913.414    24118926.948
  21367145.903   -14151528.64249 -11017693.93446  21367145.373    21367154.317
  22334628.255   -16752787.86149 -13041021.12446  22334627.869    22334635.839
 03  3 30  1 53 30.0000000  0  8G23G31G14G 9G 3G17G15G18
  23288562.146    -6003099.98249  -4657320.09245  23288561.484    23288570.409
  22444013.129    -8344244.52449  -6492241.17146  22444012.663    22444021.837
  20218116.954   -19789346.70249 -15403147.79847  20218116.549    20218122.877
  23800267.505    -3568705.94849  -2775361.46245  23800266.448    23800277.589
  22315028.191   -14256867.80849 -11080415.03646  22315027.977    22315037.240
  24137879.372    -5236899.36548  -4064343.92444  24137878.855    24137892.182
  21380351.812   -14082131.51749 -10963618.28146  21380351.231    21380360.251
  22346074.398   -16692637.26949 -12994150.55546  22346074.085    22346082.072
 03  3 30  1 54  0.0000000  0  8G23G31G14G 9G 3G17G15G18
  23299499.136    -5945626.01749  -4612535.22045  23299498.503    23299507.523
  22446450.721    -8331434.66549  -6482259.46346  22446450.226    22446459.433
  20216457.427   -19798067.68649 -15409943.34147  20216457.018    20216463.307
  23809317.469    -3521146.71749  -2738302.33845  23809316.723    23809328.031
  22325715.512   -14200705.76149 -11036652.44446  22325715.279    22325724.609
  24156885.248    -5137021.63649  -3986517.16744  24156884.727    24156898.230
  21393631.808   -14012345.10949 -10909239.29146  21393631.187    21393640.244
  22357540.107   -16632383.97649 -12947199.95646  22357539.857    22357548.023
 03  3 30  1 54 30.0000000  0  8G23G31G14G 9G 3G17G15G18
  23310442.957    -5888116.89349  -4567722.95245  23310442.257    23310451.271
  22448993.225    -8318073.46049  -6471848.14146  22448992.746    22449001.995
  20214897.385   -19806265.74749 -15416331.41147  20214896.948    20214903.235
  23818472.507    -3473034.99749  -2700812.69645  23818472.005    23818483.377
  22336477.820   -14144149.39149 -10992582.58246  22336477.628    22336486.982
  24175931.616    -5036931.35349  -3908524.78344  24175931.582    24175945.090
  21406985.733   -13942170.36749 -10854557.70346  21406985.092    21406994.089
  22369025.197   -16572028.54249 -12900169.76746  22369025.106    22369033.360
 03  3 30  1 55  0.0000000  0  8G23G31G14G 9G 3G17G15G18
  23321393.112    -5830572.88649  -4522883.50145  23321392.486    23321401.567
  22451640.400    -8304162.54949  -6461008.45946  22451639.923    22451649.138
  20213436.572   -19813942.00449 -15422312.87747  20213436.140    20213442.460
  23827732.257    -3424372.57049  -2662893.92645  23827732.105    23827743.511
  22347314.650   -14087201.41249 -10948207.57546  22347314.436    22347323.817
  24195018.432    -4936630.35749  -3830368.20144  24195018.307    24195031.852
  21420413.334   -13871608.45149 -10799574.42546  21420412.647    21420421.559
  22380530.109   -16511571.62749 -12853060.50746  22380529.841    22380537.987
 03  3 30  1 55 30.0000000  0  8G23G31G14G 9G 3G17G15G18
  23332349.974    -5772994.37149  -4478017.16645  23332349.361    23332358.450
  22454392.010    -8289703.29449  -6449741.50346  22454391.468    22454400.582
  20212074.830   -19821097.42249 -15427888.49847  20212074.432    20212080.765
  23837096.477    -3375161.30449  -2624547.49045  23837096.552    23837108.125
  22358225.408   -14029864.61649 -10903529.59746  22358225.203    22358234.675
  24214144.970    -4836120.95349  -3752049.23144  24214144.487    24214158.580
  21433914.339   -13800660.90049 -10744290.65346  21433913.600    21433922.396
  22392054.087   -16451013.84949 -12805872.65646  22392053.674    22392061.704
 03  3 30  1 56  0.0000000  0  8G23G31G14G 9G 3G17G15G18
  23343313.670    -5715380.47149  -4433123.26845  23343312.901    23343322.126
  22457247.802    -8274696.12049  -6438047.60146  22457247.231    22457256.349
  20210812.370   -19827731.90749 -15433058.20047  20210811.976    20210818.192
  23846565.010    -3325402.10649  -2585774.09345  23846565.287    23846576.951
  22369209.777   -13972141.12849 -10858550.30046  22369209.578    22369219.112
  24233310.864    -4735403.43948  -3673568.09144  24233310.217    24233324.465
  21447488.527   -13729328.02449 -10688706.62746  21447487.833    21447496.533
  22403596.844   -16390354.71249 -12758605.81646  22403596.623    22403604.694
 03  3 30  1 56 30.0000000  0  8G23G31G14G 9G 3G17G15G18
  23354283.822    -5657730.96349  -4388201.59845  23354283.206    23354292.552
  22460207.634    -8259142.14349  -6425927.61646  22460207.132    22460216.219
  20209648.923   -19833846.18049 -15437822.54247  20209648.482    20209654.651
  23856137.688    -3275096.24049  -2546574.74645  23856137.910    23856149.803
  22380267.369   -13914033.20349 -10813271.44646  22380267.114    22380276.689
  24252515.943    -4634479.53249  -3594926.15844  24252515.592    24252529.720
  21461135.879   -13657610.50249 -10632822.88046  21461135.205    21461143.864
  22415159.078   -16329594.14549 -12711259.94946  22415158.868    22415167.074
 03  3 30  1 57  0.0000000  0  8G23G31G14G 9G 3G17G15G18
  23365260.707    -5600045.57249  -4343251.97045  23365260.247    23365269.801
  22463271.362    -8243042.44749  -6413382.39946  22463270.801    22463279.920
  20208584.252   -19839440.80849 -15442181.96247  20208583.819    20208590.036
  23865814.213    -3224244.91649  -2506950.37245  23865814.491    23865826.374
  22391397.649   -13855543.57249 -10767695.15746  22391397.398    22391407.001
  24271760.245    -4533350.44148  -3516124.31244  24271759.990    24271774.319
  21474856.318   -13585509.22749 -10576640.10446  21474855.637    21474864.293
  22426740.680   -16268732.74149 -12663835.51446  22426740.401    22426748.648
 03  3 30  1 57 30.0000000  0  7G23G31G14G 9G 3G15G18
  23376244.708    -5542324.53149  -4298274.56845  23376244.203    23376253.804
  22466438.395    -8226398.59249  -6400413.16746  22466437.909    22466447.074
  20207618.202   -19844516.93749 -15446137.35947  20207617.797    20207624.085
  23875594.331    -3172850.13849  -2466902.52345  23875594.510    23875606.364
  22402599.997   -13796674.98049 -10721823.57246  22402599.703    22402609.427
  21488649.568   -13513025.37549 -10520159.21946  21488648.858    21488657.576
  22438341.356   -16207770.87349 -12616332.77846  22438341.079    22438349.184
 03  3 30  1 58  0.0000000  0  7G23G31G14G 9G 3G15G18
  23387236.764    -5484562.53449  -4253265.25945  23387236.054    23387245.705
  22469709.804    -8209206.53749  -6387016.76446  22469709.374    22469718.551
  20206751.809   -19849070.04649 -15449685.21247  20206751.417    20206757.674
  23885478.939    -3120908.11849  -2426428.25145  23885478.907    23885490.619
  22413875.002   -13737424.65449 -10675654.52846  22413874.707    22413884.475
  21502516.372   -13440154.65949 -10463376.87946  21502515.718    21502524.491
  22449962.416   -16146703.38549 -12568747.76446  22449961.964    22449969.951
 03  3 30  1 58 30.0000000  0  7G23G31G14G 9G 3G15G18
  23398234.495    -5426767.84149  -4208230.46345  23398234.020    23398243.894
  22473083.879    -8191475.85649  -6373200.65346  22473083.458    22473092.569
  20205983.274   -19853109.29149 -15452832.65547  20205982.849    20205989.026
  23895465.681    -3068428.76249  -2385535.28045  23895465.743    23895477.262
  22425220.677   -13677803.55449 -10629196.57046  22425220.323    22425230.057
  21516455.200   -13366906.19349 -10406300.19246  21516454.518    21516463.253
  22461601.708   -16085538.96749 -12521087.20146  22461601.217    22461609.336
 03  3 30  1 59  0.0000000  0  7G23G31G14G 9G 3G15G18
  23409238.839    -5368938.21649  -4163168.45045  23409238.462    23409248.640
  22476560.604    -8173205.85349  -6358964.29246  22476560.151    22476569.247
  20205312.656   -19856633.41549 -15455578.70047  20205312.213    20205318.351
  23905554.735    -3015411.52249  -2344223.17945  23905554.898    23905566.254
  22436636.624   -13617812.33049 -10582450.20846  22436636.290    22436646.034
  21530466.076   -13293279.02049 -10348928.40246  21530465.378    21530474.046
  22473259.268   -16024275.72849 -12473349.63446  22473259.106    22473267.525
 03  3 30  1 59 30.0000000  0  7G23G31G14G 9G 3G15G18
  23420250.218    -5311073.64149  -4118079.20745  23420249.749    23420259.992
  22480139.610    -8154397.88349  -6344308.74046  22480139.174    22480148.342
  20204739.774   -19859643.45849 -15457924.16447  20204739.350    20204745.514
  23915745.729    -2961858.10049  -2302493.27645  23915745.934    23915757.285
  22448122.496   -13557453.61249 -10535417.48146  22448122.099    22448131.925
  21544548.779   -13219274.23049 -10291262.36446  21544548.089    21544556.749
  22484936.043   -15962913.94749 -12425535.29446  22484935.843    22484944.286
 03  3 30  2  0  0.0000000  0  7G23G31G14G 9G 3G15G18
  23431268.296    -5253173.77649  -4072962.46245  23431267.741    23431277.945
  22483820.857    -8135053.00049  -6329234.81746  22483820.415    22483829.595
  20204264.664   -19862139.90949 -15459869.42447  20204264.249    20204270.465
  23926038.148    -2907769.98749  -2260346.72645  23926038.419    23926050.112
  22459677.917   -13496729.81549 -10488100.27946  22459677.519    22459687.300
  21558703.133   -13144892.67349 -10233302.75146  21558702.461    21558711.183
  22496631.729   -15901453.35849 -12377643.94946  22496631.416    22496639.743
 03  3 30  2  0 30.0000000  0  7G23G31G14G 9G 3G15G18
  23442293.005    -5195237.32449  -4027817.20245  23442292.668    23442302.723
  22487604.152    -8115171.45549  -6313742.71046  22487603.686    22487612.846
  20203887.347   -19864122.55149 -15461414.31147  20203886.940    20203893.164
  23936432.103    -2853147.66549  -2217783.93745  23936432.324    23936444.489
  22471302.541   -13435642.30849 -10440499.66446  22471302.121    22471311.914
  21572929.181   -13070134.05849 -10175049.32946  21572928.522    21572937.453
  22508346.202   -15839893.39049 -12329675.17846  22508345.867    22508354.160
 03  3 30  2  1  0.0000000  0  7G23G31G14G 9G 3G15G18
  23453324.937    -5137264.21849  -3982643.37645  23453324.471    23453334.518
  22491489.241    -8094754.67749  -6297833.53046  22491488.826    22491498.014
  20203607.685   -19865592.40249 -15462559.62147  20203607.234    20203613.444
  23946927.220    -2797992.83749  -2174806.19945  23946927.598    23946940.134
  22482995.813   -13374193.90549 -10392617.83046  22482995.366    22483005.186
  21587226.700   -12994999.62049 -10116503.04646  21587226.084    21587235.269
  22520079.441   -15778234.13349 -12281629.03746  22520079.174    22520087.583
 03  3 30  2  1 30.0000000  0  7G23G31G14G 9G 3G15G18
  23464364.136    -5079254.23849  -3937440.84045  23464363.519    23464373.425
  22495476.038    -8073804.19449  -6281508.48546  22495475.586    22495484.724
  20203425.374   -19866550.19749 -15463305.93447  20203424.950    20203431.070
  23957523.739    -2742307.10149  -2131414.78045  23957524.141    23957536.640
  22494757.197   -13312387.32149 -10344456.88546  22494756.804    22494766.579
  21601595.581   -12919490.56849 -10057664.85846  21601594.997    21601604.323
  22531831.550   -15716475.67949 -12233505.59446  22531831.417    22531839.943
 03  3 30  2  2  0.0000000  0  7G23G31G14G 9G 3G15G18
  23475409.807    -5021208.13049  -3892210.13945  23475409.253    23475419.164
  22499564.018    -8052322.22349  -6264769.29446  22499563.556    22499572.671
  20203340.200   -19866997.80849 -15463654.69847  20203339.779    20203345.839
  23968221.131    -2686093.03549  -2087611.66245  23968221.425    23968233.582
  22506586.080   -13250225.99449 -10296019.51046  22506585.695    22506595.482
  21616035.475   -12843608.76149  -9998536.21146  21616034.840    21616044.244
  22543602.543   -15654619.60649 -12185306.09246  22543602.319    22543610.818
 03  3 30  2  2 30.0000000  0  7G23G31G14G 9G 3G15G18
  23486462.337    -4963125.09449  -3846950.63345  23486462.041    23486471.969
  22503752.949    -8030309.60749  -6247616.62146  22503752.377    22503761.556
  20203351.969   -19866935.63549 -15463606.22947  20203351.591    20203357.631
  23979019.131    -2629351.88949  -2043397.82345  23979019.329    23979030.867
  22518482.063   -13187712.14149 -10247307.44346  22518481.680    22518491.558
  21630546.107   -12767354.53849  -9939117.37646  21630545.495    21630555.000
  22555392.321   -15592665.05849 -12137029.84946  22555391.967    22555400.375
 03  3 30  2  3  0.0000000  0  7G23G31G14G 9G 3G15G18
  23497522.356    -4905004.99249  -3801662.27745  23497521.993    23497531.882
  22508042.520    -8007767.66749  -6230051.49546  22508041.976    22508051.121
  20203460.634   -19866364.38249 -15463161.06447  20203460.246    20203466.363
  23989917.145    -2572085.20949  -1998774.45245  23989917.126    23989928.022
  22530444.547   -13124848.46449 -10198322.79646  22530444.198    22530454.106
  21645127.341   -12690728.82749  -9879409.06946  21645126.791    21645136.385
  22567200.494   -15530612.23749 -12088677.02246  22567200.302    22567208.613
 03  3 30  2  3 30.0000000  0  7G23G31G14G 9G 3G15G18
  23508589.801    -4846847.85149  -3756345.05545  23508589.322    23508598.854
  22512432.477    -7984698.16349  -6212075.29246  22512431.957    22512441.048
  20203665.906   -19865285.35449 -15462320.23647  20203665.563    20203671.688
  24000914.380    -2514294.93149  -1953743.09545  24000914.423    24000924.852
  22542473.197   -13061637.59649 -10149067.61446  22542472.841    22542482.786
  21659779.086   -12613733.03949  -9819412.38746  21659778.547    21659788.193
  22579027.826   -15468461.50049 -12040247.92446  22579027.474    22579035.521
 03  3 30  2  4  0.0000000  0  7G23G31G14G 9G 3G15G18
  23519664.176    -4788653.33849  -3710998.70645  23519663.546    23519673.075
  22516922.622    -7961102.59549  -6193689.16046  22516922.119    22516931.092
  20203967.683   -19863699.69449 -15461084.63347  20203967.305    20203973.393
  24012010.594    -2455982.86649  -1908305.13745  24012010.732    24012020.996
  22554567.387   -12998082.46149 -10099544.16046  22554567.028    22554576.876
  21674501.226   -12536368.05849  -9759128.03046  21674500.645    21674510.242
  22590873.980   -15406212.95549 -11991742.59846  22590873.283    22590881.143
 03  3 30  2  4 30.0000000  0  7G23G31G14G 9G 3G15G18
  23530745.344    -4730420.59549  -3665622.56045  23530744.735    23530754.617
  22521512.662    -7936981.86449  -6174893.79446  22521512.191    22521521.040
  20204365.797   -19861607.68549 -15459454.47747  20204365.399    20204371.439
  24023205.561    -2397150.26149  -1862461.58045  24023206.041    24023216.665
  22566726.731   -12934184.87449 -10049753.85946  22566726.380    22566736.094
  21689293.487   -12458634.65649  -9698556.58546  21689292.905    21689302.366
  22602738.000   -15343866.27449 -11943160.80146  22602737.430    22602745.305
 03  3 30  2  5  0.0000000  0  7G23G31G14G 9G 3G15G18
  23541833.673    -4672149.42049  -3620216.46345  23541833.218    23541843.292
  22526202.469    -7912337.22949  -6155690.19046  22526201.985    22526210.634
  20204860.103   -19859010.01149 -15457430.29447  20204859.687    20204865.744
  24034499.318    -2337798.67549  -1816213.62845  24034500.192    24034511.246
  22578950.790   -12869947.31149  -9999698.64446  22578950.388    22578960.100
  21704155.710   -12380533.70649  -9637698.74946  21704155.106    21704164.519
  22614620.491   -15281421.10049 -11894502.23146  22614620.105    22614628.054
 03  3 30  2  5 30.0000000  0  7G23G31G14G 9G 3G15G18
  23552929.472    -4613839.90749  -3574780.49245  23552929.097    23552939.186
  22530991.636    -7887170.52949  -6136079.77946  22530991.069    22530999.644
  20205450.315   -19855908.14349 -15455013.23147  20205449.908    20205455.998
  24045891.656    -2277930.29249  -1769563.00545  24045892.456    24045904.182
  22591238.799   -12805372.99949  -9949381.04346  22591238.471    22591248.207
  21719087.564   -12302066.59249  -9576555.58546  21719086.959    21719096.417
  22626521.665   -15218878.18349 -11845767.51946  22626521.356    22626529.439
 03  3 30  2  6  0.0000000  0  7G23G31G14G 9G 3G15G18
  23564032.718    -4555492.06749  -3529314.66545  23564032.390    23564042.477
  22535879.616    -7861483.74249  -6116064.11146  22535879.075    22535887.742
  20206136.235   -19852303.33349 -15452204.26947  20206135.833    20206141.934
  24057381.911    -2217547.19849  -1722511.28945  24057382.581    24057395.092
  22603590.371   -12740464.77449  -9898803.25746  22603590.090    22603599.838
  21734088.927   -12223234.73249  -9515128.20246  21734088.254    21734097.721
  22638441.540   -15156237.67049 -11796956.73846  22638441.383    22638449.628
 03  3 30  2  6 30.0000000  0  8G23G31G14G25G 9G 3G15G18
  23575143.413    -4497106.10749  -3483819.13945  23575142.828    23575152.990
  22540866.201    -7835278.84649  -6095644.73246  22540865.663    22540874.452
  20206917.602   -19848197.13049 -15449004.60947  20206917.192    20206923.256
                   -912242.01149   -698405.10443
  24068970.181    -2156651.64549  -1675060.26945  24068970.488    24068983.628
  22616004.938   -12675225.98049  -9847967.87446  22616004.725    22616014.407
  21749159.339   -12144039.55849  -9453417.72146  21749158.631    21749168.086
  22650380.431   -15093500.30149 -11748070.49446  22650380.048    22650388.277
 03  3 30  2  7  0.0000000  0  9G11G23G31G14G25G 9G 3G15G18
  24493766.059    -1193462.40249   -918527.65745  24493766.199    24493776.296
  23586261.173    -4438682.14549  -3438293.98745  23586260.522    23586270.747
  22545951.028    -7808557.96549  -6074823.27446  22545950.503    22545959.312
  20207794.116   -19843591.10949 -15445415.48447  20207793.686    20207799.778
                  -1010815.66449   -775215.28143
  24080656.022    -2095245.99249  -1627211.73945  24080656.018    24080669.060
  22628481.825   -12609659.69049  -9796877.31146  22628481.648    22628491.295
  21764298.490   -12064482.88049  -9391425.54946  21764297.800    21764307.174
  22662337.726   -15030666.76249 -11699109.32346  22662337.031    22662345.213
 03  3 30  2  7 30.0000000  0  9G11G23G31G14G25G 9G 3G15G18
  24474799.872    -1293130.39949   -996190.90745  24474800.059    24474810.202
  23597386.038    -4380219.45249  -3392738.64245  23597385.580    23597395.915
  22551133.855    -7781321.98049  -6053600.44446  22551133.315    22551142.144
  20208765.618   -19838485.58249 -15441437.12747  20208765.203    20208771.308
                  -1109368.27749   -852009.30344                  23930419.688
  24092438.758    -2033331.53049  -1578966.71245  24092438.321    24092451.122
  22641020.597   -12543768.22649  -9745533.35346  22641020.398    22641030.078
  21779506.409   -11984565.15849  -9329152.03846  21779505.732    21779514.963
  22674312.593   -14967736.28249 -11650072.59146  22674312.230    22674320.502
 03  3 30  2  8  0.0000000  0  9G11G23G31G14G25G 9G 3G15G18
  24455848.529    -1392720.64049  -1073793.56245  24455847.947    24455858.701
  23608518.564    -4321717.85749  -3347153.00645  23608518.013    23608528.375
  22556414.370    -7753572.86549  -6031977.75146  22556413.839    22556422.683
  20209831.946   -19832881.88449 -15437070.59247  20209831.565    20209837.601
  23911656.919    -1207897.46349   -928784.97945  23911656.455    23911669.686
  24104317.893    -1970910.28049  -1530326.78445  24104317.347    24104329.413
  22653620.650   -12477554.41049  -9693938.21946  22653620.485    22653630.140
  21794782.754   -11904287.81649  -9266598.30046  21794782.066    21794791.153
  22686306.034   -14904709.35949 -11600960.71346  22686305.817    22686314.163
 03  3 30  2  8 30.0000000  0  9G11G23G31G14G25G 9G 3G15G18
  24436912.301    -1492231.98149  -1151334.77545  24436912.327    24436922.301
  23619658.610    -4263178.28249  -3301537.78345  23619657.831    23619668.030
  22561791.987    -7725313.25649  -6009957.28746  22561791.407    22561800.380
  20210992.713   -19826782.35149 -15432317.69547  20210992.301    20210998.220
  23892912.182    -1306401.31049  -1005540.89345  23892912.291    23892925.186
  24116292.523    -1907985.20349  -1481294.24945  24116291.879    24116303.432
  22666281.358   -12411022.04549  -9642094.86146  22666281.250    22666290.880
  21810127.031   -11823653.10349  -9203766.09846  21810126.344    21810135.412
  22698318.256   -14841587.00449 -11551774.49046  22698317.761    22698325.960
 03  3 30  2  9  0.0000000  0  9G11G23G31G14G25G 9G 3G15G18
  24417991.402    -1591661.44849  -1228812.17345  24417991.536    24418001.625
  23630805.832    -4204599.21049  -3255891.78145  23630805.084    23630815.341
  22567266.546    -7696543.57849  -5987539.36846  22567266.057    22567275.075
  20212247.767   -19820186.69649 -15427178.20847  20212247.333    20212253.284
  23874173.242    -1404875.89549  -1082274.03745  23874172.935    23874185.575
  24128362.495    -1844557.11449  -1431869.77545  24128361.663    24128373.052
  22679002.558   -12344172.49249  -9590004.34846  22679002.393    22679012.017
  21825539.151   -11742660.66349  -9140655.15546  21825538.554    21825547.729
  22710348.465   -14778368.08749 -11502513.00846  22710348.033    22710356.096
 03  3 30  2  9 30.0000000  0  9G11G23G31G14G25G 9G 3G15G18
  24399086.641    -1691006.60149  -1306223.89445  24399086.743    24399096.716
  23641960.418    -4145980.11849  -3210214.58445  23641959.892    23641970.340
  22572837.986    -7667265.22349  -5964725.08146  22572837.560    22572846.578
  20213597.080   -19813095.79549 -15421652.81247  20213596.668    20213602.669
  23855440.125    -1503318.13249  -1158981.97345  23855439.683    23855452.459
  24140527.551    -1780627.34549  -1382054.36544  24140526.751    24140538.203
  22691783.617   -12277008.18649  -9537668.57446  22691783.355    22691793.005
  21841019.207   -11661311.38949  -9077266.15546  21841018.717    21841028.014
  22722397.070   -14715052.42349 -11453176.14446  22722396.722    22722404.668
 03  3 30  2 10  0.0000000  0  9G11G23G31G14G25G 9G 3G15G18
  24380198.632    -1790264.98549  -1383568.02845  24380198.699    24380208.500
  23653123.043    -4087320.11849  -3164505.51745  23653122.454    23653133.116
  22578506.127    -7637479.45649  -5941515.39346  22578505.636    22578514.585
  20215040.591   -19805510.16849 -15415741.92347  20215040.169    20215046.159
  23836713.671    -1601724.54849  -1235662.00445  23836713.197    23836726.060
  24152787.907    -1716197.48149  -1331849.24544  24152787.493    24152798.805
  22704623.997   -12209531.39749  -9485089.31646  22704623.766    22704633.400
  21856567.177   -11579606.15249  -9013599.78046  21856566.694    21856576.051
  22734464.631   -14651639.46249 -11403763.48746  22734464.038    22734471.783
 03  3 30  2 10 30.0000000  0  9G11G23G31G14G25G 9G 3G15G18
  24361327.551    -1889434.83849  -1460843.18245  24361327.493    24361337.056
  23664293.679    -4028619.41049  -3118764.75945  23664292.841    23664303.413
  22584270.335    -7607188.44349  -5917912.01046  22584269.875    22584278.794
  20216577.899   -19797431.39649 -15409446.76347  20216577.465    20216583.473
  23817994.440    -1700093.18949  -1312312.60945  23817994.186    23818007.035
  24165143.184    -1651270.26849  -1281256.58645  24165142.799    24165154.081
  22717523.169   -12141745.34449  -9432269.07246  22717523.016    22717532.673
  21872182.655   -11497546.80949  -8949657.47646  21872182.173    21872191.473
  22746550.201   -14588129.75249 -11354275.42345  22746549.542    22746557.226
 03  3 30  2 11  0.0000000  0  9G11G23G31G14G25G 9G 3G15G18
  24342473.597    -1988514.37449  -1538047.98745  24342473.347    24342482.573
  23675471.942    -3969878.11049  -3072992.35245  23675471.102    23675481.372
  22590130.256    -7576394.36549  -5893916.63946  22590129.779    22590138.748
  20218208.697   -19788861.30049 -15402768.74947  20218208.286    20218214.308
  23799282.959    -1798421.83049  -1388932.06945  23799282.799    23799295.324
  24177593.034    -1585847.77549  -1230277.97245  24177592.530    24177603.856
  22730480.656   -12073653.34349  -9379210.42646  22730480.486    22730490.218
  21887865.273   -11415134.81949  -8885440.37446  21887864.747    21887874.059
  22758653.631   -14524523.77149 -11304712.34045  22758653.282    22758661.020
 03  3 30  2 11 30.0000000  0  9G11G23G31G14G25G 9G 3G15G18
  24323637.163    -2087501.10649  -1615180.43545  24323636.826    24323645.916
  23686657.760    -3911095.44449  -3027187.71445  23686657.009    23686667.309
  22596085.712    -7545098.40049  -5869530.18846  22596085.236    22596094.198
  20219932.943   -19779800.46849 -15395708.35147  20219932.522    20219938.536
  23780579.783    -1896707.07849  -1465517.70645  23780579.627    23780592.050
  24190136.732    -1519931.71749  -1178914.77445  24190136.107    24190147.751
  22743496.107   -12005257.55249  -9325915.06546  22743495.846    22743505.555
  21903614.776   -11332370.78349  -8820948.97446  21903614.253    21903623.663
  22770775.858   -14460821.20749 -11255074.01545  22770775.440    22770783.339
 03  3 30  2 12  0.0000000  0  9G11G23G31G14G25G 9G 3G15G18
  24304818.540    -2186393.92949  -1692239.71645  24304818.015    24304827.077
  23697851.265    -3852272.01649  -2981351.31345  23697850.619    23697860.914
  22602136.181    -7513303.44049  -5844754.91546  22602135.647    22602144.554
  20221750.113   -19770251.13549 -15388267.30147  20221749.674    20221755.684
  23761885.406    -1994946.89949  -1542067.95845  23761885.030    23761897.562
  24202773.593    -1453525.09749  -1127169.33745  24202773.019    24202784.960
  22756568.576   -11936561.83149  -9272385.98646  22756568.266    22756578.091
  21919430.801   -11249257.03749  -8756185.06046  21919430.274    21919439.909
  22782916.210   -14397022.87449 -11205361.05945  22782915.686    22782923.886
 03  3 30  2 12 30.0000000  0  9G11G23G31G14G25G 9G 3G15G18
  24286018.324    -2285189.88749  -1769223.50945  24286017.979    24286026.882
  23709052.878    -3793406.81949  -2935482.36945  23709052.365    23709062.598
  22608281.367    -7481010.45149  -5819591.57046  22608280.783    22608289.740
  20223660.154   -19760213.50449 -15380445.76347  20223659.742    20223665.735
  23743200.165    -2093138.04649  -1618580.26945  23743199.775    23743212.301
  24215503.573    -1386629.17449  -1075042.62045  24215502.917    24215514.917
  22769697.587   -11867568.09349  -9218624.69646  22769697.287    22769707.241
  21935313.335   -11165794.00849  -8691148.99046  21935312.798    21935322.622
  22795074.324   -14333128.31149 -11155573.10545  22795074.189    22795082.625
 03  3 30  2 13  0.0000000  0  9G11G23G31G14G25G 9G 3G15G18
  24267236.748    -2383887.19049  -1846130.41545  24267236.282    24267245.284
  23720262.601    -3734499.89749  -2889580.91445  23720262.093    23720272.163
  22614520.742    -7448221.65449  -5794041.88146  22614520.243    22614529.294
  20225662.748   -19749689.59749 -15372245.30847  20225662.345    20225668.363
  23724524.488    -2191278.09349  -1695052.76145  23724524.144    23724536.752
  24228326.165    -1319246.24549  -1022536.40445  24228325.141    24228337.434
  22782882.732   -11798279.63549  -9164633.75446  22782882.528    22782892.545
  21951262.057   -11081983.45149  -8625842.11446  21951261.517    21951271.413
  22807251.431   -14269137.70549 -11105710.32245  22807251.308    22807259.495
 03  3 30  2 13 30.0000000  0  9G11G23G31G14G25G 9G 3G15G18
  24248474.253    -2482484.21149  -1922959.17145  24248473.811    24248483.014
  23731480.428    -3675551.34849  -2843647.03945  23731479.888    23731489.651
  22620854.157    -7414939.27249  -5768107.57746  22620853.679    22620862.742
  20227757.687   -19738680.74249 -15363666.96947  20227757.295    20227763.273
  23705858.932    -2289364.48049  -1771483.44045  23705858.606    23705871.534
  24241240.498    -1251378.93349   -969652.77044  24241239.240    24241252.099
  22796123.599   -11728699.44349  -9110415.48546  22796123.372    22796133.321
  21967276.574   -10997826.93449  -8560265.65146  21967276.071    21967285.883
  22819447.440   -14205051.56049 -11055773.12045  22819446.895    22819454.609
 03  3 30  2 14  0.0000000  0  9G11G23G31G14G25G 9G 3G15G18
  24229731.105    -2580978.78549  -1999708.07245  24229730.567    24229740.002
  23742706.279    -3616560.71349  -2797680.36245  23742705.497    23742715.163
  22627281.255    -7381165.10049  -5741790.05946  22627280.759    22627289.768
  20229944.651   -19727188.39049 -15354711.88547  20229944.211    20229950.167
  23687204.330    -2387394.16449  -1847869.93945  23687204.020    23687216.948
  24254246.302    -1183029.08749   -916393.11844  24254245.375    24254258.148
  22809419.530   -11658830.23249  -9055972.00446  22809419.187    22809429.030
  21983356.790   -10913325.56549  -8494420.47346  21983356.229    21983365.920
  22831661.161   -14140869.79549 -11005761.39545  22831660.440    22831668.036
 03  3 30  2 14 30.0000000  0  9G11G23G31G14G25G 9G 3G15G18
  24211007.949    -2679368.26149  -2076375.07745  24211007.538    24211017.128
  23753940.052    -3557527.35549  -2751680.39445  23753939.310    23753948.936
  22633801.559    -7346900.65349  -5715090.51346  22633801.115    22633810.087
  20232223.442   -19715213.25249 -15345380.60147  20232222.994    20232228.938
  23668561.063    -2485364.43449  -1924210.14745  23668560.707    23668573.479
  24267343.937    -1114198.51449   -862758.86744  24267343.576    24267355.798
  22822769.777   -11588674.41349  -9001305.19746  22822769.455    22822779.306
  21999502.451   -10828480.37449  -8428307.39446  21999501.822    21999511.400
  22843892.416   -14076592.09549 -10955674.89745  22843891.904    22843899.769
 03  3 30  2 15  0.0000000  0  9G11G23G31G14G25G 9G 3G15G18
  24192305.233    -2777650.57549  -2152958.57345  24192304.857    24192314.571
  23765181.709    -3498451.26249  -2705647.13345  23765181.118    23765191.047
  22640414.691    -7312148.07049  -5688010.61446  22640414.238    22640423.287
  20234593.784   -19702756.78249 -15335674.25047  20234593.363    20234599.356
  23649929.613    -2583272.49249  -2000501.86645  23649929.205    23649941.803
  24280532.940    -1044889.73249   -808751.96044  24280532.657    24280544.769
  22836173.920   -11518235.01949  -8946417.41846  22836173.636    22836183.585
  22015713.169   -10743292.79149  -8361927.51546  22015712.569    22015722.089
  22856141.782   -14012218.88749 -10905513.98545  22856141.553    22856149.606
 03  3 30  2 15 30.0000000  0  9G11G23G31G14G25G 9G 3G15G18
  24173623.280    -2875823.79949  -2229457.07645  24173622.829    24173632.858
  23776431.690    -3439332.25049  -2659580.41645  23776431.129    23776441.302
  22647120.328    -7276909.44649  -5660551.98846  22647119.896    22647129.021
  20237055.444   -19689820.52649 -15325594.04147  20237055.028    20237061.036
  23631310.395    -2681115.62049  -2076742.99545  23631310.055    23631322.323
  24293812.845     -975104.69549   -754373.91544  24293812.413    24293824.393
  22849631.540   -11447515.18049  -8891311.11146  22849631.219    22849641.191
  22031988.729   -10657764.47949  -8295282.13146  22031988.112    22031997.596
  22868409.711   -13947750.05449 -10855278.57445  22868409.469    22868417.569
 03  3 30  2 16  0.0000000  0  9G11G23G31G14G25G 9G 3G15G18
  24154962.390    -2973886.15349  -2305869.18145  24154962.038    24154972.093
  23787689.984    -3380170.21349  -2613480.20545  23787689.266    23787699.916
  22653918.095    -7241186.90949  -5632716.28046  22653917.689    22653926.881
  20239608.206   -19676406.12249 -15315141.25747  20239607.741    20239613.697
  23612703.974    -2778891.33749  -2152931.60345  23612703.676    23612715.695
  24307183.046     -904845.99649   -699626.80245  24307182.816    24307193.951
  22863141.956   -11376517.88449  -8835988.59646  22863141.636    22863151.630
  22048328.955   -10571896.84149  -8228372.34446  22048328.200    22048337.682
  22880696.077   -13883185.89949 -10804968.88545  22880695.693    22880703.766
 03  3 30  2 16 30.0000000  0  9G11G23G31G14G25G 9G 3G15G18
  24136323.016    -3071835.97349  -2382193.59445  24136322.721    24136332.735
  23798956.329    -3320965.36049  -2567346.61845  23798955.516    23798966.452
  22660807.538    -7204982.91749  -5604505.39946  22660807.100    22660816.296
  20242251.519   -19662515.20349 -15304317.16347  20242251.081    20242256.978
  23594110.794    -2876597.32049  -2229065.88445  23594110.598    23594122.339
  24320642.822     -834116.20349   -644512.60845  24320642.510    24320653.357
  22876704.524   -11305246.34549  -8780452.37946  22876704.247    22876714.239
  22064733.298   -10485691.70449  -8161199.56946  22064732.544    22064741.973
  22893000.367   -13818527.11549 -10754585.45645  22892999.906    22893007.976
 03  3 30  2 17  0.0000000  0  9G11G23G31G14G25G 9G 3G15G18
  24117705.604    -3169670.25849  -2458427.98745  24117705.430    24117715.464
  23810230.798    -3261716.54249  -2521178.76745  23810230.141    23810241.350
  22667788.414    -7168298.78749  -5575920.38546  22667787.907    22667797.075
  20244985.377   -19648148.50749 -15293122.32847  20244984.929    20244990.884
  23575531.644    -2974229.95049  -2305143.01845  23575531.570    23575543.178
  24334191.553     -762916.98249   -589032.59745  24334191.191    24334202.259
  22890318.887   -11233702.62349  -8724704.07846  22890318.572    22890328.628
  22081201.768   -10399149.87549  -8093764.44146  22081200.993    22081210.336
  22905322.454   -13753772.78849 -10704127.55845  22905322.205    22905330.172
 03  3 30  2 17 30.0000000  0  9G11G23G31G14G25G 9G 3G15G18
  24099110.649    -3267386.92549  -2534570.73445  24099110.553    24099120.569
  23821513.860    -3202423.31949  -2474976.31945  23821513.419    23821524.543
  22674860.289    -7131136.45449  -5546962.74146  22674859.741    22674868.805
  20247809.511   -19633307.52949 -15281557.92947  20247809.083    20247815.085
  23556966.889    -3071786.58549  -2381160.92445  23556966.792    23556978.445
  24347828.778     -691250.40649   -533188.41245  24347828.282    24347839.780
  22903984.361   -11161889.85249  -8668746.15146  22903984.042    22903994.147
  22097734.057   -10312272.51849  -8026067.85746  22097733.228    22097742.575
  22917662.916   -13688922.93249 -10653595.24845  22917662.752    22917670.469
 03  3 30  2 18  0.0000000  0  9G11G23G31G14G25G 9G 3G15G18
  24080538.438    -3364983.83449  -2610620.13845  24080538.290    24080548.188
  23832805.725    -3143085.67549  -2428739.25545  23832805.192    23832816.234
  22682022.661    -7093498.29849  -5517634.32846  22682022.063    22682031.081
  20250723.583   -19617994.01349 -15269625.32147  20250723.146    20250729.166
  23538417.121    -3169264.86349  -2457117.78645  23538417.173    23538428.629
  24361553.988     -619119.01749   -476982.04944  24361553.539    24361565.729
  22917700.493   -11089811.05249  -8612580.93046  22917700.196    22917710.364
  22114329.715   -10225061.66049  -7958111.40446  22114328.919    22114338.333
  22930022.054   -13623977.83649 -10602988.72045  22930021.586    22930028.915
 03  3 30  2 18 30.0000000  0  8G11G23G31G14G25G 3G15G18
  24061989.280    -3462459.84449  -2686575.35145  24061989.251    24061998.928
  23844106.085    -3083703.97049  -2382467.87245  23844105.369    23844116.119
  22689274.998    -7055386.81649  -5487937.09746  22689274.492    22689283.500
  20253727.180   -19602209.72849 -15257325.88047  20253726.747    20253732.831
  23519882.803    -3266662.41649  -2533011.75845  23519882.844    23519894.384
  22931466.739   -11017469.42049  -8556210.89446  22931466.436    22931476.554
  22130988.440   -10137518.92449  -7889896.34146  22130987.696    22130997.206
  22942398.900   -13558938.16949 -10552308.51145  22942398.358    22942405.492
 03  3 30  2 19  0.0000000  0  8G11G23G31G14G25G 3G15G18
  24043463.633    -3559812.22449  -2762434.22145  24043463.677    24043473.158
  23855414.666    -3024277.68649  -2336161.74245  23855413.921    23855424.418
  22696617.093    -7016804.03549  -5457872.62546  22696616.589    22696625.644
  20256820.117   -19585956.03449 -15244660.66747  20256819.706    20256825.825
  23501364.669    -3363976.10749  -2608840.37645  23501364.743    23501376.109
  22945282.467   -10944867.90649  -8499638.34346  22945282.162    22945292.227
  22147710.002   -10049645.67949  -7821423.74346  22147709.360    22147718.982
  22954793.212   -13493803.98149 -10501554.62745  22954792.838    22954800.152
 03  3 30  2 19 30.0000000  0  8G11G23G31G14G25G 3G15G18
  24024962.231    -3657038.00049  -2838194.43045  24024962.314    24024971.464
  23866731.651    -2964805.78049  -2289820.05845  23866731.086    23866741.497
  22704048.549    -6977751.20949  -5427441.91246  22704048.045    22704057.182
  20260002.313   -19569233.63249 -15231630.23247  20260001.893    20260007.971
  23482863.225    -3461202.54049  -2684601.01545  23482863.242    23482874.319
  22959147.174   -10872008.50949  -8442864.84746  22959146.893    22959157.008
  22164494.376    -9961442.63349  -7752694.16446  22164493.790    22164503.430
  22967205.769   -13428574.16749 -10450726.23045  22967205.664    22967212.998
 03  3 30  2 20  0.0000000  0  8G11G23G31G14G25G 3G15G18
  24006485.299    -3754135.78849  -2913854.90045  24006485.186    24006494.273
  23878057.503    -2905288.30249  -2243442.86545  23878056.925    23878067.317
  22711568.887    -6938230.91049  -5396646.91946  22711568.578    22711577.726
  20263273.340   -19552044.33049 -15218235.96847  20263272.918    20263278.961
  23464378.906    -3558339.35149  -2760291.82845  23464378.729    23464389.530
  22973060.266   -10798894.71949  -8385893.12946  22973059.962    22973070.170
  22181341.284    -9872911.69649  -7683709.07046  22181340.737    22181350.398
  22979636.934   -13363249.32949 -10399823.78845  22979636.588    22979643.977
 03  3 30  2 20 30.0000000  0  8G11G23G31G14G25G 3G15G18
  23988032.952    -3851104.31349  -2989414.64545  23988032.780    23988041.703
  23889392.030    -2845726.08149  -2197030.80445  23889391.278    23889401.636
  22719177.739    -6898246.35949  -5365490.18445  22719177.371    22719186.539
  20266632.730   -19534390.70149 -15204479.89547  20266632.312    20266638.300
  23445911.799    -3655384.86249  -2835911.50945  23445911.603    23445922.181
  22987021.014   -10725530.55149  -8328726.30545  22987020.687    22987031.028
  22198250.133    -9784055.40849  -7614470.46446  22198249.621    22198259.266
  22992086.115   -13297830.63949 -10348848.23145  22992085.500    22992092.765
 03  3 30  2 21  0.0000000  0  8G11G23G31G14G25G 3G15G18
  23969605.793    -3947940.53249  -3064871.30045  23969605.517    23969614.349
  23900735.346    -2786117.76549  -2150582.84045  23900734.485    23900744.652
  22726874.728    -6857798.75749  -5333972.60145  22726874.292    22726883.452
  20270080.386   -19516273.19449 -15190362.35647  20270079.956    20270085.952
  23427462.744    -3752335.23149  -2911457.06245  23427462.546    23427472.868
  23001029.007   -10651917.97049  -8271365.92145  23001028.719    23001039.102
  22215221.034    -9694874.08649  -7544978.57946  22215220.452    22215230.030
  23004552.809   -13232317.10049 -10297798.74345  23004552.380    23004559.746
 03  3 30  2 21 30.0000000  0  8G11G23G31G14G25G 3G15G18
  23951204.346    -4044641.62749  -3140222.67945  23951204.066    23951212.694
  23912087.511    -2726462.56949  -2104098.33545  23912086.617    23912096.666
  22734659.428    -6816889.85449  -5302095.56845  22734659.083    22734668.166
  20273616.118   -19497692.78549 -15175884.11247  20273615.668    20273621.713
  23409032.161    -3849187.36349  -2986926.06745  23409032.025    23409042.206
  23015083.916   -10578059.06449  -8213813.59145  23015083.679    23015094.054
  22232253.650    -9605368.85949  -7475234.30446  22232252.941    22232262.447
  23017037.483   -13166708.17749 -10246674.94945  23017037.337    23017044.906
 03  3 30  2 22  0.0000000  0  8G11G23G31G14G25G 3G15G18
  23932828.979    -4141205.46449  -3215467.10745  23932828.607    23932837.195
  23923448.369    -2666760.25749  -2057577.11645  23923447.592    23923457.504
  22742531.634    -6775521.92249  -5269860.83445  22742531.243    22742540.299
  20277239.518   -19478651.48649 -15161046.73547  20277239.099    20277245.154
  23390620.866    -3945938.52949  -3062316.40445  23390620.760    23390630.792
  23029185.142   -10503957.17549  -8156071.93645  23029184.847    23029195.159
  22249347.378    -9515541.38749  -7405238.93046  22249346.658    22249356.155
  23029540.681   -13101004.22849 -10195477.11045  23029540.550    23029548.142
 03  3 30  2 22 30.0000000  0  8G11G23G31G14G25G 3G15G18
  23914479.910    -4237630.25949  -3290603.19645  23914479.501    23914488.003
  23934817.896    -2607011.23549  -2011019.50545  23934817.312    23934827.343
  22750490.496    -6733697.87649  -5237270.68745  22750490.133    22750499.300
  20280950.244   -19459151.38449 -15145851.84547  20280949.851    20280955.854
  23372229.358    -4042586.78249  -3137626.55645  23372229.173    23372239.079
  23043331.943   -10429615.73449  -8098143.62245  23043331.594    23043341.914
  22266501.880    -9425393.97049  -7334994.25246  22266501.182    22266510.721
  23042062.156   -13035205.90749 -10144205.74645  23042061.811    23042069.301
 03  3 30  2 23  0.0000000  0  8G11G23G31G14G25G 3G15G18
  23896157.776    -4333913.43649  -3365628.93245  23896157.345    23896165.789
  23946196.161    -2547214.30149  -1964424.54945  23946195.974    23946206.105
  22758535.912    -6691418.89249  -5204326.05645  22758535.474    22758544.745
  20284748.279   -19439193.00849 -15130299.86247  20284747.861    20284753.740
  23353858.060    -4139128.24049  -3212853.49445  23353857.831    23353867.744
  23057523.892   -10355036.80949  -8040030.25545  23057523.479    23057533.829
  22283717.208    -9334927.05449  -7264500.61646  22283716.514    22283726.092
  23054601.789   -12969311.96549 -10092859.86545  23054601.311    23054608.773
 03  3 30  2 23 30.0000000  0  8G11G23G31G14G25G 3G15G18
  23877862.757    -4430052.77549  -3440542.59645  23877862.331    23877870.881
  23957583.776    -2487369.36949  -1917792.16945  23957583.820    23957594.251
  22766667.355    -6648687.54249  -5171028.93145  22766666.905    22766676.338
  20288633.170   -19418778.14449 -15114392.16647  20288632.692    20288638.572
  23335507.394    -4235560.07249  -3287994.99745  23335507.145    23335517.235
  23071760.468   -10280223.49849  -7981734.24845  23071760.083    23071770.398
  22300992.982    -9244142.36549  -7193759.35246  22300992.245    22301001.872
  23067159.203   -12903322.94649 -10041439.88545  23067158.788    23067166.337
 03  3 30  2 24  0.0000000  0  8G11G23G31G14G25G 3G15G18
  23859595.425    -4526045.70749  -3515342.18145  23859595.176    23859603.847
  23968980.930    -2427475.65449  -1871121.78145  23968981.130    23968991.531
  22774884.521    -6605505.74049  -5137380.82945  22774884.096    22774893.667
  20292604.487   -19397908.11849 -15098129.79247  20292604.053    20292610.111
  23317178.278    -4331879.22549  -3363048.69045  23317177.994    23317188.214
  23086041.191   -10205178.19249  -7923257.46045  23086040.846    23086051.071
  22318328.932    -9153040.93449  -7122771.27746  22318328.203    22318337.849
  23079734.751   -12837238.50449  -9989945.56645  23079734.322    23079742.025
 03  3 30  2 24 30.0000000  0  8G11G23G31G14G25G 3G15G18
  23841356.221    -4621891.45049  -3590027.09645  23841356.034    23841364.741
  23980387.706    -2367534.02249  -1824414.04945  23980387.653    23980398.064
  22783186.884    -6561876.91649  -5103384.37845  22783186.477    22783195.936
  20296662.006   -19376585.72949 -15081514.93647  20296661.583    20296667.623
  23298870.904    -4428084.35949  -3438013.55745  23298870.628    23298880.794
  23100365.174   -10129905.18049  -7864603.23245  23100364.880    23100375.118
  22335724.652    -9061625.46449  -7051538.50446  22335723.950    22335733.598
  23092328.383   -12771059.80649  -9938377.79045  23092327.794    23092335.520
 03  3 30  2 25  0.0000000  0  8G11G23G31G14G25G 3G15G18
  23823145.492    -4717587.56649  -3664595.42145  23823145.340    23823154.010
  23991803.972    -2307544.19049  -1777668.77245  23991803.599    23991813.849
  22791573.895    -6517803.37649  -5069041.38045  22791573.572    22791582.852
  20300805.462   -19354812.38049 -15064548.68547  20300804.985    20300810.910
  23280585.644    -4524172.86149  -3512887.53545  23280585.346    23280595.606
  23114731.994   -10054407.39849  -7805773.85245  23114731.664    23114741.929
  22353179.933    -8969897.79549  -6980062.45446  22353179.156    22353188.781
  23104939.756   -12704786.87949  -9886736.59445  23104939.084    23104946.828
 03  3 30  2 25 30.0000000  0  8G11G23G31G14G25G 3G15G18
  23804963.798    -4813130.81549  -3739044.61145  23804963.697    23804972.484
  24003229.566    -2247504.81149  -1730884.86945  24003228.950    24003238.993
  22800045.207    -6473286.55549  -5034352.99645  22800044.937    22800054.113
  20305034.406   -19332588.83249 -15047231.62647  20305033.918    20305039.916
  23262323.160    -4620140.92049  -3587667.66945  23262323.020    23262333.445
  23129141.104    -9978687.02549  -7746771.03445  23129140.799    23129151.068
  22370694.554    -8877858.42249  -6908343.51746  22370693.731    22370703.344
  23117568.841   -12638418.54349  -9835021.05445  23117568.291    23117576.242
 03  3 30  2 26  0.0000000  0  8G11G23G31G14G25G 3G15G18
  23786811.707    -4908519.59049  -3813373.43545  23786811.424    23786820.495
  24014664.105    -2187416.08249  -1684062.52145  24014663.634    24014673.532
  22808600.315    -6428329.20249  -4999321.33245  22808599.886    22808609.280
  20309348.518   -19309917.40149 -15029565.55947  20309348.091    20309354.155
  23244084.163    -4715986.13749  -3662352.08045  23244084.096    23244094.566
  23143591.927    -9902747.46649  -7687597.43145  23143591.595    23143601.792
  22388268.128    -8785509.63249  -6836383.48946  22388267.285    22388276.762
  23130215.887   -12571955.67649  -9783231.85345  23130215.475    23130223.620
 03  3 30  2 26 30.0000000  0  8G11G23G31G14G25G 3G15G18
  23768689.701    -5003751.85049  -3887580.30445  23768689.358    23768698.428
  24026108.157    -2127277.80649  -1637201.54645  24026107.732    24026117.456
  22817238.826    -6382933.94349  -4963948.42245  22817238.324    22817247.793
  20313747.658   -19286799.78149 -15011551.82547  20313747.235    20313753.284
  23225869.186    -4811705.69949  -3736938.58145  23225869.096    23225879.506
  23158083.959    -9826591.71049  -7628255.36845  23158083.612    23158093.730
  22405900.307    -8692853.05349  -6764183.61846  22405899.388    22405908.745
  23142881.385   -12505398.30649  -9731369.01645  23142880.777    23142889.104
 03  3 30  2 27  0.0000000  0  8G11G23G31G14G25G 3G15G18
  23750597.840    -5098825.81349  -3961663.81645  23750597.563    23750606.250
  24037561.924    -2067090.32049  -1590302.21845  24037561.222    24037570.949
  22825960.301    -6337103.67449  -4928236.55845  22825959.767    22825968.936
  20318231.241   -19263238.22849 -14993192.17047  20318230.821    20318236.869
  23207678.403    -4907297.50349  -3811425.53645  23207678.339    23207688.756
  23172616.451    -9750223.49649  -7568747.75045  23172616.151    23172626.164
  22423590.577    -8599890.95449  -6691745.68046  22423589.552    22423598.879
  23155565.248   -12438747.05349  -9679433.02845  23155564.236    23155572.471
 03  3 30  2 27 30.0000000  0  8G11G23G31G14G25G 3G15G18
  23732536.384    -5193739.64749  -4035622.55345  23732536.157    23732544.436
  24049025.174    -2006853.68449  -1543364.60245  24049024.137    24049033.705
  22834763.830    -6290841.15249  -4892187.86945  22834763.213    22834772.390
  20322798.912   -19239234.73249 -14974488.13647  20322798.479    20322804.573
  23189512.454    -5002758.98349  -3885810.95445  23189512.415    23189522.703
  23187188.768    -9673645.88349  -7509076.96045  23187188.513    23187198.402
  22441338.436    -8506625.11849  -6619071.07246  22441337.465    22441346.803
  23168266.648   -12372002.04849  -9627423.98445  23168265.474    23168273.699
 03  3 30  2 28  0.0000000  0  8G11G23G31G14G25G 3G15G18
  23714506.086    -5288489.28049  -4109453.32045  23714505.899    23714513.944
  24060497.802    -1946565.76549  -1496387.02145  24060496.594    24060506.182
  22843649.345    -6244146.98249  -4855802.82945  22843648.891    22843658.136
  20327450.669   -19214789.28449 -14955439.73047  20327450.279    20327456.362
  23171372.158    -5098085.88149  -3960091.51745  23171372.113    23171382.311
  23201800.638    -9596860.02349  -7449243.88645  23201800.447    23201810.360
  22459144.162    -8413055.50549  -6546159.74846  22459143.159    22459152.572
  23180985.455   -12305161.80049  -9575340.70545  23180984.629    23180992.976
 03  3 30  2 28 30.0000000  0  8G11G23G31G14G25G 3G15G18
  23696507.608    -5383071.84449  -4183153.90645  23696507.309    23696515.385
  24071980.132    -1886225.77849  -1449368.86245  24071979.086    24071988.766
  22852616.849    -6197023.02249  -4819082.90345  22852616.273    22852625.605
  20332186.544   -19189902.78849 -14936047.65147  20332186.101    20332192.146
  23153258.276    -5193274.65049  -4034264.44945  23153258.203    23153268.259
  23216451.649    -9519868.39949  -7389250.47245  23216451.395    23216461.466
  22477007.342    -8319183.36449  -6473012.69446  22477006.352    22477015.918
  23193722.269   -12238225.80449  -9523182.79845  23193721.921    23193730.339
 03  3 30  2 29  0.0000000  0  8G11G23G31G14G25G 3G15G18
  23678541.313    -5477485.67749  -4256723.00545  23678541.067    23678549.085
  24083472.183    -1825833.75049  -1402310.15745  24083471.249    24083481.019
  22861665.457    -6149472.11749  -4782030.29045  22861664.998    22861674.279
  20337005.692   -19164577.57549 -14916313.71247  20337005.244    20337011.377
  23135171.063    -5288323.23349  -4108328.14345  23135170.994    23135180.971
  23231141.135    -9442674.38449  -7329099.35545  23231140.916    23231151.056
  22494927.566    -8225010.62049  -6399631.39846  22494926.727    22494936.514
  23206477.926   -12171194.23949  -9470950.46245  23206477.460    23206485.752
 03  3 30  2 29 30.0000000  0  8G11G23G31G14G25G 3G15G18
  23660607.274    -5571730.09349  -4330160.09145  23660606.953    23660615.090
  24094974.025    -1765391.02649  -1355211.92745  24094973.317    24094982.868
  22870794.431    -6101498.34149  -4744648.16445  22870794.009    22870803.509
  20341907.671   -19138817.06749 -14896240.58247  20341907.261    20341913.393
  23117110.768    -5383230.17849  -4182281.47245  23117110.737    23117120.490
  23245868.286    -9365282.80149  -7268794.31245  23245868.090    23245878.299
  22512904.612    -8130540.70149  -6326018.53546  22512903.781    22512913.614
  23219251.723   -12104068.92349  -9418645.05345  23219251.117    23219259.165
 03  3 30  2 30  0.0000000  0  8G11G23G31G14G25G 3G15G18
  23642705.847    -5665801.88249  -4403462.66745  23642705.626    23642713.942
  24106486.097    -1704895.92049  -1308072.89645  24106485.138    24106494.733
  22880003.784    -6053102.90749  -4706937.52145  22880003.233    22880012.918
  20346892.562   -19112621.60449 -14875828.53747  20346892.130    20346898.185
  23099078.372    -5477991.72949  -4256121.50545  23099078.181    23099087.804
  23260632.742    -9287695.23649  -7208336.55445  23260632.549    23260642.818
  22530938.073    -8035774.01449  -6252174.43846  22530937.267    22530947.112
  23232043.430   -12036848.56049  -9366265.58545  23232042.821    23232050.811
 03  3 30  2 30 30.0000000  0  8G11G23G31G14G25G 3G15G18
  23624837.585    -5759698.48149  -4476628.72645  23624837.426    23624846.192
  24118008.278    -1644348.15149  -1260892.82145  24118007.210    24118016.696
  22889293.022    -6004288.49249  -4668900.36445  22889292.432    22889302.078
  20351959.825   -19085993.18549 -14855079.12147  20351959.382    20351965.434
  23081074.037    -5572605.31049  -4329846.22845  23081073.805    23081083.284
  23275434.012    -9209914.79249  -7147728.50345  23275433.892    23275443.975
  22549027.630    -7940712.30949  -6178100.44746  22549026.943    22549036.785
  23244853.026   -11969533.21449  -9313812.08945  23244852.523    23244860.636
 03  3 30  2 31  0.0000000  0  8G11G23G31G14G25G 3G15G18
  23607003.064    -5853418.25249  -4549657.00945  23607002.893    23607011.871
  24129540.564    -1583747.79549  -1213671.79745  24129539.427    24129548.683
  22898661.383    -5955057.81649  -4630538.83945  22898660.757    22898670.221
  20357108.990   -19058933.92249 -14833993.97847  20357108.527    20357114.634
  23063098.208    -5667068.34949  -4403453.64245  23063097.930    23063107.356
  23290271.491    -9131944.63449  -7086972.61045  23290271.220    23290281.190
  22567173.196    -7845357.59349  -6103798.13846  22567172.541    22567182.241
  23257680.826   -11902123.22149  -9261284.85245  23257680.253    23257688.609
 03  3 30  2 31 30.0000000  0  8G11G23G31G14G25G 3G15G18
  23589202.780    -5946958.88949  -4622545.71145  23589202.545    23589211.601
  24141082.877    -1523094.59449  -1166409.57345  24141081.656    24141090.676
  22908108.475    -5905413.57749  -4591855.04345  22908107.827    22908117.294
  20362339.828   -19031445.40949 -14812574.35847  20362339.426    20362345.518
  23045151.421    -5761377.99749  -4476941.53245  23045151.175    23045160.540
  23305144.439    -9053788.27649  -7026071.63645  23305144.094    23305153.982
  22585374.253    -7749711.62549  -6029268.88546  22585373.481    22585383.132
  23270526.661   -11834618.70849  -9208683.97045  23270526.060    23270534.493
 03  3 30  2 32  0.0000000  0  8G11G23G31G14G25G 3G15G18
  23571437.253    -6040317.85649  -4695292.84145  23571437.023    23571445.818
  24152635.369    -1462387.91049  -1119105.69345  24152633.859    24152642.718
  22917633.744    -5855357.92149  -4552850.68245  22917633.173    22917642.615
  20367652.188   -19003529.16249 -14790821.44247  20367651.778    20367657.749
  23027234.374    -5855531.22049  -4550307.53345  23027234.168    23027243.518
  23320052.283    -8975448.09749  -6965027.41745  23320051.864    23320061.889
  22603630.428    -7653775.85449  -5954513.80446  22603629.633    22603639.167
  23283390.138   -11767019.60749  -9156009.36845  23283389.685    23283398.265
 03  3 30  2 32 30.0000000  0  8G11G23G31G14G25G 3G15G18
  23553706.813    -6133492.28149  -4767896.15445  23553706.509    23553715.238
  24164197.663    -1401626.78249  -1071759.36845  24164196.236    24164205.169
  22927236.827    -5804892.82149  -4513527.26245  22927236.364    22927245.915
  20373045.593   -18975186.56349 -14768736.29847  20373045.145    20373051.174
  23009347.703    -5949524.74249  -4623549.08545  23009347.620    23009356.939
  23334994.583    -8896926.23549  -6903841.62945  23334994.159    23335004.384
  22621941.499    -7557551.24249  -5879533.66446  22621940.676    22621950.231
  23296271.663   -11699325.14249  -9103260.45245  23296271.547    23296280.160
 03  3 30  2 33  0.0000000  0  8G11G23G31G14G25G 3G15G18
  23536011.865    -6226480.17849  -4840354.13245  23536011.518    23536020.067
  24175769.854    -1340811.00549  -1024370.47745  24175768.565    24175777.863
  22936917.457    -5754020.96049  -4473886.87645  22936917.053    22936926.487
  20378519.713   -18946419.55449 -14746320.44347  20378519.315    20378525.431
  22991491.974    -6043355.83349  -4696664.06745  22991491.912    22991501.329
  23349970.723    -8818226.05549  -6842516.88045  23349970.392    23349980.705
  22640307.097    -7461039.76149  -5804329.99046  22640306.262    22640315.813
  23309171.678   -11631535.26549  -9050437.18445  23309171.496    23309180.059
 03  3 30  2 33 30.0000000  0  8G11G23G31G14G25G 3G15G18
  23518352.855    -6319278.76449  -4912664.59745  23518352.553    23518360.876
  24187352.162    -1279940.02549   -976938.52945  24187351.606    24187361.000
  22946675.004    -5702744.59649  -4433931.31545  22946674.488    22946684.029
  20384074.461   -18917229.52549 -14723574.97147  20384074.039    20384080.089
  22973667.797    -6137021.49149  -4769650.15745  22973667.722    22973677.167
  23364980.183    -8739350.19549  -6781055.23345  23364979.971    23364990.299
  22658727.012    -7364242.93049  -5728903.95746  22658726.170    22658735.636
  23322090.190   -11563649.81049  -8997539.44345  23322089.792    23322098.353
 03  3 30  2 34  0.0000000  0  8G11G23G31G14G25G 3G15G18
  23500730.096    -6411885.91849  -4984825.90845  23500729.804    23500738.260
  24198945.328    -1219013.71749   -929463.50145  24198945.239    24198954.913
  22956509.030    -5651066.47049  -4393662.67945  22956508.410    22956518.105
  20389709.322   -18887618.60249 -14700501.52847  20389708.858    20389714.817
  22955875.457    -6230519.03449  -4842505.24345  22955875.469    22955885.087
  23380022.526    -8660301.84049  -6719459.18345  23380022.357    23380032.654
  22677200.788    -7267162.63849  -5653257.04745  22677199.951    22677209.402
  23335026.694   -11495668.89849  -8944567.31545  23335026.228    23335034.630
 03  3 30  2 34 30.0000000  0  8G11G23G31G14G25G 3G15G18
  23483144.059    -6504299.92549  -5056836.72045  23483143.848    23483152.456
  24210549.565    -1158032.08849   -881945.39745  24210549.476    24210559.390
  22966418.969    -5598989.61349  -4353083.32345  22966418.339    22966428.077
  20395423.776   -18857588.79649 -14677101.67847  20395423.302    20395429.283
  22938115.766    -6323846.11149  -4915227.50245  22938115.723    22938125.484
  23395097.291    -8581084.22849  -6657731.26045  23395096.961    23395107.204
  22695728.030    -7169800.87249  -5577390.80945  22695727.305    22695736.715
  23347980.967   -11427592.80949  -8891521.02145  23347980.600    23347989.232
 03  3 30  2 35  0.0000000  0  8G11G23G31G14G25G 3G15G18
  23465595.146    -6596518.71249  -5128695.41645  23465594.937    23465603.680
  24222164.651    -1096994.98749   -834384.04545  24222164.455    24222174.425
  22976404.254    -5546516.88749  -4312195.50845  22976403.616    22976413.321
  20401217.492   -18827142.28449 -14653377.11647  20401217.041    20401223.021
  22920388.975    -6417000.53549  -4987815.23045  22920388.895    22920398.749
  23410203.562    -8501700.84449  -6595874.16545  23410203.273    23410213.368
  22714308.462    -7072159.94649  -5501307.03845  22714307.772    22714317.240
  23360953.109   -11359421.99849  -8838400.91445  23360952.869    23360961.758
 03  3 30  2 35 30.0000000  0  8G11G23G31G14G25G 3G15G18
  23448084.137    -6688539.16749  -5200399.57345  23448083.959    23448092.700
  24233790.429    -1035901.52149   -786778.77745  24233790.097    24233800.117
  22986464.520    -5493650.12148  -4271000.65445  22986463.932    22986473.666
  20407090.408   -18796280.21549 -14629328.75047  20407089.965    20407095.873
  22902695.693    -6509978.66049  -5060265.58245  22902695.684    22902705.409
  23425340.949    -8422153.94749  -6533889.65645  23425340.604    23425350.780
  22732941.640    -6974240.94549  -5425006.59045  22732941.052    22732950.651
  23373943.495   -11291155.87449  -8785206.54745  23373943.356    23373952.420
 03  3 30  2 36  0.0000000  0  8G11G23G31G14G25G 3G15G18
  23430611.125    -6780360.30449  -5271948.40945  23430610.975    23430619.565
  24245426.820     -974752.18549   -739129.97745  24245426.431    24245436.280
  22996598.949    -5440393.06248  -4229501.66544  22996598.646    22996608.182
  20413041.817   -18765005.53149 -14604958.85747  20413041.346    20413047.266
  22885036.356    -6602778.83849  -5132577.27145  22885036.319    22885045.976
  23440508.718    -8342447.60749  -6471780.89045  23440508.293    23440518.564
  22751627.228    -6876046.60449  -5348491.59045  22751626.737    22751636.550
  23386952.266   -11222794.95349  -8731938.32145  23386952.030    23386961.102
 03  3 30  2 36 30.0000000  0  8G11G23G31G14G25G 3G15G18
  23413176.672    -6871979.33649  -5343339.76645  23413176.525    23413185.012
  24257073.926     -913546.22649   -691437.05045  24257073.388    24257083.194
  23006807.188    -5386747.82548  -4187700.17644  23006806.730    23006816.274
  20419071.397   -18733319.68549 -14580268.57847  20419070.921    20419076.892
  22867411.578    -6695397.76049  -5204747.72445  22867411.500    22867421.110
  23455706.182    -8262584.22349  -6409549.74845  23455705.743    23455716.130
  22770365.029    -6777578.27449  -5271763.09345  22770364.634    22770374.582
  23399979.409   -11154339.17349  -8678596.19345  23399978.851    23399987.856
 03  3 30  2 37  0.0000000  0  8G11G23G31G14G25G 3G15G18
  23395781.025    -6963394.34749  -5414572.12945  23395780.838    23395789.252
  24268731.663     -852283.85549   -643700.16645  24268731.147    24268740.970
  23017089.092    -5332717.63748  -4145598.73644  23017088.571    23017098.357
  20425178.812   -18701224.79249 -14555259.56447  20425178.323    20425184.321
  22849821.918    -6787833.05849  -5276775.10246  22849821.737    22849831.229
  23470932.822    -8182567.29949  -6347198.98145  23470932.461    23470942.874
  22789154.597    -6678838.25149  -5194822.89145  22789154.277    22789164.315
  23413024.545   -11085788.92749  -8625180.44145  23413023.720    23413032.562
 03  3 30  2 37 30.0000000  0  8G11G23G31G14G25G 3G15G18
  23378424.730    -7054602.03049  -5485642.94845  23378424.494    23378432.865
  24280400.414     -790963.83549   -595918.35345  24280400.029    24280409.770
  23027443.495    -5278304.30348  -4103198.69544  23027443.320
  20431363.834   -18668721.93849 -14529932.65347  20431363.372    20431369.395
  22832267.701    -6880081.31949  -5348656.74146  22832267.510    22832276.913
  23486188.336    -8102398.81149  -6284730.11545  23486187.960    23486198.500
  22807995.838    -6579827.48349  -5117671.71445  22807995.454    22808005.650
  23426087.366   -11017143.36149  -8571690.40645  23426086.588    23426095.500
 03  3 30  2 38  0.0000000  0  8G11G23G31G14G25G 3G15G18
  23361108.354    -7145598.71549  -5556549.35045  23361108.022    23361116.560
  24292080.221     -729584.75749   -548090.53145  24292080.003    24292089.862
                  -5223509.24447  -4060501.26943
  20437626.391   -18635812.05349 -14504288.58247  20437625.956    20437631.897
  22814749.792    -6972138.54749  -5420389.52246  22814749.597    22814758.950
  23501472.281    -8022080.94449  -6222144.84845  23501471.999    23501482.602
  22826888.503    -6480546.63349  -5040310.09045  22826888.024    22826898.338
  23439168.245   -10948401.42949  -8518125.26145  23439167.812    23439176.784
 03  3 30  2 38 30.0000000  0  8G11G23G31G14G25G 3G15G18
  23343832.191    -7236383.29249  -5627290.47445  23343832.022    23343840.617
  24303771.287     -668147.01249   -500216.97245  24303771.080    24303781.286
                  -5168335.95848  -4017509.09043
  20443965.923   -18602497.57749 -14478329.24047  20443965.447    20443971.442
  22797268.635    -7064002.65849  -5491971.82146  22797268.450    22797277.774
  23516783.941    -7941617.32049  -6159445.99645  23516783.689    23516794.389
  22845832.048    -6380998.41549  -4962740.12045  22845831.540    22845841.883
  23452267.492   -10879563.77049  -8464485.55045  23452267.273    23452276.193
 03  3 30  2 39  0.0000000  0  8G11G23G31G14G25G 3G15G18
  23326596.822    -7326954.03349  -5697864.96745  23326596.724    23326605.385
  24315473.657     -606650.64849   -452297.72345  24315473.329    24315483.670
                  -5112787.67148  -3944449.77643
  20450381.942   -18568780.88449 -14452056.48547  20450381.496    20450387.497
  22779824.623    -7155671.74649  -5563402.14646  22779824.356    22779833.642
  23532122.776    -7861011.32749  -6096636.20045  23532122.551    23532133.368
  22864826.186    -6281185.07349  -4884963.55945  22864825.620    22864835.845
  23465385.297   -10810630.77749  -8410771.55845  23465384.941    23465393.666
 03  3 30  2 39 30.0000000  0  8G11G23G31G14G25G 3G15G18
  23309402.766    -7417309.24549  -5768271.51745  23309402.716    23309411.368
  24327187.448     -545096.09149   -404333.14645  24327186.828    24327197.329
                  -5056867.78448  -3900974.01243
  20456874.011   -18534664.62049 -14425472.37247  20456873.561    20456879.656
  22762417.874    -7247143.81749  -5634678.94445  22762417.567    22762426.909
  23547487.978    -7780266.68449  -6033718.36745  23547487.664    23547498.573
  22883870.411    -6181109.04349  -4806982.31245  22883869.756    22883879.765
  23478521.157   -10741603.33849  -8356983.97845  23478520.698    23478529.096
 03  3 30  2 40  0.0000000  0  8G11G23G31G14G25G 3G15G18
  23292250.423    -7507445.61549  -5838507.54245  23292250.371    23292258.950
  24338912.796     -483482.00949   -356322.19145  24338911.961    24338922.080
                  -5000577.97648  -3857210.03243
  20463441.903   -18500149.89449 -14398577.76847  20463441.484    20463447.661
  22745049.478    -7338414.64249  -5705798.94046  22745049.180    22745058.494
  23562879.292    -7699385.32849  -5970694.01945  23562878.938    23562889.815
  22902964.416    -6080771.35749  -4728797.18045  22902963.608    22902973.518
  23491674.945   -10672480.47149  -8303122.03345  23491674.461    23491682.550
 03  3 30  2 40 30.0000000  0  8G11G23G31G14G25G 3G15G18
  23275140.191    -7597361.36049  -5908571.65745  23275139.996    23275148.572
  24350649.003     -421808.80749   -308265.16245  24350647.818    24350658.135
                  -4943921.77748  -3988783.87543
  20470085.234   -18465239.22649 -14371374.64647  20470084.795    20470090.940
  22727719.725    -7429482.33649  -5776760.65446  22727719.458    22727728.746
  23578295.829    -7618370.96249  -5907566.05345  23578295.445    23578306.378
  22922107.554    -5980174.54349  -4650410.12445  22922106.616    22922116.541
  23504846.871   -10603262.81849  -8249186.21145  23504846.453    23504854.121
 03  3 30  2 41  0.0000000  0  8G11G23G31G14G25G 3G15G18
  23258072.427    -7687053.38149  -5978461.45045  23258072.191    23258080.650
  24362396.263     -360075.21449   -260161.05345  24362395.105    24362405.879
                  -4886900.89148  -3944413.69943
  20476803.654   -18429933.46549 -14343863.65747  20476803.224    20476809.360
  22710429.331    -7520343.40649  -5847561.36546  22710429.107    22710438.395
  23593737.410    -7537225.86349  -5844336.19945  23593736.955    23593747.918
  22941299.822    -5879319.13849  -4571821.56445  22941298.809    22941308.706
  23518037.247   -10533949.13849  -8195175.57245  23518036.502    23518044.067
 03  3 30  2 41 30.0000000  0  8G11G23G31G14G25G 3G15G18
  23241047.613    -7776519.50549  -6048175.21145  23241047.428    23241055.716
  24374154.717     -298280.92048   -212009.66344  24374153.965    24374165.640
                  -4829518.18748  -3899767.18243
  20483596.768   -18394235.09949 -14316046.73647  20483596.401    20483602.584
  22693178.966    -7610995.18549  -5918199.00246  22693178.680    22693187.899
  23609203.338    -7455953.08249  -5781006.84245  23609202.839    23609213.693
  22960540.766    -5778207.49949  -4493033.33545  22960539.789    22960549.577
  23531245.911   -10464539.90749  -8141090.48045  23531244.847    23531252.236
 03  3 30  2 42  0.0000000  0  8G11G23G31G14G25G 3G15G18
  23224066.340    -7865757.16049  -6117710.94345  23224066.024    23224074.189
  24385925.126     -236425.38349   -163810.56845  24385924.457    24385936.611
                  -4771776.42848  -4033312.40843
  20490464.418   -18358145.58049 -14287925.02747  20490464.017    20490470.178
  22675968.800    -7701434.66049  -5988671.20046  22675968.584    22675977.835
  23624692.935    -7374555.38049  -5717580.12545  23624692.346    23624703.329
  22979829.994    -5676841.45249  -4414046.87145  22979829.105    22979838.819
  23544472.657   -10395034.71449  -8086930.61945  23544471.372    23544478.788
 03  3 30  2 42 30.0000000  0  8G11G23G31G14G25G 3G15G18
  23207128.950    -7954763.36249  -6187066.32845  23207128.590    23207136.778
  24397707.964     -174508.03849   -115563.28245  24397706.899    24397719.383
                  -4713678.02649  -3988041.07143
  20497406.126   -18321666.44049 -14259499.70547  20497405.732    20497411.912
  22658799.627    -7791659.11049  -6058975.85246  22658799.350    22658808.632
  23640205.805    -7293035.34949  -5654058.08645  23640205.306    23640216.191
  22999167.254    -5575222.48549  -4334863.32645  22999166.488    22999176.158
  23557717.242   -10325433.08349  -8032695.59345  23557716.132    23557723.623
 03  3 30  2 43  0.0000000  0  8G11G23G31G14G25G 3G15G18
  23190235.789    -8043536.92649  -6256240.42845  23190235.424    23190243.623
  24409502.575     -112528.96749    -67267.94244  24409501.124    24409513.580
                  -4655226.20649  -3942494.01144                  23146033.195
  20504421.454   -18284800.32149 -14230772.84647  20504421.105    20504427.238
  22641671.764    -7881666.02549  -6129110.99146  22641671.477    22641680.753
  23655741.194    -7211396.65449  -5590443.58445  23655740.701    23655751.443
  23018552.402    -5473353.11249  -4255484.65945  23018551.618    23018561.161
  23570979.707   -10255735.76949  -7978386.00445  23570978.892    23570986.624
 03  3 30  2 43 30.0000000  0  8G11G23G31G14G25G 3G15G18
  23173387.489    -8132074.04649  -6325230.31345  23173387.188    23173395.430
  24421308.968      -50486.59749    -18923.24844  24421307.380    24421319.796
  23157201.407    -4596422.57449  -3896673.03644  23157205.933    23157223.612
  20511510.495   -18247547.86949 -14201744.95847  20511510.057    20511516.073
  22624586.001    -7971451.50849  -6199073.58346  22624585.745    22624595.161
  23671298.811    -7129640.87849  -5526737.88045  23671298.441    23671309.005
  23037985.086    -5371233.96349  -4175911.35545  23037984.215    23037993.769
  23584260.475   -10185941.29649  -7924000.70545  23584260.117    23584267.959
 03  3 30  2 44  0.0000000  0  8G11G23G31G14G25G 3G15G18
  23156584.533    -8220373.26749  -6394034.80545  23156584.231    23156592.467
  24433127.248       11618.47549     29470.27945  24433125.829    24433137.889
  23168457.689    -4537270.77849  -3850580.77644  23168462.360    23168466.734
  20518672.348   -18209912.05649 -14172418.33747  20518671.899    20518677.904
  22607542.695    -8061013.84749  -6268862.28746  22607542.434    22607551.994
  23686877.963    -7047771.99349  -5462944.04245  23686877.685    23686888.121
  23057464.840    -5268867.70249  -4096145.49645  23057463.999    23057473.338
  23597559.921   -10116050.86249  -7869540.63245  23597559.630    23597567.463
 03  3 30  2 44 30.0000000  0  8G11G23G31G14G25G 3G15G18
  23139827.317    -8308433.00749  -6462652.68945  23139827.031    23139835.160
  24444957.257       73786.10549     77912.60245  24444956.159    24444967.832
  23179779.765    -4477774.25849  -3804219.90144  23179779.523    23179788.978
  20525906.718   -18171895.21249 -14142794.80547  20525906.291    20525912.321
  22590542.293    -8150350.82349  -6338475.39846  22590542.064    22590551.691
  23702477.959    -6965793.48849  -5399064.80245  23702477.786    23702488.237
  23076991.144    -5166256.81849  -4016189.01745  23076990.312    23076999.571
  23610877.946   -10046064.63149  -7815005.90945  23610877.500    23610885.165
 03  3 30  2 45  0.0000000  0  8G11G23G31G14G25G 3G15G18
  23123116.335    -8396250.12449  -6531081.51745  23123116.090    23123124.051
  24456799.348      136017.03749    126404.22945  24456798.460    24456810.153
  23191166.809    -4417935.44549  -3757592.30745  23191165.969    23191175.778
  20533213.254   -18133499.26049 -14112875.86747  20533212.773    20533218.832
  22573585.312    -8239459.59649  -6407910.67846  22573585.052    22573594.718
  23718098.259    -6883707.97749  -5335102.15745  23718098.043    23718108.695
  23096563.547    -5063402.75849  -3936043.04845  23096562.812    23096572.044
  23624214.470    -9975982.47649  -7760396.44745  23624213.767    23624221.227
 03  3 30  2 45 30.0000000  0  8G11G23G31G14G25G 3G15G18
  23106451.772    -8483823.26149  -6599320.21745  23106451.536    23106459.422
  24468653.663      198310.86149    174944.84645  24468652.943    24468664.395
  23202618.216    -4357757.88649  -3710700.74745  23202617.683    23202627.184
  20540591.335   -18094726.75749 -14082663.51247  20540590.885    20540596.881
  22556672.006    -8328338.11149  -6477166.54446  22556671.901    22556681.499
  23733738.241    -6801519.11449  -5271058.96245  23733737.945    23733748.810
  23116181.721    -4960308.48249  -3855709.90945  23116180.951    23116190.209
  23637569.150    -9905805.18049  -7705712.84845  23637568.092    23637575.501
 03  3 30  2 46  0.0000000  0  8G11G23G31G14G25G 3G15G18
  23089834.189    -8571149.66649  -6667366.66845  23089833.911    23089841.845
  24480520.443      260668.56049    223535.23545  24480519.478    24480530.462
  23214133.561    -4297243.69249  -3663546.90345  23214133.280    23214142.765
  20548040.954   -18055578.80449 -14052158.60147  20548040.497    20548046.416
  22539803.403    -8416982.81849  -6546240.21146  22539803.309    22539812.803
  23749397.615    -6719229.24949  -5206937.05745  23749397.254    23749408.236
  23135845.433    -4856975.12449  -3775190.46245  23135844.668    23135853.914
  23650941.929    -9835531.75449  -7650954.34745  23650940.684    23650948.124
 03  3 30  2 46 30.0000000  0  8G11G23G31G14G25G 3G15G18
  23073263.946    -8658226.71349  -6735218.82045  23073263.692    23073271.664
  24492399.608      323090.41249    272175.61345  24492398.305    24492409.034
  23225712.653    -4236395.67149  -3616132.92945  23225712.324    23225721.835
  20555561.586   -18016057.60049 -14021362.84147  20555561.121    20555567.071
  22522979.769    -8505391.01449  -6615129.59446  22522979.716    22522989.146
  23765075.754    -6636841.17949  -5142738.64445  23765075.450    23765086.263
  23155554.177    -4753404.48949  -3694486.12745  23155553.364    23155562.816
  23664332.684    -9765162.33349  -7596121.01345  23664331.524    23664339.086
 03  3 30  2 47  0.0000000  0  8G11G23G31G14G25G 3G15G18
  23056741.672    -8745051.48349  -6802874.37945  23056741.390    23056749.383
  24504290.989      385577.45249    320866.80245  24504289.603    24504299.822
  23237354.845    -4175216.11449  -3568460.61245  23237354.474    23237363.933
  20563152.983   -17976164.43949 -13990277.24247  20563152.536    20563158.517
  22506201.923    -8593559.03649  -6683831.82246  22506201.771    22506211.192
  23780772.125    -6554357.43449  -5078465.67645  23780771.784    23780782.547
  23175308.013    -4649597.93849  -3613597.96845  23175307.168    23175316.750
  23677741.495    -9694696.32549  -7541212.41845  23677740.602    23677748.310
 03  3 30  2 47 30.0000000  0  8G11G23G31G14G25G 3G15G18
  23040267.969    -8831621.18849  -6870331.19545  23040267.635    23040275.449
  24516194.543      448130.17649    369609.19245  24516193.342    24516203.050
  23249059.444    -4113707.75749  -3520532.08845  23249059.081    23249068.754
  20570814.764   -17935901.07949 -13958903.17047  20570814.322    20570820.393
  22489470.149    -8681484.56049  -6752345.09146  22489469.984    22489479.289
  23796486.188    -6471780.63049  -5014120.19345  23796485.865    23796496.617
  23195106.456    -4545557.29549  -3532527.40445  23195105.542    23195115.183
  23691168.835    -9624133.33149  -7486228.26645  23691168.186    23691175.931
 03  3 30  2 48  0.0000000  0  8G11G23G31G14G25G 3G15G18
  23023843.077    -8917933.75449  -6937587.64245  23023842.716    23023850.415
  24528110.498      510748.93849    418403.03644  24528109.273    24528118.963
  23260826.078    -4051873.36849  -3472349.51245  23260825.765    23260835.577
  20578546.615   -17895269.63549 -13927242.28947  20578546.219    20578552.273
  22472785.071    -8769164.88649  -6820667.29146  22472784.905    22472794.055
  23812217.235    -6389113.64849  -4949704.45245  23812216.885    23812227.692
  23214949.134    -4441284.75349  -3451276.14045  23214948.215    23214957.769
  23704614.644    -9553473.50449  -7431168.66545  23704614.158    23704622.045
 03  3 30  2 48 30.0000000  0  8G11G23G31G14G25G 3G15G18
  23007467.348    -9003987.18149  -7004642.15145  23007467.103    23007474.634
  24540038.942      573433.74749    467248.33444  24540037.925    24540047.133
  23272654.248    -3989716.16149  -3423915.38545  23272653.927    23272663.814
  20586348.145   -17854272.32249 -13895296.31447  20586347.718    20586353.763
  22456147.095    -8856597.45349  -6888796.42546  22456146.943    22456155.975
  23827964.788    -6306359.71749  -4885220.95445  23827964.464    23827975.224
  23234835.497    -4336782.42949  -3369845.82745  23234834.489    23234844.129
  23718079.161    -9482716.90549  -7376033.63145  23718078.716    23718086.597
 03  3 30  2 49  0.0000000  0  8G11G23G31G14G25G 3G15G18
  22991141.546    -9089779.13249  -7071492.91745  22991141.284    22991148.752
  24551979.975      636184.92349    516145.35044  24551979.058    24551988.076
  23284543.397    -3927239.05149  -3375231.97545  23284542.976    23284552.871
  20594218.767   -17812911.28649 -13863066.91147  20594218.369    20594224.479
  22439556.734    -8943779.59149  -6956730.41746  22439556.628    22439565.563
  23843728.236    -6223521.99849  -4820672.16445  23843727.780    23843738.901
  23254764.832    -4232052.23449  -3288237.95545  23254763.992    23254773.710
  23731562.340    -9411863.74149  -7320823.36245  23731561.631    23731569.595
 03  3 30  2 49 30.0000000  0  8G11G23G31G14G25G 3G15G18
  22974866.126    -9175306.94849  -7138137.84745  22974865.871    22974873.166
  24563933.633      699003.07949    565094.58844  24563932.784    24563941.559
  23296492.784    -3864444.73749  -3326301.39845  23296492.334    23296502.257
  20602158.423   -17771188.45149 -13830555.59547  20602158.023    20602164.008
  22423014.643    -9030708.47849  -7024467.08346  22423014.550    22423023.307
  23859507.097    -6140603.12849  -4756060.14645  23859506.737    23859517.948
  23274737.160    -4127096.22749  -3206454.13045  23274736.366    23274746.311
  23745063.958    -9340913.79049  -7265537.69045  23745062.995    23745070.882
 03  3 30  2 50  0.0000000  0  8G11G23G31G14G25G 3G15G18
  22958641.435    -9260568.69749  -7204575.45845  22958641.074    22958648.229
  24575899.782      761888.27049    614096.04144  24575899.079    24575907.903
  23308501.745    -3801336.54049  -3277126.22245  23308501.260    23308511.395
  20610166.464   -17729106.03849 -13797764.08747  20610166.009    20610172.049
  22406521.308    -9117381.77949  -7092004.58546  22406521.198    22406529.674
  23875300.953    -6057606.53749  -4691387.56345  23875300.443    23875311.817
  23294752.137    -4021916.35649  -3124495.85045  23294751.349    23294761.434
  23758583.681    -9269867.34849  -7210176.82845  23758582.686    23758590.333
 03  3 30  2 50 30.0000000  0  8G11G23G31G14G25G 3G15G18
  22942467.883    -9345561.11849  -7270803.19045  22942467.530    22942474.610
  24587878.707      824841.87649    663150.80444  24587878.098    24587887.466
  23320570.240    -3737916.21949  -3227707.82945  23320569.855    23320580.038
  20618242.677   -17686664.95149 -13764693.08547  20618242.238    20618248.406
  22390077.374    -9203795.78549  -7159340.04646  22390077.152    22390085.424
  23891109.301    -5974534.21049  -4626655.98245  23891108.779    23891120.065
  23314809.455    -3916513.56549  -3042363.87345  23314808.834    23314819.038
  23772121.791    -9198723.13649  -7154739.79245  23772120.794    23772128.587
 03  3 30  2 51  0.0000000  0  8G11G23G31G14G25G 3G15G18
  22926345.782    -9430282.34149  -7336819.60745  22926345.531    22926352.610
  24599870.667      887863.55549    712258.61444  24599870.364    24599880.127
  23332697.623    -3674187.22049  -3178048.91345  23332697.209    23332707.378
  20626386.597   -17643867.71649 -13731344.56747  20626386.200    20626392.434
  22373683.087    -9289948.30349  -7226471.75146  22373682.822    22373690.958
  23906931.317    -5891389.44449  -4561867.95245  23906930.886    23906942.095
  23334908.917    -3810890.54249  -2960060.28345  23334908.269    23334918.589
  23785678.165    -9127481.67849  -7099226.96045  23785677.389    23785685.177
 03  3 30  2 51 30.0000000  0  8G11G23G31G14G25G 3G15G18
  22910275.811    -9514730.12549  -7402622.95845  22910275.476    22910282.574
  24611876.090      950953.82249    761419.88244  24611875.803    24611885.681
  23344883.256    -3610152.31949  -3128151.63745  23344882.713    23344892.949
  20634598.002   -17600716.62749 -13697720.32247  20634597.605    20634603.755
  22357338.985    -9375836.61949  -7293397.58146  22357338.736    22357346.881
  23922766.372    -5808175.17249  -4497025.74445  23922766.034    23922777.297
  23355050.008    -3705048.97449  -2877586.39845  23355049.356    23355059.766
  23799253.086    -9056143.42149  -7043638.70445  23799252.619    23799260.354
 03  3 30  2 52  0.0000000  0  8G11G23G31G14G25G 3G15G18
  22894258.350    -9598902.08949  -7468211.37846  22894257.935    22894265.215
  24623894.892     1014112.79449    810634.68444  24623894.563    24623904.461
  23357126.285    -3545814.76449  -3078018.53445  23357125.748    23357135.943
  20642876.430   -17557213.60749 -13663821.84947  20642876.004    20642881.998
  22341045.695    -9461458.13449  -7360115.51646  22341045.406    22341053.705
  23938614.111    -5724894.52149  -4432131.78845  23938613.822    23938625.137
  23375232.318    -3598991.31149  -2794944.14145  23375231.554    23375242.071
  23812846.487    -8984708.29149  -6987974.96545  23812846.390    23812853.729
 03  3 30  2 52 30.0000000  0  8G11G23G31G14G25G 3G15G18
  22878293.648    -9682796.11749  -7533583.23346  22878293.277    22878300.750
  24635926.846     1077340.42849    859902.97745  24635926.202    24635936.427
  23369426.327    -3481177.82849  -3027652.14245  23369425.733    23369435.719
  20651221.293   -17513361.05249 -13629650.99947  20651220.847    20651226.853
  22324803.471    -9546810.76749  -7426623.92846  22324803.181    22324811.614
  23954473.979    -5641550.86249  -4367188.74945  23954473.663    23954484.876
  23395455.497    -3492719.99549  -2712135.38845  23395454.583    23395465.125
  23826458.810    -8913176.11649  -6932235.59545  23826458.486    23826466.024
 03  3 30  2 53  0.0000000  0  8G11G23G31G14G25G 3G15G18
  22862382.190    -9766410.41849  -7598737.12846  22862381.863    22862389.441
  24647971.783     1140636.45249    909224.56645  24647971.055    24647981.388
  23381782.774    -3416245.21949  -2977055.36045  23381782.158    23381791.867
  20659632.086   -17469161.63749 -13595209.87147  20659631.665    20659637.751
  22308612.634    -9631893.00849  -7492921.65246  22308612.380    22308620.965
  23970345.244    -5558147.76249  -4302199.40845  23970344.995    23970355.922
  23415718.681    -3386237.62249  -2629162.17745  23415717.586    23415728.224
  23840089.705    -8841547.45149  -6876421.06245  23840089.120    23840096.717
 03  3 30  2 53 30.0000000  0  8G11G23G31G14G25G 3G15G18
  22846524.424    -9849742.42849  -7663671.05046  22846524.161    22846531.715
  24660029.708     1204001.83549    958600.17845  24660029.187    24660039.483
  23394195.128    -3351019.05249  -2926229.83045  23394194.406    23394203.924
  20668108.670   -17424616.86049 -13560499.63247  20668108.236    20668114.287
  22292473.888    -9716701.22149  -7559005.84346  22292473.702    22292482.419
  23986227.319    -5474687.34849  -4237165.41245  23986226.991    23986238.035
  23436021.355    -3279545.67349  -2546025.66345  23436020.301    23436031.061
  23853738.882    -8769822.12749  -6820531.21345  23853738.120    23853745.732
 03  3 30  2 54  0.0000000  0  8G11G23G31G14G25G 3G15G18
  22830721.048    -9932789.01849  -7728382.55646  22830720.831    22830728.278
  24672100.903     1267437.70249   1008030.70345  24672100.600    24672111.048
  23406662.712    -3285501.59049  -2875177.34245  23406662.174    23406671.559
  20676650.786   -17379727.99149 -13525521.26947  20676650.333    20676656.317
  22276388.067    -9801231.75049  -7624873.66046  22276387.908    22276396.715
  24002119.862    -5391171.82049  -4172088.46245  24002119.538    24002130.526
  23456363.788    -3172645.36049  -2462726.77545  23456362.868    23456373.678
  23867406.567    -8697999.31749  -6764565.39945  23867405.648    23867413.363
 03  3 30  2 54 30.0000000  0  8G11G23G31G14G25G 3G15G18
  22814972.527   -10015547.81349  -7792869.80846  22814972.333    22814979.663
  24684185.788     1330944.44949   1057516.47145  24684185.643    24684196.199
  23419185.126    -3219695.87349  -2823900.24545  23419184.595    23419194.170
  20685257.856   -17334497.27049 -13490276.52747  20685257.454    20685263.442
  22260355.629    -9885482.09449  -7690523.16146  22260355.467    22260364.324
  24018022.480    -5307603.99549  -4106970.74145  24018022.039    24018033.129
  23476745.507    -3065538.85149  -2379267.22245  23476744.648    23476755.469
  23881092.851    -8626079.10349  -6708523.67745  23881091.864    23881099.475
 03  3 30  2 55  0.0000000  0  8G11G23G31G14G25G 3G15G18
  22799279.199   -10098017.00049  -7857131.39546  22799278.928    22799286.271
  24696284.325     1394521.70949   1107057.18445  24696284.068    24696294.660
  23431761.798    -3153605.44649  -2772401.27445  23431761.160    23431770.821
  20693929.598   -17288927.17949 -13454767.34047  20693929.161    20693935.174
  22244376.773    -9969450.52649  -7755952.98546  22244376.639    22244385.561
  24033934.241    -5223987.41549  -4041815.05945  24033933.804    24033945.085
  23497166.008    -2958228.85949  -2295649.10145  23497165.201    23497175.883
  23894797.641    -8554062.04749  -6652406.50345  23894796.327    23894803.896
 03  3 30  2 55 30.0000000  0  8G11G23G31G14G25G 3G15G18
  22783641.392   -10180194.08349  -7921165.37746  22783641.074    22783648.523
  24708396.643     1458169.98649   1156653.23845  24708396.054    24708406.639
  23444392.061    -3087233.10249  -2720682.62345  23444391.505    23444401.097
  20702665.467   -17243019.65949 -13418995.22347  20702665.023    20702671.034
  22228452.201   -10053134.26549  -7821160.96846  22228452.063    22228460.952
  24049854.645    -5140325.02949  -3976623.66845  24049854.242    24049865.777
  23517624.774    -2850717.29249  -2211873.90745  23517623.948    23517634.459
  23908520.981    -8481947.66049  -6596213.50245  23908519.286    23908527.130
 03  3 30  2 56  0.0000000  0  8G11G23G31G14G25G 3G15G18
  22768059.685   -10262076.38649  -7984969.66646  22768059.301    22768066.810
  24720522.564     1521890.09749   1206305.26245  24720521.679    24720532.355
  23457075.502    -3020581.25449  -2668746.17445  23457074.965    23457084.521
  20711465.270   -17196776.33649 -13382961.44247  20711464.821    20711470.754
  22212582.531   -10136529.86049  -7886144.42046  22212582.369    22212591.198
  24065783.266    -5056619.39149  -3911398.58245  24065782.815    24065794.491
  23538121.387    -2743005.53149  -2127942.73145  23538120.638    23538131.265
  23922262.602    -8409735.56449  -6539944.38145  23922260.804    23922268.664
 03  3 30  2 56 30.0000000  0  8G11G23G31G14G25G 3G15G18
  22752534.555   -10343661.08449  -8048542.05646  22752534.159    22752541.605
  24732661.991     1585682.75348   1256013.78345  24732661.005    24732671.759
  23469811.599    -2953652.54149  -2616593.99645  23469811.008    23469820.818
  20720328.689   -17150198.75949 -13346667.19947  20720328.205    20720334.234
  22196768.194   -10219634.46649  -7950901.12746  22196767.978    22196776.777
  24081719.830    -4972872.83749  -3846141.61845  24081719.362    24081731.064
  23558655.829    -2635095.14149  -2043856.77945  23558655.143    23558665.855
  23936022.567    -8337425.47849  -6483598.88945  23936020.947    23936028.933
 03  3 30  2 57  0.0000000  0  8G11G23G31G14G25G 3G15G18
  22737066.548   -10424945.54149  -8111880.47846  22737066.107    22737073.535
  24744815.102     1649548.37848   1305779.16245  24744814.162    24744825.063
  23482599.881    -2886449.92549  -2564228.36645  23482599.365    23482609.146
  20729255.208   -17103289.11049 -13310114.20247  20729254.766    20729260.845
  22181009.634   -10302445.56249  -8015429.13046  22181009.417    22181018.180
  24097663.678    -4889087.88749  -3780854.73445  24097663.345    24097674.909
  23579227.909    -2526988.22949  -1959617.68045  23579227.241    23579237.992
  23949801.075    -8265017.32249  -6427176.98345  23949799.669    23949807.731
 03  3 30  2 57 30.0000000  0  8G11G23G31G14G25G 3G15G18
  22721656.027   -10505927.50549  -8174983.19646  22721655.625    22721663.103
  24756982.098     1713487.35948   1355601.69644  24756981.190    24756992.145
  23495439.596    -2818976.20049  -2511651.49745  23495439.156    23495449.058
  20738244.731   -17056048.97349 -13273303.68247  20738244.302    20738250.314
  22165307.350   -10384960.57149  -8079726.42546  22165307.197    22165315.861
  24113614.281    -4805267.24349  -3715540.03445  24113614.042    24113625.403
  23599837.068    -2418686.43249  -1875226.74545  23599836.384    23599847.071
  23963598.309    -8192510.83249  -6370678.44545  23963597.227    23963605.207
 03  3 30  2 58  0.0000000  0  8G11G23G31G14G25G 3G15G18
  22706303.541   -10586604.97849  -8237848.66446  22706303.163    22706310.765
  24769163.328     1777499.78948   1405481.46944  24769162.487    24769173.133
  23508330.286    -2751234.66549  -2458865.94745  23508329.942    23508339.914
  20747296.643   -17008480.91749 -13236237.64947  20747296.196    20747302.142
  22149661.958   -10467176.97249  -8143791.02846  22149661.808    22149670.323
  24129570.915    -4721414.47049  -3650200.29845  24129570.855    24129582.056
  23620482.559    -2310192.50649  -1790686.09845  23620482.071    23620492.799
  23977414.387    -8119905.98349  -6314103.24845  23977413.462    23977421.355
 03  3 30  2 58 30.0000000  0  8G11G23G31G14G25G 3G15G18
  22691009.442   -10666975.78149  -8300475.17346  22691009.151    22691016.792
  24781358.616     1841585.52548   1455418.36444  24781357.454    24781368.301
  23521271.450    -2683228.91149  -2405874.50445  23521271.043    23521281.086
  20756410.353   -16960587.58449 -13198918.14047  20756409.917    20756415.867
  22134073.877   -10549092.74449  -8207621.38646  22134073.730    22134082.020
  24145533.150    -4637532.90649  -3584838.13045  24145532.996    24145544.108
  23641164.237    -2201509.07649  -1705997.76145  23641163.853    23641174.511
  23991248.976    -8047203.72849  -6257452.15845  23991248.344    23991256.104
 03  3 30  2 59  0.0000000  0  7G11G31G14G25G 3G15G18
  22675774.336   -10747036.61849  -8362860.14846  22675774.078    22675781.644
  23534262.612    -2614960.18049  -2352678.13945  23534262.239    23534272.308
  20765585.926   -16912369.29349 -13161345.42247  20765585.534    20765591.472
  22118543.836   -10630703.96349  -8271214.43046  22118543.621    22118551.758
  24161500.587    -4553623.82149  -3519454.51345  24161500.331    24161511.518
  23661882.117    -2092636.30649  -1621161.90645  23661881.501    23661892.227
  24005102.347    -7974402.27549  -6200723.77945  24005101.854    24005109.773
 03  3 30  2 59 30.0000000  0  7G11G31G14G25G 3G15G18
  22660598.591   -10826785.29849  -8425001.86946  22660598.364    22660605.823
  23547303.206    -2546432.02249  -2299279.62945  23547302.851    23547312.880
  20774822.966   -16863828.50549 -13123521.40647  20774822.540    20774828.464
  22103072.174   -10712008.27549  -8334568.32446  22103071.932    22103079.975
  24177472.625    -4469690.32949  -3454051.86945  24177472.334    24177483.728
  23682635.326    -1983576.97549  -1536180.68345  23682634.643    23682645.656
  24018974.677    -7901501.97149  -6143918.37045  24018974.310    24018982.188
 03  3 30  3  0  0.0000000  0  7G11G31G14G25G 3G15G18
  22645482.253   -10906221.04949  -8486899.74646  22645482.089    22645489.426
  23560392.291    -2477649.14449  -2245682.63845  23560391.860    23560401.913
  20784120.560   -16814969.07349 -13085449.09647  20784120.143    20784126.015
  22087659.059   -10793004.66549  -8397682.28046  22087658.822    22087666.792
  24193448.479    -4385737.11749  -3388633.86645  24193448.184    24193459.750
  23703423.291    -1874334.89849  -1451057.05745  23703422.872    23703433.806
  24032865.568    -7828504.79649  -6087037.45045  24032865.223    24032873.088
 03  3 30  3  0 30.0000000  0  7G11G31G14G25G 3G15G18
  22630426.176   -10985340.86149  -8548551.44346  22630425.942    22630433.166
  23573529.289    -2408613.81749  -2191888.93145  23573528.835    23573538.925
  20793478.462   -16765792.33149 -13047129.52847  20793478.095    20793484.029
  22072305.062   -10873690.35749  -8460554.14546  22072304.851    22072312.670
  24209427.596    -4301766.16449  -3323202.04945  24209427.223    24209438.995
  23724245.959    -1764911.41949  -1365792.06545  23724245.427    23724256.493
  24046775.060    -7755409.67549  -6030080.20345  24046774.775    24046782.570
 03  3 30  3  1  0.0000000  0  7G11G31G14G25G 3G15G18
  22615430.679   -11064142.44049  -8609955.18746  22615430.393    22615437.575
  23586713.810    -2339328.93449  -2137900.75645  23586713.288    23586723.370
  20802896.510   -16716300.22849 -13008564.23047  20802896.144    20802902.093
  22057010.775   -10954062.16349  -8523181.41846  22057010.540    22057018.249
  24225409.535    -4217780.36849  -3257758.66945  24225409.148    24225420.840
  23745102.550    -1655308.60349  -1280387.33545  23745102.087    23745113.169
  24060703.239    -7682216.50949  -5973046.55945  24060702.852    24060710.707
 03  3 30  3  1 30.0000000  0  7G11G31G14G25G 3G15G18
  22600496.271   -11142623.50249  -8671109.16046  22600495.942    22600503.089
  23599945.140    -2269797.67449  -2083720.60345  23599944.668    23599954.831
  20812374.255   -16666494.93849 -12969754.89447  20812373.784    20812379.723
  22041776.564   -11034117.96149  -8585562.44246  22041776.326    22041784.066
  24241393.647    -4133782.80949  -3192306.11945  24241393.313    24241404.945
  23765992.845    -1545528.60849  -1194844.53245  23765992.456    23766003.592
  24074650.320    -7608925.65349  -5915936.81745  24074649.716    24074657.335
 03  3 30  3  2  0.0000000  0  7G11G31G14G25G 3G15G18
  22585623.160   -11220782.29349  -8732012.01746  22585622.889    22585629.908
  23613222.761    -2200023.53449  -2029351.20945  23613222.226    23613232.518
  20821910.768   -16616379.12149 -12930703.57847  20821910.372    20821916.405
  22026602.716   -11113855.77649  -8647695.68646  22026602.491    22026610.357
  24257379.512    -4049776.69749  -3126846.88645  24257379.086    24257390.816
  23786916.661    -1435573.92249  -1109165.62045  23786916.330    23786927.395
  24088615.968    -7535537.44649  -5858751.22645  24088615.149    24088622.335
 03  3 30  3  2 30.0000000  0  7G11G31G14G25G 3G15G18
  22570811.827   -11298616.23649  -8792661.74646  22570811.553    22570818.506
  23626546.104    -2130009.21549  -1974794.65545  23626545.543    23626555.911
  20831506.328   -16565954.37649 -12891411.55347  20831505.889    20831511.863
  22011489.922   -11193272.59349  -8709578.80246  22011489.773    22011497.754
  24273366.680    -3965764.55849  -3061382.97945  24273366.128    24273378.020
  23807873.453    -1325446.32949  -1023351.97345  23807872.972    23807884.073
  24102600.149    -7462051.46049  -5801489.45045  24102599.058    24102606.122
 03  3 30  3  3  0.0000000  0  7G11G31G14G25G 3G15G18
  22556062.934   -11376122.08549  -8853055.81746  22556062.633    22556069.437
  23639914.705    -2059756.86549  -1920052.62745  23639914.158    23639924.566
  20841160.414   -16515221.90749 -12851879.74147  20841159.965    20841165.920
  21996438.960   -11272365.27849  -8771209.35046  21996438.803    21996446.855
  24289354.673    -3881748.05349  -2995915.67245  24289354.209    24289365.984
  23828862.829    -1215146.97849   -937404.49145  23828862.432    23828873.452
  24116602.694    -7388466.68949  -5744150.71545  24116601.545    24116608.676
 03  3 30  3  3 30.0000000  0  7G11G31G14G25G 3G15G18
  22541377.046   -11453296.69049  -8913191.78446  22541376.780    22541383.433
  23653328.186    -1989268.83149  -1865126.95345  23653327.602    23653337.966
  20850872.724   -16464183.25749 -12812109.34147  20850872.282    20850878.262
  21981450.429   -11351130.35249  -8832584.61846  21981450.259    21981458.312
  24305343.059    -3797729.54549  -2930446.78845  24305342.621    24305354.265
  23849884.579    -1104677.39849   -851324.36345  23849884.119    23849895.155
  24130623.900    -7314782.80149  -5686734.70445  24130623.047    24130630.284
 03  3 30  3  4  0.0000000  0  7G11G31G14G25G 3G15G18
  22526754.710   -11530137.10749  -8973067.35546  22526754.412    22526761.086
  23666786.063    -1918547.42349  -1810019.43245  23666785.535    23666795.841
  20860642.974   -16412839.72349 -12772101.36847  20860642.558    20860648.633
  21966524.820   -11429564.74649  -8893702.21946  21966524.612    21966532.678
  24321331.311    -3713711.20849  -2864978.04045  24321330.853    24321342.529
  23870938.502     -994038.96149   -765112.65445  23870937.944    23870948.840
  24144664.064    -7240998.61849  -5629240.55645  24144663.568    24144671.145
 03  3 30  3  4 30.0000000  0  7G11G31G14G25G 3G15G18
  22512195.985   -11606642.51249  -9032681.88746  22512195.712    22512202.552
  23680287.525    -1847597.02649  -1754733.48545  23680287.068    23680297.330
  20870470.722   -16361194.74149 -12731858.51347  20870470.304    20870476.328
  21951662.315   -11507667.50349  -8954561.39546  21951662.121    21951670.198
  24337318.519    -3629697.28549  -2799512.72445  24337317.986    24337329.941
  23892023.822     -883235.29349   -678772.18945  23892023.237    23892034.220
  24158723.159    -7167115.85649  -5571669.56545  24158722.934    24158730.470
 03  3 30  3  5  0.0000000  0  7G11G31G14G25G 3G15G18
  22497701.352   -11682810.57849  -9092033.55446  22497701.146    22497708.156
  23693831.917    -1776420.80849  -1699271.57145  23693831.532    23693841.721
  20880355.449   -16309250.40149 -12691382.38147  20880354.951    20880360.997
  21936863.243   -11585436.45449  -9015160.46746  21936863.096    21936871.268
  24353304.387    -3545690.60649  -2734053.02845  24353303.819    24353315.890
  23913140.216     -772268.61049   -592304.71245  23913139.648    23913150.421
  24172801.212    -7093134.55649  -5514021.80245  24172801.098    24172808.855
 03  3 30  3  5 30.0000000  0  7G11G31G14G25G 3G15G18
  22483271.363   -11758639.36049  -9151120.84746  22483271.205    22483278.274
  23707418.663    -1705022.16649  -1643636.33845  23707418.256    23707428.307
  20890296.509   -16257008.98149 -12650674.76247  20890296.059    20890302.164
  21922128.188   -11662869.36149  -9075497.68846  21922128.056    21922136.229
  24369288.472    -3461694.15749  -2668601.36645  24369287.953    24369299.833
  23934287.240     -661141.36949   -505712.10645  23934286.708    23934296.870
  24186898.151    -7019054.80449  -5456297.34145  24186897.979    24186905.894
 03  3 30  3  6  0.0000000  0  7G11G31G14G25G 3G15G18
  22468906.566   -11834127.04449  -9209942.34746  22468906.370    22468913.316
  23721047.153    -1633404.53149  -1587830.45745  23721046.741    23721056.680
  20900293.746   -16204472.94649 -12609737.57547  20900293.318    20900299.434
  21907457.600   -11739963.98349  -9135571.31246  21907457.413    21907465.496
  24385270.063    -3377711.15649  -2603160.19145  24385269.479    24385281.271
  23955464.494     -549855.95149   -418996.23545  23955463.807    23955473.750
  24201013.538    -6944877.16149  -5398496.61045  24201013.378    24201021.436
 03  3 30  3  6 30.0000000  0  7G11G31G14G25G 3G15G18
  22454607.313   -11909270.91449  -9268495.94246  22454607.049    22454613.883
  23734716.921    -1561570.55749  -1531855.98845  23734716.407    23734726.241
  20910346.811   -16151644.05349 -12568572.19447  20910346.408    20910352.364
  21892851.844   -11816717.38049  -9195379.04546  21892851.664    21892859.657
  24401248.556    -3293744.35049  -2537731.58545  24401248.037    24401259.706
  23976671.257     -438414.30349   -332158.62645  23976670.706    23976680.281
  24215147.627    -6870601.27348  -5340619.33845  24215147.293    24215155.745
 03  3 30  3  7  0.0000000  0  7G11G31G14G25G 3G15G18
  22440374.022   -11984068.04149  -9326779.36746  22440373.672    22440380.560
  23748427.274    -1489522.74849  -1475714.90545  23748426.786    23748436.550
  20920455.317   -16098523.92849 -12527179.87247  20920454.801    20920460.724
  21878311.375   -11893126.87849  -9254918.80746  21878311.231    21878319.224
  24417223.608    -3209795.82949  -2472317.24145  24417222.988    24417234.636
  23997907.393     -326817.93749   -245200.47145  23997906.875    23997916.455
  24229300.507    -6796226.50948  -5282664.98744  24229300.345    24229308.926
 03  3 30  3  7 30.0000000  0  7G11G31G14G25G 3G15G18
  22426207.070   -12058515.89849  -9384790.63446  22426206.690    22426213.701
  23762177.733    -1417263.74049  -1419409.25545  23762177.157    23762187.097
  20930618.680   -16045114.21849 -12485561.89447  20930618.245    20930624.297
  21863836.940   -11969189.75549  -9314188.47146  21863836.771    21863844.791
  24433194.677    -3125867.79049  -2406918.88245  24433193.931    24433205.700
  24019172.878     -215068.60249   -158123.11045  24019172.233    24019181.750
  24243471.762    -6721752.54248  -5224633.31844  24243472.045    24243480.982
 03  3 30  3  8  0.0000000  0  7G11G31G14G25G 3G15G18
  22412106.849   -12132612.29449  -9442528.03346  22412106.502    22412113.564
  23775967.632    -1344796.48949  -1362941.33545  23775967.101    23775977.142
  20940836.990   -15991416.79549 -12443719.73747  20940836.531    20940842.559
  21849429.024   -12044903.31749  -9373185.93746  21849428.846    21849436.898
  24449161.195    -3041962.86649  -2341538.52445  24449160.578    24449172.312
  24040466.988     -103168.19249    -70928.03745  24040466.252    24040475.778
  24257661.949    -6647179.00748  -5166524.08844  24257662.480    24257671.839
 03  3 30  3  8 30.0000000  0  7G11G31G14G25G 3G15G18
  22398073.991   -12206354.35649  -9499989.30946  22398073.747    22398080.717
  23789796.756    -1272123.84449  -1306313.35945  23789796.387    23789806.453
  20951109.676   -15937433.56149 -12401654.86747  20951109.229    20951115.160
  21835088.167   -12120264.57649  -9431908.88346  21835087.973    21835096.015
  24465122.629    -2958083.84049  -2276178.31145  24465122.069    24465134.317
  24061789.266        8881.36749     16383.25645  24061788.520    24061798.069
  24271871.532    -6572505.69648  -5108337.10644  24271872.512    24271881.454
 03  3 30  3  9  0.0000000  0  7G11G31G14G25G 3G15G18
  22384108.778   -12279740.92949  -9557173.58246  22384108.594    22384115.516
  23803664.229    -1199250.01549  -1249528.60645  23803663.906    23803673.885
  20961436.127   -15883167.62649 -12359369.71047  20961435.660    20961441.621
  21820814.616   -12195272.55949  -9490356.55646  21820814.434    21820822.343
  24481078.791    -2874234.42949  -2210841.17345  24481078.261    24481090.634
  24083139.263      121076.60849    103808.06945  24083138.620    24083148.274
  24286100.605    -6497734.25449  -5050073.66244  24286101.363    24286109.898
 03  3 30  3  9 30.0000000  0  7G11G31G14G25G 3G15G18
  22370211.490   -12352770.97649  -9614080.05346  22370211.286    22370218.239
  23817569.190    -1126179.04149  -1192590.23045  23817568.720    23817578.924
  20971815.716   -15828622.14449 -12316866.72247  20971815.334    20971821.295
  21806608.455   -12269925.82849  -9548527.83046  21806608.299    21806616.087
  24497028.749    -2790418.24849  -2145529.97645  24497028.299    24497040.258
  24104516.519      233414.37249    191343.94145  24104516.090    24104525.722
  24300348.612    -6422865.39449  -4991734.27344  24300348.788    24300357.176
 03  3 30  3 10  0.0000000  0  7G11G31G14G25G 3G15G18
  22356382.662   -12425441.36849  -9670706.27746  22356382.459    22356389.445
  23831511.149    -1052913.01648  -1135499.86745  23831510.688    23831521.052
  20982248.539   -15773798.21749 -12274146.77147  20982248.052    20982253.978
  21792470.439   -12344221.16149  -9606420.19246  21792470.307    21792477.964
  24512971.860    -2706637.11449  -2080246.11844  24512971.523    24512982.905
  24125920.629      345893.41149    278989.88845  24125920.293    24125929.962
  24314615.262    -6347898.18749  -4933318.24044  24314615.281    24314622.650
 03  3 30  3 10 30.0000000  0  7G11G31G14G25G 3G15G18
  22342623.021   -12497749.21349  -9727049.98246  22342622.764    22342629.730
  23845489.757     -979454.27848  -1078259.35645  23845489.512    23845500.038
  20992733.831   -15718697.00949 -12231210.74247  20992733.413    20992739.418
  21778401.168   -12418155.72049  -9664031.43446  21778400.967    21778408.492
  24528907.690    -2622893.04549  -2014991.10944  24528907.351    24528918.869
  24147351.385      458512.41349    366744.89745  24147351.116    24147360.863
  24328900.221    -6272831.76349  -4874824.89144  24328900.303    24328907.700
 03  3 30  3 11  0.0000000  0  7G11G31G14G25G 3G15G18
  22328933.097   -12569691.41549  -9783108.75646  22328932.801    22328939.559
  23859504.776     -905805.35749  -1020870.63844  23859504.278    23859514.897
  21003271.766   -15663320.23849 -12188060.00647  21003271.358    21003277.140
  21764400.974   -12491726.63749  -9721359.31646  21764400.759    21764408.275
  24544836.029    -2539188.50849  -1949766.84744  24544835.724    24544847.416
  24168808.538      571269.71749    454607.67845  24168808.282    24168818.057
  24343203.627    -6197665.78149  -4816253.97744  24343203.711    24343211.683
 03  3 30  3 11 30.0000000  0  7G11G31G14G25G 3G15G18
  22315313.007   -12641266.16649  -9838881.20346  22315312.630    22315319.192
  23873555.478     -831969.76349   -963336.46444  23873554.902    23873565.318
  21013861.677   -15607670.36049 -12144696.45447  21013861.167    21013866.863
  21750470.305   -12564931.83349  -9778402.22946  21750470.163    21750477.666
  24560756.458    -2455526.57249  -1884575.81845  24560756.062    24560768.061
  24190291.738      684162.73449    542576.20645  24190291.290    24190301.203
  24357525.887    -6122400.64949  -4757605.83244  24357526.116    24357534.450
 03  3 30  3 12  0.0000000  0  7G11G31G14G25G 3G15G18
  22301763.110   -12712471.02349  -9894365.41846  22301762.771    22301769.212
  23887641.006     -757950.39749   -905659.08144  23887640.410    23887650.611
  21024502.996   -15551749.18349 -12101121.49047  21024502.560    21024508.357
  21736609.908   -12637768.67049  -9835158.10646  21736609.708    21736617.174
  24576668.228    -2371909.78449  -1819420.00144  24576667.866    24576680.036
  24211800.411      797189.43649    630648.90445  24211799.600    24211809.826
  24371867.216    -6047036.00249  -4698880.14245  24371867.488    24371875.955
 03  3 30  3 12 30.0000000  0  7G11G31G14G25G 3G15G18
  22288283.893   -12783303.94249  -9949559.81446  22288283.613    22288290.055
  23901760.877     -683750.36049   -847840.91444  23901760.146    23901770.695
  21035195.697   -15495558.69149 -12057336.67847  21035195.237    21035201.074
  21722820.019   -12710234.87849  -9891625.18847  21722819.785    21722827.223
  24592570.951    -2288340.81549  -1754301.43345  24592570.718    24592582.673
  24233333.948      910347.59349    718824.02945  24233333.013    24233343.163
  24386227.558    -5971572.20149  -4640077.18945  24386227.696    24386236.176
 03  3 30  3 13  0.0000000  0  7G11G31G14G25G 3G15G18
  22274875.946   -12853762.67549 -10004462.64146  22274875.645    22274882.200
  23915914.495     -609372.53849   -789884.24044  23915914.046    23915924.464
  21045939.313   -15439101.09449 -12013343.73947  21045938.810    21045944.515
  21709101.010   -12782328.18949  -9947801.70047  21709100.802    21709108.173
  24608464.049    -2204822.24649  -1689222.14545  24608463.834    24608475.827
  24254892.084     1023635.21249    807100.04145  24254891.048    24254901.292
  24400606.932    -5896009.05749  -4581196.83045  24400606.922    24400615.332
 03  3 30  3 13 30.0000000  0  7G11G31G14G25G 3G15G18
  22261539.614   -12923845.35149 -10059072.42846  22261539.267    22261545.912
  23930101.441     -534820.34649   -731791.67844  23930100.964    23930111.289
  21056733.182   -15382378.34349 -11969144.18047  21056732.698    21056738.359
  21695453.400   -12854046.65249 -10003686.13047  21695453.210    21695460.473
  24624347.218    -2121357.11749  -1624184.50945  24624346.939    24624358.772
  24276474.421     1137049.76349    895474.96045  24276473.227    24276483.674
  24415005.076    -5820346.76149  -4522239.21345  24415004.874    24415013.600
 03  3 30  3 14  0.0000000  0  7G11G31G14G25G 3G15G18
  22248275.257   -12993549.51249 -10113387.27346  22248274.940    22248281.637
  23944320.975     -460096.80949   -673565.60844  23944320.532    23944330.574
  21067577.106   -15325392.70449 -11924739.77747  21067576.650    21067582.371
  21681877.595   -12925387.87449 -10059276.60647  21681877.379    21681884.622
  24640219.480    -2037948.12749  -1559190.59045  24640219.141    24640231.199
  24298080.209     1250588.99749    983947.03345  24298079.000    24298089.657
  24429421.940    -5744585.42549  -4463204.42945  24429421.713    24429430.761
 03  3 30  3 14 30.0000000  0  7G11G31G14G25G 3G15G18
  22235083.510   -13062871.80549 -10167404.55246  22235083.212    22235089.930
  23958572.671     -385203.79248   -615207.49044  23958572.157    23958582.247
  21078471.073   -15268144.91249 -11880131.09747  21078470.549    21078476.352
  21668374.171   -12996348.25549 -10114570.31447  21668373.957    21668381.270
  24656080.939    -1954596.81349  -1494241.60745  24656080.380    24656092.601
  24319709.383     1364252.01549   1072515.55645  24319708.356    24319719.270
  24443857.916    -5668723.86949  -4404091.53645  24443857.729    24443866.752
 03  3 30  3 15  0.0000000  0  7G11G31G14G25G 3G15G18
  22221964.694   -13131811.27149 -10221123.51846  22221964.404    22221971.052
  23972855.783     -310145.39348   -556720.46744  23972855.248    23972865.325
  21089414.127   -15210638.22949 -11835320.68247  21089413.653    21089419.438
  21654943.352   -13066926.72449 -10169566.43547  21654943.195    21654950.591
  24671930.732    -1871306.98549  -1429340.56045  24671930.147    24671942.187
  24341361.283     1478035.47149   1161177.92345  24341360.347    24341371.626
  24458312.863    -5592763.00049  -4344901.27245  24458312.532    24458321.617
 03  3 30  3 15 30.0000000  0  7G11G31G14G25G 3G15G18
  22208919.402   -13200365.27349 -10274542.13146  22208919.055    22208925.559
  23987169.797     -234924.64648   -498106.94244  23987169.217    23987179.144
  21100406.177   -15152874.38549 -11790309.88747  21100405.713    21100411.375
  21641585.724   -13137121.24649 -10224263.37747  21641585.552    21641592.981
  24687768.084    -1788081.08549  -1364489.31945  24687767.665    24687779.783
  24363035.682     1591937.28649   1249932.51145  24363034.933    24363046.667
  24472786.712    -5516702.90449  -4285633.70145  24472786.502    24472795.180
 03  3 30  3 16  0.0000000  0  7G11G31G14G25G 3G15G18
  22195947.826   -13268531.40849 -10327658.50146  22195947.456    22195953.898
  24001514.102     -159543.85048   -439368.72344  24001513.928    24001524.222
  21111446.934   -15094854.68949 -11745099.72447  21111446.519    21111452.133
  21628301.707   -13206928.53049 -10278658.57547  21628301.549    21628309.052
  24703592.893    -1704920.68349  -1299689.11544  24703592.389    24703604.891
  24384732.632     1705955.98649   1338778.19945  24384731.960    24384743.659
  24487279.523    -5440543.24649  -4226288.53145  24487279.369    24487287.729
 03  3 30  3 16 30.0000000  0  7G11G31G14G25G 3G15G18
  22183050.285   -13336308.08549 -10380471.40846  22183049.924    22183056.406
  24015888.414      -84007.05748   -380508.93344  24015887.946    24015898.433
  21122535.938   -15036582.33049 -11699692.68747  21122535.463    21122541.095
  21615091.629   -13276347.35149 -10332751.07047  21615091.514    21615098.993
  24719404.875    -1621829.72249  -1234943.03644  24719404.253    24719416.598
  24406451.437     1820088.51949   1427712.58445  24406450.676    24406462.303
  24501791.242    -5364284.53749  -4166866.17645  24501790.913    24501799.228
 03  3 30  3 17  0.0000000  0  7G11G31G14G25G 3G15G18
  22170227.174   -13403693.08149 -10432979.10146  22170226.862    22170233.417
  24030292.001       -8317.04648   -321529.75444  24030291.545    24030301.824
  21133672.499   -14978058.98649 -11654090.06447  21133671.994    21133677.804
  21601956.011   -13345375.09049 -10386538.82747  21601955.857    21601963.311
  24735203.036    -1538810.60749  -1170252.95644  24735202.326    24735214.804
  24428191.341     1934332.90849   1516734.11845  24428190.596    24428202.554
  24516321.664    -5287926.76148  -4107366.65044  24516321.324    24516329.524
 03  3 30  3 17 30.0000000  0  7G11G31G14G25G 3G15G18
  22157479.255   -13470683.12349 -10485179.05346  22157478.957    22157485.600
  24044724.079       67524.25848   -262432.72544  24044723.884    24044734.276
  21144856.569   -14919285.62449 -11608292.62947  21144856.161    21144861.946
  21588895.337   -13414008.66349 -10440019.45347  21588895.219    21588902.605
  24750987.067    -1455864.89549  -1105620.03144  24750986.328    24750998.954
  24449952.260     2048688.02949   1605841.93444  24449951.581    24449963.675
  24530870.786    -5211468.46348  -4047788.81044  24530870.552    24530879.303
 03  3 30  3 18  0.0000000  0  7G11G31G14G25G 3G15G18
  22144807.038   -13537275.93449 -10537069.46546  22144806.700    22144813.343
  24059184.425      143513.67548   -203220.27144  24059183.966    24059194.646
  21156088.093   -14860264.10049 -11562301.82447  21156087.655    21156093.334
  21575910.168   -13482246.08849 -10493191.38347  21575910.048    21575917.320
  24766756.675    -1372995.36749  -1041046.49244  24766756.211    24766768.532
  24471733.778     2163151.66849   1695034.31544  24471732.902    24471745.820
  24545438.613    -5134910.13348  -3988133.03044  24545438.627    24545447.690
 03  3 30  3 18 30.0000000  0  7G11G31G14G25G 3G15G18
  22132210.699   -13603469.66449 -10588648.90946  22132210.350    22132216.969
  24073672.442      219648.07148   -143894.84444  24073671.872    24073682.271
  21167366.376   -14800996.70949 -11516119.43347  21167365.868    21167371.580
  21563000.867   -13550085.39449 -10546053.09147  21563000.705    21563007.836
  24782511.156    -1290204.62548   -976534.36044  24782510.795    24782523.314
  24493535.530     2277721.68949   1784309.61344  24493534.678    24493548.016
  24560025.845    -5058251.78348  -3928399.28944  24560025.689    24560035.205
 03  3 30  3 19  0.0000000  0  6G11G31G14G25G15G18
  22119691.380   -13669258.12449 -10639912.56346  22119691.107    22119697.628
  24088188.184      295928.29648    -84455.80244  24088187.525    24088197.971
  21178691.526   -14741481.59049 -11469743.99947  21178691.088    21178696.980
  21550168.505   -13617520.21249 -10598599.61447  21550168.299    21550175.417
  24515357.927     2392399.61549   1873668.97244  24515357.232    24515370.509
  24574633.174    -4981489.67648  -3868584.67644  24574633.084    24574642.500
 03  3 30  3 19 30.0000000  0  6G11G31G14G25G15G18
  22107248.360   -13734645.91949 -10690864.01346  22107248.131    22107254.624
  24102729.761      372344.51848    -24910.73944  24102728.987    24102739.669
  21190062.397   -14681727.09549 -11423182.04847  21190061.985    21190067.846
  21537412.136   -13684554.93149 -10650834.37547  21537411.940    21537419.176
  24537199.458     2507176.49849   1963105.46944  24537198.801    24537211.785
  24589259.215    -4904630.46248  -3808694.36144  24589259.189    24589268.641
 03  3 30  3 20  0.0000000  0  6G11G31G14G25G15G18
  22094882.117   -13799630.81249 -10741501.51446  22094881.862    22094888.269
  24117296.550      448893.91948     34738.12444  24117295.735    24117307.032
  21201478.535   -14621735.21049 -11376435.11147  21201478.032    21201483.871
  21524732.178   -13751187.70349 -10702755.91747  21524732.008    21524739.404
  24559059.500     2622050.31049   2052617.49944  24559058.716    24559071.405
  24603903.745    -4827673.93849  -3748728.23344  24603903.881    24603913.005
 03  3 30  3 20 30.0000000  0  5G11G31G14G25G15
  22082591.868   -13864216.23649 -10791827.74346  22082591.620    22082597.909
  24131887.276      525567.92948     94484.10544  24131886.611    24131897.898
  21212938.392   -14561513.65149 -11329509.21647  21212937.888    21212943.638
  21512128.225   -13817421.50149 -10754366.57447  21512128.044    21512135.505
  24580936.630     2737013.44349   2142199.12544  24580935.702    24580948.173
 03  3 30  3 21  0.0000000  0  5G11G31G14G25G15
  22070379.626   -13928391.61249 -10841834.46146  22070379.375    22070385.617
  24146502.703      602371.72348    154331.22144  24146502.224    24146513.346
  21224443.114   -14501056.11049 -11282399.43247  21224442.594    21224448.332
  21499602.243   -13883246.21549 -10805658.47447  21499602.035    21499609.415
  24602832.031     2852071.84349   2231854.98344  24602830.973    24602843.092
 03  3 30  3 21 30.0000000  0  5G11G31G14G25G15
  22058245.982   -13992153.81749 -10891519.23246  22058245.725    22058252.007
  24161142.508      679303.66148    214278.11744  24161142.287    24161153.033
  21235992.528   -14440363.13749 -11235106.19247  21235992.068    21235997.756
  21487154.734   -13948658.45249 -10856628.96647  21487154.502    21487161.803
  24624745.322     2967224.73849   2321584.45544  24624744.224    24624755.574
 03  3 30  3 22  0.0000000  0  5G11G31G14G25G15
  22046191.244   -14055501.11149 -10940880.70546  22046190.980    22046197.351
  24175805.889      756360.20548    274322.12744  24175805.798    24175816.306
  21247586.390   -14379437.18849 -11187631.41947  21247585.932    21247591.563
  21474786.028   -14013656.56549 -10907276.76447  21474785.775    21474792.977
  24646675.887     3082469.38149   2411385.41844  24646674.652    24646685.633
 03  3 30  3 22 30.0000000  0  5G11G31G14G25G15
  22034215.994   -14118431.18349 -10989917.07546  22034215.720    22034222.086
  24190492.457      833538.48048    334461.00144  24190492.111    24190502.919
  21259224.190   -14318280.06049 -11139976.50547  21259223.726    21259229.432
  21462496.551   -14078238.34949 -10957600.15347  21462496.263    21462503.356
  24668623.231     3197803.70049   2501256.27244  24668622.147    24668632.989
 03  3 30  3 23  0.0000000  0  4G11G31G14G25
  22022319.365   -14180948.33749 -11038631.68646  22022319.095    22022325.444
  24205200.207      910829.21448    394687.49244  24205199.910    24205210.931
  21270904.359   -14256899.84049 -11092147.75047  21270903.920    21270909.673
  21450285.399   -14142407.91349 -11007602.33347  21450285.107    21450292.170
 03  3 30  3 23 30.0000000  0  4G11G31G14G25
  22010499.364   -14243063.22949 -11087032.84946  22010499.079    22010505.354
  24219926.383      988216.46248    454989.17044  24219926.214    24219937.672
  21282624.223   -14195311.34249 -11044156.70847  21282623.786    21282629.541
  21438150.568   -14206176.03849 -11057291.69947  21438150.338    21438157.446
 03  3 30  3 24  0.0000000  0  4G11G31G14G25
  21998762.217   -14304742.71849 -11135094.74246  21998761.904    21998768.137
  24234676.381     1065728.39448    515388.01744  24234676.183    24234687.746
  21294389.252   -14133485.68349 -10995980.85247  21294388.821    21294394.574
  21426098.511   -14269509.63149 -11106642.47547  21426098.281    21426105.413
 03  3 30  3 24 30.0000000  0  4G11G31G14G25
  21987106.930   -14365991.83749 -11182821.27846  21987106.613    21987112.846
  24249448.412     1143354.93148    575876.12944  24249447.996    24249459.930
  21306197.811   -14071431.56449 -10947626.99247  21306197.386    21306203.048
  21414128.150   -14332413.65049 -11155658.51147  21414127.948    21414135.114
 03  3 30  3 25  0.0000000  0  4G11G31G14G25
  21975532.973   -14426813.12949 -11230214.44446  21975532.665    21975538.894
  24264240.752     1221088.46448    636447.62644  24264239.937    24264251.831
  21318048.454   -14009155.66149 -10899100.30447  21318048.033    21318053.799
  21402238.982   -14394890.81949 -11204341.94047  21402238.819    21402246.016
 03  3 30  3 25 30.0000000  0  4G11G31G14G25
  21964041.089   -14487203.12449 -11277271.53346  21964040.772    21964047.014
  24279052.896     1298927.16948    697101.10744  24279051.833    24279064.247
  21329941.211   -13946658.51649 -10850401.22047  21329940.809    21329946.573
  21390431.683   -14456938.00349 -11252690.31347  21390431.493    21390438.772
 03  3 30  3 26  0.0000000  0  4G11G31G14G25
  21952631.196   -14547161.84449 -11323992.57146  21952630.880    21952637.172
  24293884.091     1376866.14048    757832.69644  24293883.343    24293894.934
  21341875.329   -13883944.07749 -10801532.82247  21341874.937    21341880.698
  21378706.175   -14518555.08649 -11300703.55047  21378706.020    21378713.313
 03  3 30  3 26 30.0000000  0  4G11G31G14G25
  21941303.819   -14606687.16849 -11370375.89246  21941303.472    21941309.807
  24308733.771     1454902.46648    818640.16744  24308732.667    24308744.707
  21353850.443   -13821014.44649 -10752496.74147  21353850.027    21353855.851
  21367063.085   -14579739.73049 -11348379.82147  21367062.890    21367070.074
 03  3 30  3 27  0.0000000  0  4G11G31G14G25
  21930059.341   -14665777.01049 -11416419.87646  21930058.996    21930065.329
  24323601.601     1533032.90348    879520.99044  24323600.529    24323612.322
  21365866.147   -13757871.37349 -10703294.34047  21365865.719    21365871.674
  21355502.565   -14640490.13849 -11395717.72947  21355502.414    21355509.523
 03  3 30  3 27 30.0000000  0  4G11G31G14G25
  21918897.742   -14724431.64049 -11462124.72746  21918897.403    21918903.634
  24338486.682     1611252.79748    940471.49044  24338486.346    24338496.929
  21377921.924   -13694518.60349 -10653928.54047  21377921.443    21377927.313
  21344024.755   -14700806.34749 -11442717.30447  21344024.569    21344031.599
 03  3 30  3 28  0.0000000  0  4G11G31G14G25
  21907819.392   -14782649.26949 -11507489.04346  21907819.022    21907825.069
  24353388.061     1689558.68748   1001489.00044  24353387.260    24353398.353
  21390017.125   -13630958.29249 -10604401.02447  21390016.620    21390022.355
  21332629.738   -14760687.23249 -11489377.66247  21332629.558    21332636.563
 03  3 30  3 28 30.0000000  0  4G11G31G14G25
  21896824.882   -14840425.87649 -11552509.70446  21896824.534    21896830.412
  24368305.440     1767949.50548   1062572.67344  24368304.147    24368315.342
  21402151.600   -13567190.56749 -10554711.87247  21402151.169    21402156.938
  21321318.291   -14820128.57049 -11535695.51547  21321318.169    21321325.151
 03  3 30  3 29  0.0000000  0  4G11G31G14G25
  21885914.696   -14897759.03549 -11597184.82646  21885914.357    21885920.135
  24383238.411     1846422.80448   1123720.72544                  24383236.872
  21414325.220   -13503216.86849 -10504862.22747  21414324.881    21414330.752
  21310091.079   -14879127.71549 -11581668.80547  21310090.951    21310097.897
 03  3 30  3 29 30.0000000  0  4G11G31G14G25
  21875089.116   -14954646.92149 -11641512.98646  21875088.781    21875094.660
  24398186.333     1924975.25848   1184930.45144                  24398185.759
  21426538.017   -13439039.32849 -10454853.76147  21426537.547    21426543.267
  21298948.208   -14937683.30649 -11627296.46447  21298948.115    21298955.030
 03  3 30  3 30  0.0000000  0  4G11G31G14G25
  21864348.108   -15011090.06349 -11685494.59946  21864347.828    21864353.844
  24413148.616     2003601.91748   1246197.82344                  24413147.759
  21438788.509   -13374661.73649 -10404689.39447  21438788.076    21438793.903
  21287889.782   -14995795.57749 -11672578.68547  21287889.651    21287896.539
 03  3 30  3 30 30.0000000  0  4G11G31G14G25
  21853692.607   -15067084.42049 -11729126.49846  21853692.334    21853698.405
  24428124.654     2082301.56848   1307522.06644  24428124.761    24428135.427
  21451077.133   -13310084.24049 -10354369.26047  21451076.759    21451082.657
  21276916.423   -15053460.77949 -11717512.53447  21276916.238    21276923.124
 03  3 30  3 31  0.0000000  0  4G11G31G14G25
  21843122.878   -15122628.87149 -11772407.82446  21843122.611    21843128.576
  24443114.193     2161070.74648   1368900.55944  24443113.436    24443125.252
  21463403.484   -13245309.23349 -10303895.22647  21463403.045    21463408.877
  21266028.341   -15110677.65549 -11762097.04347  21266028.175    21266034.996
 03  3 30  3 31 30.0000000  0  4G11G31G14G25
  21832639.165   -15177721.69649 -11815337.22746  21832638.868    21832644.702
  24458116.181     2239905.84748   1430330.42144  24458116.344
  21475767.101   -13180339.23749 -10253269.25347  21475766.586    21475772.352
  21255225.899   -15167444.86249 -11806331.16947  21255225.713    21255232.448
 03  3 30  3 32  0.0000000  0  4G11G31G14G25
  21822241.922   -15232359.94449 -11857912.41746  21822241.587    21822247.364
                   2318805.11747   1491810.35243
  21488167.493   -13115174.70149 -10202491.68047  21488166.991    21488172.821
  21244509.482   -15223759.54649 -11850212.67147  21244509.302    21244516.019
 03  3 30  3 32 30.0000000  0  4G11G31G14G25
  21811931.405   -15286541.50449 -11900131.74946  21811931.085    21811936.894
                   2397766.11248   1553338.39443
  21500604.509   -13049817.16849 -10151563.72847  21500604.141    21500609.878
  21233879.587   -15279619.65949 -11893739.96247  21233879.411    21233886.084
 03  3 30  3 33  0.0000000  0  4G11G31G14G25
  21801707.737   -15340266.31349 -11941995.18146  21801707.432    21801713.318
                   2476783.52548  -5424994.74443
  21513077.605   -12984270.63549 -10100488.50347  21513077.186    21513082.938
  21223336.236   -15335025.54349 -11936913.30847  21223336.020    21223342.615
 03  3 30  3 33 30.0000000  0  4G11G31G14G25
  21791571.587   -15393531.73249 -11983500.64046  21791571.289    21791577.194
                   2555855.41348  -5363382.05043
  21525586.565   -12918536.13249 -10049266.80247  21525586.117    21525591.787
  21212879.753   -15389974.31049 -11979730.46547  21212879.559    21212886.156
 03  3 30  3 34  0.0000000  0  4G11G31G14G25
  21781523.609   -15446334.38549 -12024645.50746  21781523.295    21781529.159
                   2634980.43648  -5301729.60543
  21538131.076   -12852613.64349  -9997898.61147  21538130.613    21538136.374
  21202510.911   -15444462.68549 -12022188.87047  21202510.727    21202517.305
 03  3 30  3 34 30.0000000  0  4G11G31G14G25
  21771564.219   -15498671.80049 -12065427.85847  21771563.840    21771569.705
                   2714156.33948  -5472015.66843
  21550711.141   -12786504.26149  -9946384.80447  21550710.733    21550716.497
  21192230.199   -15498488.25949 -12064286.65547  21192229.985    21192236.565
 03  3 30  3 35  0.0000000  0  4G11G31G14G25
  21761693.277   -15550544.06949 -12105847.76047  21761692.874    21761698.742
                   2793378.13148  -5410251.15243
  21563326.158   -12720212.27049  -9894728.69047  21563325.661    21563331.293
  21182037.349   -15552051.67249 -12106024.31147  21182037.181    21182043.796
 03  3 30  3 35 30.0000000  0  4G11G31G14G25
  21751911.351   -15601948.38649 -12145903.03347  21751910.955    21751916.831
                   2872643.91348  -5348411.54243
  21575975.638   -12653738.21549  -9842930.71947  21575975.203    21575980.858
  21171933.058   -15605149.99949 -12147399.57047  21171932.856    21171939.473
 03  3 30  3 36  0.0000000  0  4G11G31G14G25
  21742218.635   -15652883.70249 -12185592.84247  21742218.255    21742224.062
                   2951949.98748  -5519038.19043
  21588659.355   -12587084.69649  -9790992.90047  21588658.923    21588664.650
  21161917.354   -15657782.37149 -12188411.74247  21161917.190    21161923.756
 03  3 30  3 36 30.0000000  0  4G11G31G14G25
  21732615.964   -15703345.94449 -12224914.01646  21732615.623    21732621.290
                   3031295.67758  -5457188.26143
  21601377.196   -12520251.05849  -9738914.71747  21601376.868    21601382.591
  21151991.122   -15709944.97049 -12229057.85947  21151990.912    21151997.433
 03  3 30  3 37  0.0000000  0  4G11G31G14G25
  21723102.985   -15753336.58849 -12263867.72446  21723102.669    21723108.253
                   3110675.15148  -5395273.61643
  21614128.644   -12453242.31449  -9686700.11247  21614128.251    21614133.940
  21142154.009   -15761639.02349 -12269338.88347  21142153.822    21142160.307
 03  3 30  3 37 30.0000000  0  4G11G31G14G25
  21713679.679   -15802855.90849 -12302454.16546  21713679.402    21713684.988
                   3190083.11948  -5564870.38843
  21626912.544   -12386062.45749  -9634352.15647  21626912.170    21626917.887
  21132405.990   -15812865.05849 -12309255.21047  21132405.800    21132412.248
 03  3 30  3 38  0.0000000  0  4G11G31G14G25
  21704346.473   -15851901.79849 -12340671.70147  21704346.214    21704351.885
                   3269517.38648  -5502973.26343
  21639728.958   -12318712.53049  -9581871.68847  21639728.497    21639734.154
  21122747.396   -15863621.19349 -12348805.37747  21122747.206    21122753.660
 03  3 30  3 38 30.0000000  0  5G11G31G14G25G20
  21695104.243   -15900470.05149 -12378517.05747  21695103.972    21695109.707
                   3348977.37548  -5441054.81843
  21652577.706   -12251192.01549  -9529258.28947  21652577.193    21652582.964
  21113179.030   -15913903.22449 -12387986.12147  21113178.850    21113185.316
  24724445.865    -1411758.65349  -1089292.24045  24724445.443    24724454.353
 03  3 30  3 39  0.0000000  0  5G11G31G14G25G20
  21685953.616   -15948556.92849 -12415987.30947  21685953.317    21685959.106
                   3428461.95048  -5610713.70943
  21665458.785   -12183500.91049  -9476511.95047  21665458.375    21665464.250
  21103701.447   -15963708.13849 -12426795.08047  21103701.242    21103707.768
  24708131.353    -1497492.50149  -1156097.74644  24708130.897    24708139.608
 03  3 30  3 39 30.0000000  0  5G11G31G14G25G20
  21676894.519   -15996162.34249 -12453082.39047  21676894.199    21676900.064
                   3507966.49748  -5548750.90243
  21678371.854   -12115642.53249  -9423635.28247  21678371.396    21678377.169
  21094314.612   -16013036.01649 -12465232.32247  21094314.420    21094320.985
  24691810.173    -1583261.55349  -1222930.73144  24691809.825    24691818.254
 03  3 30  3 40  0.0000000  0  5G11G31G14G25G20
  21667927.068   -16043285.68749 -12489801.84646  21667926.757    21667932.666
                   3587487.47948  -5486738.45343
  21691316.229   -12047619.45249  -9370630.27247  21691315.765    21691321.385
  21085018.811   -16061885.56949 -12503296.84547  21085018.585    21085025.188
  24675482.302    -1669066.19249  -1289791.44244  24675481.690    24675490.095
 03  3 30  3 40 30.0000000  0  5G11G31G14G25G20
  21659051.984   -16089924.03349 -12526143.36946  21659051.681    21659057.574
                   3667023.146 8   1234545.685 1
  21704291.639   -11979432.19149  -9317497.32447  21704291.282    21704297.028
  21075814.479   -16110254.51649 -12540986.87147  21075814.267    21075820.832
  24659147.386    -1754904.78949  -1356678.59144  24659146.698    24659155.506
 03  3 30  3 41  0.0000000  0  5G11G31G14G25G20
  21650269.747   -16136075.11349 -12562105.19946  21650269.440    21650275.189
                   3746571.14448  -5595822.60243
  21717298.293   -11911081.85649  -9264237.30647  21717297.927    21717303.719
  21066702.005   -16158140.63849 -12578300.67747  21066701.796    21066708.282
  24642806.429    -1840776.25949  -1423591.36844  24642805.761    24642814.909
 03  3 30  3 41 30.0000000  0  5G11G31G14G25G20
  21641580.473   -16181738.05749 -12597686.66947  21641580.126    21641585.734
                   3826127.99148  -5533828.70443
  21730335.465   -11842571.13049  -9210852.30346  21730335.062    21730340.854
  21057681.496   -16205543.47149 -12615237.88947  21057681.281    21057687.697
  24626459.524    -1926680.55049  -1490529.73044  24626458.698    24626467.850
 03  3 30  3 42  0.0000000  0  5G11G31G14G25G20
  21632984.285   -16226911.37649 -12632886.60547  21632983.897    21632989.475
                   3905690.33148  -5471830.62843
  21743402.904   -11773901.89649  -9157343.79246  21743402.406    21743408.080
  21048753.117   -16252461.75149 -12651797.52747  21048752.932    21048759.375
  24610105.999    -2012617.72548  -1557493.66744  24610104.831    24610113.756
 03  3 30  3 42 30.0000000  0  5G11G31G14G25G20
  21624481.484   -16271593.54249 -12667703.82747  21624481.143    21624486.695
                   3985255.57549  -5641638.95343
  21756500.206   -11705075.66149  -9103712.95146  21756499.619    21756505.150
  21039917.355   -16298893.75749 -12687978.25247  21039917.158    21039923.592
  24593746.032    -2098586.99048  -1624482.62444  24593744.876    24593754.075
 03  3 30  3 43  0.0000000  0  5G11G31G14G25G20
  21616072.553   -16315783.07449 -12702137.17647  21616072.205    21616077.684
                   4064820.74749  -5579640.46544                  24805403.906
  21769626.912   -11636094.20449  -9049961.14146  21769626.371    21769631.864
  21031174.432   -16344838.52049 -12723779.31047  21031174.191    21031180.557
  24577380.770    -2184587.78549  -1691496.13144  24577379.972    24577388.851
 03  3 30  3 43 30.0000000  0  5G11G31G14G25G20
  21607757.614   -16359478.59349 -12736185.57947  21607757.221    21607762.687
  24820527.229     4144382.70049  -5517644.14245  24820530.666    24820545.733
  21782782.779   -11566959.58249  -8996089.98946  21782782.263    21782787.737
  21022524.340   -16390294.86849 -12759199.78747  21022524.080    21022530.426
  24561009.646    -2270620.02049  -1758534.15544  24561008.987    24561017.420
 03  3 30  3 44  0.0000000  0  5G11G31G14G25G20
  21599536.763   -16402678.99749 -12769848.17547  21599536.382    21599541.893
  24835666.420     4223938.17149  -5455652.89545  24835669.616    24835677.142
  21795967.458   -11497673.78749  -8942101.03846  21795966.916    21795972.433
  21013967.248   -16435261.81949 -12794238.90547  21013967.024    21013973.431
  24544632.093    -2356683.41049  -1825596.44744  24544631.475    24544640.240
 03  3 30  3 44 30.0000000  0  5G11G31G14G25G20
  21591410.702   -16445381.03649 -12803122.43847  21591410.368    21591415.993
  24850803.812     4303485.93349  -5393667.63944  24850803.127    24850813.966
  21809180.621   -11428237.05149  -8887994.45846  21809180.259    21809185.891
  21005503.911   -16479736.33049 -12828894.30647  21005503.703    21005510.110
  24528249.255    -2442775.69049  -1892681.25545  24528248.757    24528257.568
 03  3 30  3 45  0.0000000  0  5G11G31G14G25G20
  21583379.737   -16487583.79549 -12836007.65347  21583379.378    21583385.039
  24865938.805     4383022.60848  -5331691.05644  24865938.699    24865949.107
  21822422.363   -11358651.66049  -8833772.04746  21822421.962    21822427.602
  20997134.520   -16523717.52049 -12863165.30647  20997134.346    20997140.644
  24511861.059    -2528896.94149  -1959788.60945  24511860.482    24511869.316
 03  3 30  3 45 30.0000000  0  5G11G31G14G25G20
  21575444.095   -16529285.40749 -12868502.36447  21575443.741    21575449.389
  24881071.341     4462545.58849  -5269725.16244  24881071.253    24881081.599
  21835692.088   -11288918.87149  -8779434.79346  21835691.625    21835697.260
  20988859.395   -16567203.79349 -12897050.66147  20988859.175    20988865.375
  24495467.331    -2615046.35849  -2026917.91745  24495466.841    24495475.590
 03  3 30  3 46  0.0000000  0  5G11G31G14G25G20
  21567604.108   -16570484.53049 -12900605.51647  21567603.779    21567609.399
  24896200.844     4542051.94549  -5207772.24344  24896200.800    24896211.311
  21848989.476   -11219040.56149  -8724984.14246  21848988.960    21848994.639
  20980678.509   -16610194.13449 -12930549.57147  20980678.309    20980684.535
  24479068.222    -2701223.49149  -2094068.82345  24479067.705    24479076.489
 03  3 30  3 46 30.0000000  0  5G11G31G14G25G20
  21559860.034   -16611179.86249 -12932316.10947  21559859.709    21559865.275
  24911326.673     4621538.91349  -5145834.36945  24911326.288    24911337.505
  21862314.069   -11149018.40849  -8670421.39646  21862313.615    21862319.364
  20972592.192   -16652687.17249 -12963660.97147  20972592.047    20972598.381
  24462663.945    -2787427.74749  -2161240.83845  24462663.431    24462672.342
 03  3 30  3 47  0.0000000  0  5G11G31G14G25G20
  21552212.129   -16651369.59649 -12963632.73047  21552211.794    21552217.355
  24926448.119     4701003.89749  -5083913.63745  24926447.950    24926459.328
  21875666.072   -11078853.62449  -8615747.51946  21875665.572    21875671.224
  20964600.876   -16694681.54449 -12996383.79947  20964600.699    20964607.141
  24446254.693    -2873658.13549  -2228433.23445  24446254.130    24446263.195
 03  3 30  3 47 30.0000000  0  4G11G14G25G20
  21544661.391   -16691048.57249 -12994551.35547  21544661.082    21544666.664
  21889045.504   -11008544.31049  -8560961.02346  21889044.989    21889050.574
  20956705.443   -16736172.04049 -13028714.00147  20956705.275    20956711.768
  24429841.304    -2959910.35348  -2295642.60845  24429840.664    24429849.825
 03  3 30  3 48  0.0000000  0  4G11G14G25G20
  21537208.919   -16730211.13949 -13025067.59247  21537208.611    21537214.262
  21902453.023   -10938087.55949  -8506059.64846  21902452.488    21902457.978
  20948906.841   -16777153.56249 -13060647.59547  20948906.694    20948913.233
  24413424.937    -3046179.38349  -2362865.05745  24413424.307    24413433.152
 03  3 30  3 48 30.0000000  0  4G11G14G25G20
  21529852.097   -16768871.26949 -13055192.31747  21529851.794    21529857.459
  21915885.189   -10867500.67249  -8451056.85846  21915884.729    21915890.209
  20941202.462   -16817640.26049 -13092195.61547  20941202.327    20941208.807
  24397002.506    -3132480.15949  -2430112.26444  24397001.767    24397010.313
 03  3 30  3 49  0.0000000  0  4G11G14G25G20
  21522591.985   -16807023.39949 -13084921.19847  21522591.680    21522597.323
  21929342.650   -10796781.04749  -8395950.63046  21929342.242    21929347.661
  20933593.236   -16857627.06249 -13123354.10447  20933593.075    20933599.518
  24380574.831    -3218807.91649  -2497380.50944  24380574.279    24380582.608
 03  3 30  3 49 30.0000000  0  4G11G14G25G20
  21515429.161   -16844664.27149 -13114251.69247  21515428.849    21515434.422
  21942825.563   -10725928.64249  -8340740.95846  21942825.029    21942830.324
  20926079.692   -16897110.81049 -13154120.60847  20926079.556    20926085.928
  24364142.426    -3305160.16249  -2564667.81744  24364141.856    24364150.068
 03  3 30  3 50  0.0000000  0  4G11G14G25G20
  21508363.900   -16881792.17649 -13143182.47347  21508363.570    21508369.096
  21956333.230   -10654944.40849  -8285428.55246  21956332.767    21956338.069
  20918662.352   -16936089.52249 -13184493.57447  20918662.182    20918668.436
  24347705.344    -3391535.78249  -2631973.32244  24347704.586    24347713.202
 03  3 30  3 50 30.0000000  0  4G11G14G25G20
  21501396.743   -16918404.47449 -13171711.49047  21501396.413    21501401.903
  21969866.055   -10583828.38449  -8230013.45146  21969865.668    21969870.972
  20911341.564   -16974560.77749 -13214471.12347  20911341.360    20911347.527
  24331264.120    -3477932.60049  -2699295.36444  24331263.467    24331272.275
 03  3 30  3 51  0.0000000  0  4G11G14G25G20
  21494527.747   -16954501.18849 -13199838.75447  21494527.428    21494532.837
  21983423.632   -10512583.72349  -8174498.12546  21983423.073    21983428.443
  20904117.132   -17012525.26949 -13244053.79247  20904116.901    20904123.056
  24314819.173    -3564351.37249  -2766634.49545  24314818.341    24314827.299
 03  3 30  3 51 30.0000000  0  4G11G14G25G20
  21487757.095   -16990081.29149 -13227563.46147  21487756.785    21487762.138
  21997005.183   -10441212.29349  -8118884.00546  21997004.551    21997010.121
  20896989.299   -17049981.90449 -13273240.72947  20896989.076    20896995.231
  24298370.044    -3650791.73949  -2833990.44845  24298369.199    24298378.023
 03  3 30  3 52  0.0000000  0  4G11G14G25G20
  21481084.988   -17025143.27949 -13254884.44947  21481084.645    21481089.991
  22010610.404   -10369715.46149  -8063172.16946  22010609.902    22010615.515
  20889958.270   -17086929.54949 -13302031.04547  20889958.063    20889964.251
  24281917.228    -3737252.79349  -2901362.48845  24281916.259    24281925.058
 03  3 30  3 52 30.0000000  0  4G11G14G25G20
  21474511.825   -17059685.44449 -13281800.37747  21474511.445    21474516.780
  22024239.411   -10298094.49949  -8007363.62446  22024238.927    22024244.466
  20883024.297   -17123367.04549 -13330423.84847  20883024.104    20883030.325
  24265460.583    -3823733.47849  -2968749.82845  24265459.482    24265468.206
 03  3 30  3 53  0.0000000  0  4G11G14G25G20
  21468038.059   -17093705.20249 -13308309.24347  21468037.667    21468043.002
  22037892.134   -10226349.50049  -7951458.42046  22037891.605    22037897.092
  20876187.887   -17159291.97049 -13358417.24247  20876187.756    20876193.988
  24249000.319    -3910231.75949  -3036150.85045  24248999.307    24249008.177
